GFSSE_sfc_temp_003.txt.gz
Temp
75 79 74 74 74 74 74 74 74 74 75 75 76 76 76 76 75 75 75 75 76 76 77 76 76 76 75 74 73 73 73 72 72 73 73 74 75 76 77 75 76 82 75
77 79 73 74 74 75 74 74 74 75 75 76 75 75 75 75 75 74 75 75 76 76 76 76 75 74 74 73 72 72 72 71 71 71 72 75 75 74 76 75 74 79 75
77 79 79 73 74 74 75 74 75 75 75 75 75 75 75 74 74 74 74 74 75 76 76 75 75 74 73 72 71 71 71 71 70 70 71 79 80 73 75 75 75 75 75
77 78 79 73 73 74 74 74 74 75 75 75 74 74 74 74 74 73 73 73 74 75 75 75 74 73 72 71 70 70 70 70 69 69 79 78 79 73 74 75 74 75 75
77 78 78 73 73 73 73 73 74 74 74 74 74 74 74 74 74 73 73 73 74 75 75 74 73 72 70 70 70 70 70 69 68 75 79 77 78 76 74 74 76 75 74
76 77 73 71 72 73 74 73 73 73 72 72 73 74 74 73 73 72 72 73 74 74 74 73 72 71 70 70 70 69 69 68 69 79 78 76 77 73 74 74 73 72 73
76 77 77 69 71 73 73 73 72 72 72 72 72 72 72 72 72 71 71 72 72 72 72 72 71 70 70 70 69 69 68 67 75 78 78 76 76 73 75 74 73 73 73
75 77 78 72 72 72 72 72 71 71 71 71 71 72 72 71 70 71 71 71 71 71 71 71 70 70 70 70 69 68 67 67 75 77 76 77 71 73 75 74 73 72 72
75 76 77 78 75 70 69 69 69 70 70 70 70 70 70 69 70 70 70 70 70 70 70 70 70 70 70 69 68 67 66 67 76 77 76 78 70 73 75 75 73 72 72
75 76 77 77 77 76 76 68 69 69 69 69 69 69 69 69 69 69 69 69 70 70 70 70 70 69 69 68 67 66 66 68 77 78 78 78 69 73 75 74 73 73 72
72 73 74 74 74 73 74 73 70 69 69 69 70 69 69 76 74 74 69 69 69 68 69 69 69 68 68 68 66 66 66 78 76 78 78 68 69 73 74 74 73 72 72
70 71 72 71 72 71 73 72 73 74 75 75 75 73 76 73 74 72 70 67 68 67 68 67 67 67 69 76 76 71 76 74 76 75 77 66 69 72 74 74 73 73 72
71 71 70 71 71 71 72 72 73 74 73 73 72 72 73 72 73 75 75 75 74 69 75 73 73 74 71 72 73 72 73 73 74 75 73 65 67 70 73 74 74 74 73
69 71 71 71 70 69 72 72 72 72 72 72 73 72 72 73 73 72 75 73 71 72 71 71 72 70 70 70 70 70 70 72 73 74 74 63 64 67 69 71 72 73 73
69 70 69 69 69 69 69 70 71 69 68 69 70 71 71 73 72 73 71 72 71 72 71 71 71 70 70 70 69 69 69 69 70 73 74 62 62 65 67 69 69 69 70
70 70 68 69 70 71 70 69 67 65 67 67 66 63 63 65 69 70 69 69 70 69 69 70 69 69 68 68 68 67 67 68 68 69 72 70 60 62 64 65 67 67 68
71 69 68 68 70 68 68 69 67 63 63 61 62 62 61 63 67 67 69 67 67 68 68 68 67 67 67 67 66 67 68 67 67 66 67 68 68 60 60 62 63 64 65
69 69 69 70 68 65 64 60 60 59 59 60 60 61 65 68 67 66 66 65 66 67 67 67 66 66 65 64 64 66 66 66 65 65 65 66 66 67 63 59 60 60 62
71 70 68 67 66 60 58 58 61 61 62 60 60 62 62 62 63 64 65 64 64 65 63 64 63 62 62 62 64 65 65 65 65 67 64 63 63 64 65 61 58 58 59
69 68 65 65 59 58 64 65 65 64 63 63 64 64 64 65 63 64 63 62 64 64 62 63 60 61 60 58 61 62 63 64 65 64 63 63 63 61 62 61 62 63 58
66 65 65 64 65 66 65 65 65 65 64 64 65 63 63 63 64 63 64 63 63 62 60 60 62 58 60 58 58 60 61 61 61 62 62 61 60 60 60 60 61 61 62
66 68 67 67 67 69 68 67 66 65 64 64 63 61 62 61 63 63 62 63 62 62 59 58 58 58 58 55 53 54 53 57 60 59 59 58 57 58 58 58 58 58 59
64 64 66 67 67 67 65 65 64 64 63 64 62 63 62 62 64 64 62 62 61 60 59 57 56 55 54 54 52 52 48 47 49 56 55 56 55 55 55 55 55 55 56
63 64 66 65 65 63 62 63 61 62 61 59 60 62 63 61 62 63 61 60 59 59 56 55 56 54 53 50 53 53 51 49 44 43 52 53 53 52 52 52 53 53 54
63 62 61 61 60 60 61 60 61 59 59 61 61 58 58 59 59 59 59 57 57 56 55 54 53 53 53 51 50 49 48 48 48 43 40 45 50 51 52 50 51 52 53
61 59 59 59 58 59 59 58 58 57 57 58 57 57 58 58 59 58 57 55 55 54 54 53 51 51 51 51 51 49 47 44 43 42 40 42 42 47 50 50 49 51 52

GFSSE_sfc_temp_006.txt.gz
Temp
84 84 74 75 74 74 74 74 74 75 75 76 76 76 76 76 75 75 75 75 76 77 77 76 75 75 75 74 74 73 73 72 72 73 73 75 76 76 76 75 75 85 75
85 83 73 74 74 75 75 74 74 75 75 76 76 75 75 75 75 75 75 75 76 77 76 76 75 75 74 74 73 73 72 72 72 72 73 76 76 75 76 75 75 81 75
83 83 83 74 74 75 75 75 75 75 76 75 75 75 75 75 74 74 74 75 75 76 76 76 75 75 74 72 72 72 72 71 71 71 74 88 87 75 77 75 75 76 76
83 85 85 73 74 74 74 74 75 76 75 75 75 75 75 74 74 74 74 74 75 76 76 76 75 74 72 72 71 71 71 70 70 72 87 86 87 75 76 76 76 75 76
83 84 83 73 73 74 74 74 74 74 74 74 74 75 75 74 74 74 73 74 75 75 75 75 74 72 71 71 71 71 70 70 70 78 87 84 86 78 75 74 77 75 74
80 82 73 72 73 72 74 74 74 73 73 73 74 74 74 74 74 73 73 74 74 74 74 74 73 72 71 70 70 70 69 69 69 87 86 82 83 75 75 74 73 74 74
77 79 78 70 71 73 74 73 73 72 72 72 73 73 73 73 73 72 72 72 73 73 73 72 72 71 71 70 70 69 68 68 84 86 86 84 80 74 76 74 74 74 74
80 79 77 73 73 72 71 72 72 71 72 72 72 72 72 72 72 72 72 72 71 71 72 72 71 71 71 70 69 68 67 68 84 85 85 86 72 74 75 74 73 73 73
81 79 79 80 77 70 70 70 70 71 71 71 71 71 70 70 71 71 71 71 71 71 71 71 71 71 70 69 68 67 67 67 83 85 85 85 71 74 75 74 73 73 72
78 79 79 80 82 81 81 69 70 70 70 70 70 70 70 70 71 70 71 71 71 70 70 71 70 70 69 69 68 67 67 68 84 85 87 81 70 74 75 74 74 73 73
77 78 81 82 81 80 82 76 71 70 70 70 72 70 71 85 83 81 70 69 70 69 69 69 69 68 68 68 70 68 67 85 83 85 86 68 69 72 74 74 74 73 73
77 74 77 77 76 79 81 80 80 81 84 83 83 81 86 80 81 78 73 68 69 68 69 69 69 68 71 84 84 76 84 81 84 83 84 66 68 71 73 73 73 73 73
75 73 74 72 74 79 80 82 84 84 83 82 79 80 81 80 81 82 83 84 83 73 84 81 82 83 79 79 80 79 80 81 82 83 75 64 67 70 71 71 72 72 72
78 76 75 80 78 78 82 83 81 82 82 82 80 80 78 77 74 77 82 82 81 83 79 81 82 78 78 78 77 76 76 78 80 81 75 63 66 69 71 71 70 70 70
79 79 78 78 77 77 78 80 81 81 82 81 83 79 77 71 68 75 78 81 80 82 81 79 80 79 78 78 77 76 75 75 75 79 80 62 63 66 68 68 68 68 68
79 77 77 78 79 80 79 78 77 77 75 72 76 73 70 67 63 68 76 79 80 81 81 80 78 77 77 76 76 74 74 75 75 74 78 75 61 62 64 65 65 66 66
80 79 77 77 78 76 77 77 74 75 72 76 77 72 68 68 65 69 74 77 78 78 76 76 75 75 75 76 74 75 74 74 74 73 74 76 73 59 60 61 62 63 63
80 77 77 77 77 74 70 64 62 68 72 76 73 71 72 68 68 71 74 70 70 72 73 73 73 73 73 72 71 73 74 74 73 72 73 72 74 75 63 60 60 60 61
81 78 77 76 71 65 65 65 71 68 71 72 72 72 66 67 68 70 71 71 72 73 71 71 71 68 69 69 70 71 72 72 72 74 72 70 70 70 71 63 61 60 60
80 79 76 77 75 75 79 74 76 76 75 75 75 74 72 74 71 74 73 70 72 72 71 70 67 69 67 66 67 69 70 70 71 71 69 70 70 67 68 66 67 68 60
78 76 76 74 75 79 78 76 76 76 75 74 74 71 70 71 71 70 73 71 70 69 67 66 67 66 66 66 63 65 67 68 68 68 68 67 66 65 65 65 65 65 65
75 76 76 76 77 78 79 78 78 78 75 73 73 70 71 70 71 71 69 69 69 68 67 65 63 63 65 64 57 58 56 61 67 66 65 65 63 64 63 63 61 61 61
75 75 76 77 77 76 74 76 75 74 73 75 74 74 71 69 70 70 68 68 67 67 65 64 62 60 59 61 59 55 51 50 55 61 62 62 61 60 60 60 59 58 59
74 76 77 76 74 72 73 72 70 71 70 68 70 71 70 69 68 69 68 66 65 65 64 63 63 59 58 56 59 61 57 54 49 47 57 58 59 58 57 57 58 57 57
73 72 72 72 71 71 71 71 70 68 69 69 68 66 67 68 68 68 67 65 64 65 63 61 59 58 59 56 56 55 54 54 53 49 45 50 55 57 57 57 56 56 56
72 70 70 70 69 69 68 67 65 64 65 65 64 64 65 66 66 66 66 64 63 63 60 60 59 56 55 55 55 54 52 49 49 48 46 47 48 52 56 56 55 55 55

GFSSE_sfc_temp_009.txt.gz
Temp
82 84 74 74 74 74 74 74 74 75 75 76 76 76 76 76 76 75 75 76 76 77 76 76 76 76 76 75 74 74 73 73 72 73 74 75 76 76 76 76 75 83 76
84 85 73 74 74 75 75 74 74 75 76 76 76 76 75 75 75 75 75 76 76 76 76 76 76 75 75 74 73 73 73 72 72 72 74 75 76 77 76 76 75 80 76
84 85 82 73 74 74 75 75 75 76 76 76 75 75 75 75 75 74 74 75 76 76 76 76 76 75 74 73 72 72 72 72 72 72 74 88 82 77 76 76 75 76 76
83 83 82 73 74 74 74 75 75 75 76 75 75 75 75 75 74 74 74 74 75 76 76 76 75 74 73 72 72 72 71 71 71 72 87 87 84 76 76 76 76 76 76
83 83 79 73 73 74 74 74 74 74 74 74 75 75 75 74 74 74 74 75 75 75 75 75 74 73 72 71 71 71 71 71 71 76 87 84 85 78 75 74 77 75 74
82 80 72 72 73 74 74 74 73 73 73 73 74 74 74 74 74 73 73 74 74 74 74 74 73 72 71 71 71 70 70 70 70 89 87 82 80 76 75 74 74 74 74
73 73 76 69 71 74 74 74 73 72 72 73 73 73 73 73 73 73 73 73 73 73 73 73 72 72 71 71 70 69 69 69 83 87 87 81 77 75 75 74 74 74 73
70 74 75 71 72 73 73 72 71 71 72 72 72 72 73 72 72 72 72 72 72 72 72 72 72 71 71 71 70 69 68 68 83 86 86 81 73 75 76 74 73 73 73
67 74 74 78 77 70 69 70 70 70 71 71 71 71 71 71 72 72 72 72 72 72 72 72 72 71 71 70 69 69 68 69 78 86 87 82 71 74 75 75 74 73 73
70 75 79 80 79 78 75 69 69 70 70 70 71 71 71 71 72 72 72 72 71 71 71 71 70 70 70 70 70 69 69 69 84 86 84 76 71 73 75 74 74 74 73
76 77 79 80 80 78 76 74 71 70 70 70 72 71 72 82 83 81 71 71 71 70 70 70 70 69 69 69 71 70 69 84 83 85 81 68 70 73 73 74 74 74 73
75 78 79 79 78 80 83 80 82 82 84 83 83 82 85 82 82 82 75 71 71 70 71 71 71 70 69 84 84 76 83 81 83 83 76 67 69 72 73 72 72 72 72
80 78 79 79 80 83 82 84 85 83 82 82 81 83 81 83 81 83 82 83 83 74 83 80 81 83 80 80 80 79 79 80 82 82 70 66 69 72 73 71 71 70 70
79 79 81 83 81 81 84 85 85 84 84 83 83 82 80 81 78 78 80 79 81 83 81 81 82 80 80 80 79 77 77 78 79 79 71 65 67 69 71 71 70 69 68
81 80 82 82 80 81 82 82 82 79 79 81 81 78 79 79 74 75 70 70 75 81 81 80 81 80 79 79 78 77 75 76 76 78 78 63 64 66 68 69 69 68 68
83 81 80 80 81 82 81 80 80 80 80 80 80 79 77 79 75 75 76 76 79 79 80 79 77 76 75 75 74 75 74 75 75 75 76 74 62 64 64 65 65 65 66
82 81 79 79 81 80 79 80 79 78 74 80 79 77 76 78 74 69 71 72 73 75 75 76 75 75 75 75 73 74 74 75 75 74 74 75 71 60 62 62 62 62 63
83 81 80 81 80 79 74 67 67 74 75 75 73 73 71 71 69 69 72 72 72 71 71 70 70 70 71 72 72 73 73 74 73 73 74 75 74 74 65 61 62 62 62
84 81 80 79 78 74 70 78 77 74 75 75 74 75 74 74 74 75 76 74 73 74 74 72 71 70 69 69 70 71 71 72 72 74 71 72 72 71 69 67 63 63 61
84 82 80 79 78 74 82 79 78 78 78 79 78 77 76 77 74 74 76 72 72 73 72 71 67 69 68 68 69 67 68 70 71 70 70 71 71 69 69 67 66 66 61
82 81 79 79 78 81 81 79 78 76 77 76 76 74 74 74 74 72 73 73 72 71 69 68 67 65 65 67 65 63 64 66 68 69 69 68 66 67 66 66 65 64 63
80 80 80 79 80 82 82 81 80 79 77 76 75 73 74 73 74 73 70 70 70 69 67 66 65 63 64 65 60 59 54 58 64 65 65 65 64 65 64 64 61 61 61
78 79 80 80 81 80 79 79 77 77 75 76 76 76 73 71 72 71 70 69 67 67 66 65 64 61 59 61 62 57 51 49 54 60 60 62 61 62 61 61 60 60 59
78 80 81 80 78 76 78 76 73 74 72 71 72 72 72 72 71 71 70 68 67 66 64 64 66 61 59 56 59 61 58 55 49 47 56 58 59 59 59 59 59 58 58
79 78 78 77 76 76 75 75 73 71 71 72 70 68 69 69 69 69 68 66 65 65 64 63 62 60 59 57 56 55 54 54 54 49 45 50 55 57 58 58 57 57 58
77 75 74 74 74 73 72 71 68 67 67 67 65 65 65 66 66 66 65 63 63 63 62 63 61 58 55 54 56 54 52 50 49 48 46 46 48 52 56 56 56 56 57

GFSSE_sfc_temp_012.txt.gz
Temp
77 76 74 74 74 74 74 74 74 75 75 76 76 75 75 75 75 75 75 75 76 77 77 77 76 76 75 75 74 74 73 73 72 73 74 76 77 77 76 75 75 77 75
77 77 73 74 74 75 75 74 75 75 75 75 75 75 75 75 75 75 75 75 76 77 77 76 76 75 75 73 73 73 73 72 72 72 74 75 75 77 76 75 74 76 75
78 77 77 73 74 75 75 75 75 75 75 75 75 75 75 75 75 74 74 75 75 76 77 76 76 75 74 73 72 72 72 72 72 72 73 72 76 76 76 75 75 75 75
80 79 77 73 73 74 74 75 75 75 75 75 75 75 75 75 75 74 74 74 75 76 76 76 75 74 73 72 71 71 71 71 71 72 76 79 78 75 76 75 75 75 75
80 81 76 73 73 74 74 74 73 74 74 74 74 75 75 75 74 74 73 74 75 75 75 75 74 73 71 70 70 70 71 71 72 74 75 74 73 76 75 74 74 74 73
77 76 71 72 73 74 74 73 73 73 73 73 73 74 74 74 74 73 73 74 75 75 75 74 73 72 71 70 70 70 70 70 71 76 74 73 72 75 75 74 73 73 72
69 70 71 69 71 73 73 73 72 72 72 72 72 73 73 73 73 73 72 73 73 73 73 73 72 71 71 70 70 70 70 69 72 74 71 70 69 75 75 74 73 72 72
69 69 70 70 70 70 71 71 71 71 71 71 72 72 72 72 72 72 72 72 72 72 72 72 71 71 71 71 70 70 69 69 74 72 73 69 72 75 75 75 73 72 72
69 69 68 69 72 70 69 69 70 70 70 70 70 71 71 71 71 72 72 72 72 71 71 71 71 70 71 71 70 70 68 69 68 72 76 69 72 74 75 74 74 73 72
66 68 68 68 69 70 71 69 69 69 70 70 70 70 70 71 71 71 71 71 71 71 71 71 71 71 71 70 70 69 68 70 72 72 68 66 72 74 74 74 73 73 73
64 68 69 69 71 70 70 70 70 70 70 70 70 70 69 72 72 72 71 71 71 70 70 71 71 71 70 69 71 70 69 71 71 70 65 68 72 74 73 72 72 72 71
63 68 71 71 71 72 77 71 70 73 72 72 73 71 72 74 73 76 72 71 72 71 71 71 71 70 70 71 70 70 69 69 69 69 62 68 72 73 73 72 71 70 70
72 73 74 72 72 75 75 74 74 75 72 74 75 75 74 74 72 72 70 72 69 70 73 71 72 72 72 69 68 67 68 68 66 67 64 67 70 72 72 71 70 70 69
75 75 75 76 73 73 75 75 74 75 74 73 74 75 72 71 70 69 68 67 67 70 71 70 69 71 68 70 68 68 67 65 65 65 61 65 68 70 71 71 70 69 68
75 76 76 75 74 75 74 74 74 73 74 74 72 73 72 70 67 67 66 67 68 70 70 69 67 67 66 67 66 67 66 66 66 65 62 64 65 68 69 69 68 68 67
77 76 75 75 74 76 73 73 72 71 71 72 72 72 72 70 67 66 67 65 67 67 68 67 65 64 64 65 66 66 66 66 66 66 65 61 63 65 66 66 66 65 65
78 77 74 73 75 73 73 73 71 70 71 71 70 69 69 63 63 63 63 63 63 66 66 64 63 62 61 64 63 64 64 64 64 64 64 64 60 62 62 64 64 64 64
78 75 76 78 74 70 67 66 66 69 69 68 67 65 66 67 66 65 65 63 63 63 63 62 61 60 60 60 59 60 60 62 63 65 63 62 62 64 60 62 63 63 63
78 76 75 74 71 68 67 69 70 69 68 67 66 66 68 68 68 65 64 63 63 63 62 62 59 58 57 58 61 60 57 58 59 65 62 62 61 62 63 62 62 62 62
78 76 75 74 71 68 72 70 70 69 69 69 68 68 68 68 67 64 64 63 63 62 61 59 58 58 57 55 62 61 55 55 57 57 57 62 59 59 58 60 56 57 60
76 76 75 73 71 72 73 70 68 66 67 67 67 67 66 66 67 65 63 62 62 60 58 59 57 55 54 55 52 53 53 54 53 53 54 54 55 59 59 56 53 52 54
76 75 75 75 74 75 74 71 70 69 67 67 66 66 66 65 65 65 61 60 60 58 57 56 54 52 53 53 48 48 44 48 51 54 52 53 50 53 55 56 54 53 51
73 73 75 71 75 74 71 72 69 68 65 66 65 64 65 65 66 64 61 59 58 57 55 54 53 52 49 50 51 46 42 39 44 48 49 49 49 48 49 51 53 53 51
68 72 75 76 73 73 73 68 66 65 62 62 62 62 63 62 61 62 60 57 55 55 54 53 57 51 50 46 48 53 46 44 40 39 45 46 47 50 47 47 48 50 50
69 73 73 72 72 71 70 68 65 63 62 62 59 59 59 59 60 60 58 55 53 53 53 53 52 51 49 46 44 44 44 43 43 39 37 39 44 46 48 46 45 46 49
73 71 69 70 70 69 66 64 61 59 59 57 57 56 55 56 56 57 57 54 53 53 53 52 50 48 46 45 46 47 44 41 39 38 36 37 39 43 45 46 44 45 46

GFSSE_sfc_temp_015.txt.gz
Temp
70 73 73 74 74 74 74 74 74 74 75 75 75 75 75 75 75 75 75 75 76 77 77 76 76 76 76 75 74 74 73 73 73 73 74 76 76 76 76 74 75 75 75
72 74 73 74 74 74 74 74 74 74 75 75 75 75 75 75 74 75 75 75 76 77 77 76 76 76 75 74 73 73 73 72 72 72 74 76 76 77 76 74 74 74 75
71 74 74 73 74 74 75 74 74 75 75 75 74 74 74 74 74 74 74 75 76 76 76 76 75 75 74 73 72 72 72 72 72 72 73 72 72 76 76 73 74 74 75
73 74 74 73 74 74 74 74 74 75 75 75 74 74 74 74 74 74 74 74 75 76 76 76 75 74 73 72 71 72 72 72 73 73 72 73 75 75 75 74 74 74 74
73 73 73 73 73 74 74 74 74 74 74 74 74 75 74 75 74 74 74 74 75 76 75 75 74 73 71 71 71 71 71 71 72 72 67 67 69 75 75 74 73 73 72
72 72 71 72 73 73 73 73 73 73 72 73 73 74 74 74 74 73 73 74 75 75 74 74 73 72 71 71 71 71 71 70 71 65 65 70 70 75 74 74 72 72 72
68 69 71 71 72 72 72 72 72 72 72 72 72 73 73 73 73 72 72 73 73 73 73 72 72 71 71 71 71 70 70 70 68 65 64 66 69 75 75 74 73 72 72
67 68 69 71 70 69 71 71 71 71 71 71 72 72 72 72 72 72 72 72 72 72 71 71 71 71 71 71 71 69 68 69 69 66 66 65 72 75 75 74 72 72 72
67 65 67 68 68 69 69 69 69 70 70 71 71 71 71 71 71 72 72 71 71 71 71 71 71 71 71 71 70 68 68 69 65 66 70 64 72 74 74 74 73 72 72
65 64 65 67 67 67 69 68 69 69 69 70 70 70 70 70 71 71 71 71 71 71 71 71 71 71 71 70 69 68 68 68 63 63 62 64 73 74 73 72 72 72 71
64 65 65 65 67 67 67 69 70 70 70 69 70 69 68 68 68 70 69 70 71 70 70 71 71 69 69 69 70 69 68 65 64 61 60 69 73 74 73 71 71 70 69
62 64 64 66 66 68 73 67 66 70 68 67 68 68 68 67 67 71 69 69 70 69 70 71 71 69 70 67 65 67 64 64 63 61 60 69 72 74 72 71 70 69 69
65 66 66 67 69 69 70 67 66 66 66 67 69 68 68 69 67 67 65 63 65 69 68 69 68 68 66 64 63 62 63 63 60 60 63 67 70 72 72 71 70 69 67
65 68 69 69 69 69 70 68 68 68 68 68 69 69 67 64 64 63 62 62 63 64 63 64 65 66 64 64 64 63 62 61 60 60 60 66 68 71 71 70 69 68 67
69 70 69 70 69 69 68 69 68 68 67 68 68 68 66 63 63 63 62 62 63 63 62 61 63 62 61 62 62 62 62 62 61 60 57 64 66 68 69 69 68 67 66
69 69 68 69 68 70 69 67 65 65 67 65 65 65 64 62 61 60 60 61 60 60 60 60 59 58 59 59 60 60 61 59 59 59 59 57 63 65 66 66 66 66 66
70 70 67 67 68 68 66 66 64 65 65 64 63 61 61 61 59 60 59 58 58 59 59 59 57 57 56 59 58 59 58 58 58 58 59 59 58 62 63 65 65 65 65
69 68 68 73 66 64 63 62 63 64 61 61 60 61 62 63 61 59 58 57 58 58 58 56 56 55 54 54 53 54 54 56 56 58 59 58 55 58 60 62 64 63 63
70 69 67 66 64 63 62 62 63 62 61 60 59 60 62 62 62 58 58 58 59 57 56 56 54 53 52 52 55 53 51 51 53 57 55 56 54 55 55 60 60 60 61
70 67 68 66 64 64 63 63 62 60 59 59 59 60 62 61 62 58 58 57 57 56 54 54 53 53 51 51 58 54 49 50 50 49 50 55 53 53 52 53 53 55 59
66 69 67 65 64 63 63 61 59 58 58 58 60 61 60 60 60 58 57 57 55 54 52 53 51 50 50 48 47 46 48 48 49 47 48 48 50 51 52 51 54 52 52
65 69 67 67 65 66 70 61 61 62 58 59 58 59 60 60 60 60 55 54 53 53 52 51 49 48 47 47 44 42 39 42 45 47 46 48 44 47 50 52 51 50 46
67 68 68 67 68 67 67 64 61 59 57 56 56 56 57 58 58 56 53 51 50 50 49 48 48 48 45 46 45 42 36 34 37 43 45 44 43 43 44 45 48 49 48
66 70 70 71 69 65 64 63 62 56 56 54 54 54 54 56 55 55 53 50 49 48 48 47 52 46 45 41 43 47 42 40 34 33 39 41 43 45 42 42 44 46 46
68 65 69 69 67 63 62 60 59 56 54 52 52 51 53 53 53 53 52 50 49 48 47 46 44 44 43 41 41 40 40 39 38 35 31 34 39 41 42 41 41 42 45
65 64 68 67 62 59 58 56 55 54 51 51 50 49 50 50 50 51 53 49 49 47 46 45 44 44 42 42 43 41 40 37 36 34 32 32 33 37 40 41 40 40 41

GFSSE_sfc_temp_018.txt.gz
Temp
71 72 73 74 74 74 74 74 74 74 75 75 75 75 75 75 75 75 75 75 76 77 77 77 76 76 76 75 75 74 74 73 73 74 75 75 76 76 75 74 74 74 75
72 73 73 73 74 74 74 74 74 74 75 75 75 74 74 75 75 75 75 75 76 76 77 76 76 76 75 74 73 73 73 72 72 73 75 75 76 76 75 74 73 73 74
71 73 73 73 74 74 74 74 74 75 75 75 74 74 74 74 74 74 74 75 75 76 76 76 76 76 75 73 73 73 73 73 72 73 73 68 70 75 75 74 73 74 74
71 73 73 73 73 74 74 74 74 75 75 75 74 74 74 74 74 74 74 74 75 76 76 76 76 75 73 72 72 72 73 72 71 71 68 70 73 75 74 74 74 74 73
71 72 73 73 73 73 73 73 73 74 74 74 74 75 75 75 75 74 74 74 75 76 76 75 75 74 72 71 71 72 72 71 70 69 64 67 68 74 74 73 72 72 72
70 72 71 72 72 73 73 73 73 73 73 73 73 74 74 74 74 74 73 74 75 75 75 74 73 73 71 71 71 71 70 70 68 62 64 68 69 75 74 73 72 72 71
68 70 71 71 72 73 73 73 72 72 72 72 73 73 73 74 73 73 73 73 73 74 73 73 72 72 71 71 71 70 69 69 65 62 62 65 68 75 75 73 72 72 72
67 69 69 70 69 70 71 71 71 71 71 71 72 72 73 72 72 72 72 72 72 72 71 71 71 71 71 71 70 69 68 69 66 63 64 64 71 74 74 73 72 71 72
65 66 65 65 67 67 67 69 69 70 70 71 71 71 71 71 71 71 71 71 71 71 71 72 71 71 71 70 70 68 68 67 62 63 67 63 72 74 73 72 71 71 70
64 64 63 64 65 66 67 68 69 69 69 70 70 70 69 70 71 71 71 71 71 71 71 72 71 71 71 70 69 68 67 66 61 60 60 63 72 73 72 71 70 70 70
64 65 63 64 66 66 66 69 69 70 70 69 69 69 67 67 68 69 68 70 70 69 70 71 71 69 68 68 68 67 66 61 60 59 59 69 72 73 72 71 70 69 68
61 61 64 65 65 66 71 66 65 68 66 66 67 67 66 66 66 68 68 69 69 70 69 69 68 68 66 63 62 65 61 61 59 59 59 68 72 73 72 70 69 68 68
61 61 63 64 66 68 68 64 64 64 64 66 66 66 65 66 64 64 63 62 62 66 65 65 64 63 63 61 60 60 60 60 57 58 61 67 70 72 71 70 69 68 67
62 62 63 65 66 66 66 65 64 65 65 65 66 67 64 62 62 61 60 60 61 60 60 60 60 61 61 61 61 60 59 57 57 57 57 65 68 70 71 70 68 67 66
63 64 65 66 67 66 65 64 65 65 66 66 66 66 63 61 60 60 59 59 59 60 60 58 58 58 58 59 59 59 58 57 57 56 54 62 64 68 69 69 68 67 66
65 66 66 66 66 67 66 65 64 65 64 63 62 62 62 61 58 58 58 59 58 57 57 56 56 56 55 56 57 56 56 56 56 55 54 53 61 65 67 67 67 66 66
68 67 65 64 66 65 64 63 62 64 62 61 61 61 61 60 58 58 57 57 56 56 56 55 55 54 54 56 54 55 55 54 54 54 54 57 53 61 63 65 65 65 65
68 66 66 71 64 63 62 60 61 60 59 59 59 59 60 60 59 57 56 56 55 55 54 53 53 53 52 51 50 51 51 53 53 53 53 52 52 54 57 61 62 63 62
67 64 64 63 62 61 60 61 60 59 59 58 57 57 59 59 59 56 55 54 55 54 53 53 52 51 49 50 53 50 49 48 49 53 51 51 50 50 52 59 59 60 61
66 64 65 63 61 61 61 59 58 57 56 57 57 57 59 58 58 56 55 54 54 53 52 51 50 50 49 48 55 51 47 46 46 45 47 51 49 48 49 50 48 53 59
61 65 65 62 61 62 61 59 55 54 55 55 57 58 57 57 57 55 53 53 52 52 50 50 48 48 47 46 45 44 44 44 44 44 45 44 46 47 47 47 46 45 47
64 65 64 64 62 63 64 60 57 58 54 55 55 56 57 56 56 55 52 51 50 50 49 48 47 46 44 44 42 40 37 41 43 44 43 44 41 44 45 47 46 46 45
64 65 65 65 63 64 62 59 56 55 54 53 52 53 54 55 55 52 51 49 48 47 46 45 45 45 43 42 42 41 35 33 35 40 41 40 41 41 41 42 45 45 44
64 67 66 66 64 64 63 61 60 59 56 52 51 51 52 53 52 52 50 48 47 46 45 44 46 42 42 40 40 45 40 40 34 31 37 38 40 42 40 39 41 42 43
64 63 65 64 61 63 62 63 59 52 52 50 49 49 49 49 50 51 49 48 46 45 44 43 43 42 42 40 39 39 38 36 35 32 29 33 36 38 39 39 38 39 42
63 63 62 66 64 64 60 56 57 53 51 49 47 47 47 47 47 48 49 47 45 44 44 43 42 42 40 40 39 39 38 36 35 33 30 30 31 35 38 38 37 38 39

GFSSE_sfc_temp_021.txt.gz
Temp
70 72 73 74 74 74 73 73 74 74 74 75 75 75 75 75 75 75 75 75 76 76 77 77 76 76 76 75 74 73 73 73 74 74 75 75 75 75 74 74 73 73 74
73 72 73 74 74 74 74 74 74 74 75 75 75 75 74 74 74 75 75 75 76 77 77 77 76 76 76 74 74 73 73 72 73 73 73 75 75 75 74 73 73 73 74
73 72 73 73 74 74 74 74 74 75 75 75 75 74 74 75 74 74 74 75 76 77 77 77 77 76 75 74 73 73 73 72 72 72 72 66 69 74 74 73 73 74 73
73 72 72 73 73 74 74 74 74 75 75 74 74 74 74 74 74 74 74 74 75 76 77 77 76 75 74 72 72 73 72 71 70 70 66 67 72 74 74 73 73 73 73
72 72 72 72 73 73 73 74 74 74 74 74 74 75 74 75 75 74 74 74 75 76 76 76 76 74 72 71 71 71 71 70 69 68 64 65 67 74 74 73 72 72 72
70 71 70 72 72 73 73 73 73 73 72 73 73 74 75 75 74 74 74 74 75 75 75 75 74 73 71 71 70 70 70 69 66 61 63 66 67 75 74 73 72 72 71
67 68 70 70 72 72 73 73 72 72 72 72 73 73 74 74 74 73 73 73 74 74 74 74 73 72 71 71 70 70 68 67 62 61 61 63 66 74 74 72 72 71 72
65 65 69 70 70 71 71 71 71 71 71 72 72 72 73 72 72 72 72 72 72 72 72 72 72 72 71 71 70 68 68 68 64 61 62 62 71 74 73 72 71 70 70
63 63 63 65 66 67 68 69 69 70 70 71 71 71 71 70 71 71 72 72 72 72 71 71 71 71 71 70 68 67 67 67 60 61 66 62 72 73 72 71 70 70 70
62 63 62 63 64 65 66 69 69 69 69 70 70 69 69 70 70 71 71 71 72 71 71 71 70 69 69 69 67 66 66 65 59 59 60 63 72 72 72 70 70 69 69
60 61 61 62 63 65 65 68 69 70 69 69 69 69 66 65 66 67 69 70 70 69 70 70 69 68 67 67 67 66 65 59 59 58 58 68 72 72 71 70 69 68 68
59 61 61 62 63 64 69 66 65 67 66 66 66 66 65 64 64 67 67 68 69 68 68 68 67 66 64 60 60 63 57 57 57 57 57 68 72 73 71 69 68 68 67
62 62 62 64 65 64 66 63 63 63 63 64 65 64 64 64 63 62 61 61 61 65 63 63 62 61 60 59 58 57 57 56 53 55 59 66 69 72 71 69 68 67 67
59 62 63 63 63 64 64 62 63 63 63 63 64 65 62 60 60 60 58 58 59 58 58 58 57 58 57 58 58 57 56 54 53 54 56 64 66 69 71 69 68 66 66
61 62 63 63 63 63 63 61 62 63 64 64 63 63 61 59 58 58 57 57 57 57 57 56 56 56 56 56 56 56 55 54 53 52 51 60 63 67 70 68 67 66 66
63 63 63 62 64 63 63 63 62 63 62 62 62 61 62 59 57 56 56 56 56 55 55 54 54 54 53 54 54 54 53 52 52 52 51 51 60 63 66 67 66 66 66
63 64 62 62 63 63 63 62 61 62 61 61 60 61 60 58 57 56 55 54 54 54 54 53 53 53 52 54 52 52 51 51 51 51 50 51 52 58 61 63 65 65 64
64 62 63 68 63 61 61 59 59 59 59 58 58 58 59 59 57 55 54 53 53 53 53 52 51 51 50 50 48 47 48 49 50 49 49 49 48 51 56 60 62 62 62
64 63 63 63 60 60 59 59 59 58 57 56 56 57 57 57 57 54 53 53 53 52 51 53 49 49 47 47 50 46 45 45 46 50 48 48 48 47 47 54 57 58 60
63 62 62 61 60 59 59 57 55 55 55 55 55 56 57 56 56 54 53 52 52 51 50 49 48 47 46 45 52 47 43 43 44 43 44 48 46 46 46 47 45 47 56
59 62 61 60 59 60 58 55 54 53 53 54 54 56 55 55 55 53 51 51 50 49 48 48 46 46 44 43 43 43 41 42 42 42 42 42 44 45 45 44 44 43 45
61 63 61 62 59 60 61 57 56 54 52 52 53 53 54 54 53 53 50 48 48 48 47 46 45 44 42 41 41 38 37 40 41 41 40 42 40 41 43 44 44 44 42
61 62 62 62 61 61 59 56 53 53 52 51 50 50 52 53 52 50 49 47 47 46 44 43 44 44 41 40 40 40 34 32 34 38 39 39 39 40 40 41 43 43 42
62 65 65 64 62 61 59 58 58 55 53 50 50 49 49 50 50 49 48 47 45 45 44 44 45 41 41 39 40 43 39 37 33 31 36 37 38 41 38 38 39 40 41
63 63 64 63 62 62 60 60 55 51 50 48 48 48 47 47 48 48 47 46 45 45 45 45 43 42 42 40 38 37 36 35 34 31 29 33 35 37 38 38 37 37 40
61 61 61 60 61 60 60 61 57 52 49 48 46 45 45 45 45 47 47 45 45 45 47 46 42 41 40 39 38 38 37 35 34 31 29 29 30 34 38 38 37 38 37

GFSSE_sfc_temp_027.txt.gz
Temp
75 79 73 74 74 74 74 74 74 74 74 75 75 75 75 75 75 75 75 76 76 77 78 77 77 77 77 76 75 75 74 73 74 74 75 75 75 75 74 74 76 79 74
76 79 73 74 74 74 74 74 74 74 75 75 75 75 75 75 75 75 76 76 76 77 77 77 77 77 76 75 74 73 73 72 72 73 74 75 75 75 74 73 74 77 74
74 79 78 73 74 74 74 74 74 75 75 75 75 75 75 75 75 75 75 76 76 77 77 77 77 77 75 74 73 73 73 72 72 72 74 81 79 74 74 73 73 74 74
76 79 79 73 73 74 74 74 74 75 75 75 75 75 75 75 75 75 75 75 76 77 77 77 77 76 74 72 72 72 71 71 70 73 80 80 80 74 74 73 73 73 73
74 78 78 73 73 74 74 74 74 74 74 74 74 75 75 75 75 75 75 75 76 77 77 77 75 74 72 71 71 71 70 70 70 76 80 79 79 75 73 73 73 72 72
73 76 73 72 72 73 74 73 73 73 73 73 74 74 75 75 75 74 74 75 76 76 76 76 74 73 71 70 70 70 69 69 73 80 79 76 77 74 73 72 72 71 71
70 74 72 71 71 72 73 73 73 72 72 73 73 74 74 74 74 73 73 74 74 75 75 74 73 72 71 70 70 69 68 68 78 78 78 77 76 73 73 72 71 71 71
66 67 69 70 69 70 71 71 71 71 72 72 73 73 73 73 72 72 72 72 72 72 72 72 71 71 71 70 69 68 67 69 77 77 77 78 73 73 72 71 71 71 70
65 64 64 65 66 67 68 69 69 70 71 71 71 72 71 71 71 72 72 72 72 71 71 71 71 70 70 69 68 66 66 66 76 76 76 78 72 72 72 71 70 70 70
63 63 62 62 63 64 66 69 69 69 69 70 70 70 69 70 71 71 71 71 71 71 70 71 69 69 68 67 66 65 65 67 74 75 76 75 72 72 71 71 70 70 69
61 61 60 62 63 64 67 70 70 70 69 69 70 69 68 75 75 75 70 70 69 68 69 68 68 66 66 66 65 65 67 73 74 74 76 68 72 71 71 70 69 69 68
59 60 63 61 60 62 66 67 69 70 70 71 73 73 73 73 73 74 71 68 67 67 67 67 66 65 69 72 72 68 71 71 72 72 74 67 71 72 70 69 68 68 67
60 60 61 60 60 60 60 64 65 70 68 69 68 71 72 72 71 71 70 68 69 67 71 70 70 71 69 70 69 68 69 70 71 72 69 65 68 72 70 68 68 67 67
62 61 61 61 60 62 62 65 67 68 70 71 72 71 70 70 67 67 69 69 67 69 68 68 68 67 66 66 67 66 66 69 71 71 68 64 66 70 71 68 67 67 66
60 61 63 65 65 67 67 69 69 70 72 72 72 71 70 69 67 68 67 68 68 68 69 68 68 68 66 66 66 65 65 65 66 69 69 62 64 68 69 68 68 67 66
63 63 65 66 68 69 69 68 69 71 71 70 70 68 68 68 66 67 67 68 67 69 68 68 68 67 66 66 64 64 63 64 65 65 68 66 61 64 66 67 67 67 65
67 67 66 66 68 68 68 69 69 70 71 70 69 67 67 67 66 66 67 66 66 66 65 65 66 66 65 64 62 62 63 62 63 63 65 66 65 59 62 63 64 64 64
67 67 67 69 68 68 68 69 69 71 70 70 69 69 68 68 66 66 67 65 66 66 67 67 66 64 63 63 61 62 62 62 61 61 62 63 64 65 61 59 60 61 62
68 67 67 68 68 67 68 69 69 68 69 69 68 69 67 67 66 67 67 64 65 65 65 65 63 64 62 61 61 60 60 61 60 62 60 60 60 62 64 56 56 57 58
69 69 69 69 68 67 68 67 65 67 67 65 66 69 67 67 66 66 64 63 65 64 63 63 62 61 62 62 61 58 58 59 60 60 59 61 60 59 61 60 62 60 55
68 68 69 67 67 67 66 65 64 65 64 64 66 66 65 66 65 64 64 62 63 64 62 61 60 59 58 59 58 57 56 56 56 58 59 60 58 59 58 60 62 62 61
69 68 69 69 68 67 69 68 67 66 64 63 64 64 65 64 64 63 62 62 62 61 59 59 59 58 58 57 58 57 53 54 55 56 56 56 55 58 58 57 57 57 58
67 67 68 69 68 68 68 65 62 60 62 62 63 63 63 62 63 62 60 61 60 60 59 58 58 57 55 54 55 58 52 52 53 54 53 55 54 56 57 57 55 55 56
67 68 69 68 67 67 65 66 64 64 63 65 63 62 62 60 60 61 60 59 58 58 57 57 58 57 56 54 54 55 55 55 51 49 53 54 54 54 54 56 56 55 54
69 67 68 68 67 67 66 66 66 63 63 62 58 55 56 58 59 59 59 58 57 58 57 55 53 55 55 50 55 54 53 53 51 49 46 50 54 55 55 54 54 54 53
68 68 66 67 67 67 65 64 64 61 59 59 58 57 57 57 57 57 58 57 57 57 53 49 51 51 51 55 56 54 53 52 51 49 47 47 47 51 53 53 53 53 52

GFSSE_sfc_temp_030.txt.gz
Temp
83 84 73 74 75 74 74 74 74 74 75 75 75 76 76 76 76 76 76 76 77 77 78 78 77 77 77 76 75 74 74 74 74 75 75 75 76 75 75 74 77 81 74
85 85 73 74 74 74 74 74 74 74 75 75 75 75 75 75 75 76 76 76 77 77 78 78 77 77 76 75 74 74 73 73 72 74 75 76 75 75 74 74 74 78 74
83 85 81 73 74 74 74 74 74 75 75 75 75 75 75 75 76 76 76 76 77 78 78 78 77 76 75 74 73 73 72 72 72 74 77 86 81 75 74 74 74 74 73
82 85 83 72 73 74 74 74 74 75 75 75 75 75 75 75 75 75 75 75 76 77 78 78 77 76 74 72 72 72 72 72 73 76 86 86 83 74 74 73 73 74 74
80 81 82 72 73 73 74 74 74 74 74 74 75 75 75 76 76 75 75 76 76 77 77 77 76 74 72 71 71 71 71 71 73 81 85 84 83 76 73 73 75 73 72
78 80 73 72 72 73 74 74 74 74 73 74 74 75 75 76 76 75 75 76 76 77 76 76 74 72 71 70 70 70 70 72 76 86 85 80 80 74 73 72 72 71 71
74 75 74 71 72 73 73 73 73 73 73 73 74 74 74 75 74 74 74 74 75 75 75 74 73 71 70 70 70 69 70 72 85 85 84 81 77 73 73 72 71 71 71
71 73 71 72 72 72 72 72 71 72 72 73 73 74 74 73 72 72 72 72 73 72 72 72 71 71 70 70 69 68 68 70 83 83 83 80 73 73 72 71 71 70 70
68 67 66 65 67 68 68 69 70 70 71 72 72 72 71 71 71 72 72 72 72 72 71 71 70 70 70 68 68 67 67 70 82 82 83 81 72 72 72 71 70 70 69
63 64 64 64 65 66 69 68 69 69 70 70 70 70 70 70 71 71 71 71 71 71 70 70 69 69 68 67 67 66 68 71 82 82 82 78 72 72 71 71 70 69 69
60 61 61 61 63 66 68 71 70 70 69 69 70 69 70 79 81 79 71 70 69 68 68 68 68 67 66 66 66 68 71 81 81 82 81 68 72 71 71 70 69 69 68
58 58 60 61 61 63 66 70 73 73 77 74 74 76 78 77 81 80 73 68 67 67 67 67 67 68 73 81 78 73 80 79 80 80 77 67 71 70 70 69 68 68 68
59 59 60 60 60 62 61 64 72 74 72 74 74 76 76 75 78 80 78 78 76 72 78 76 77 80 76 79 77 77 77 78 80 80 71 66 69 72 69 69 68 68 67
59 60 61 62 62 62 63 62 70 73 75 73 74 75 76 78 77 77 79 79 76 77 74 74 76 74 74 74 74 74 74 77 78 79 70 64 67 71 69 68 68 67 67
59 59 62 64 62 63 68 74 76 74 75 77 78 79 80 78 76 78 76 78 78 78 77 76 76 76 74 74 74 73 73 73 73 76 76 62 64 68 69 68 67 67 66
64 62 63 67 70 73 75 75 76 78 79 79 79 78 78 78 76 76 76 77 76 79 78 78 77 76 76 75 72 72 71 72 72 72 76 70 61 64 66 67 67 66 66
67 66 67 70 73 73 75 75 76 78 78 78 78 76 77 76 74 76 78 76 76 77 75 75 74 74 75 75 70 71 73 72 72 71 74 74 69 60 61 63 63 63 64
72 71 71 74 73 73 73 76 77 78 78 80 78 77 76 77 76 76 76 76 76 75 76 75 75 74 74 75 72 74 74 73 70 70 72 73 74 74 61 59 60 61 61
75 73 73 73 73 72 73 74 76 77 79 79 78 78 76 77 76 76 77 74 74 74 74 74 73 74 71 73 73 71 70 70 68 71 68 68 68 71 72 56 57 57 58
76 76 75 75 74 74 77 77 79 78 78 77 78 79 76 78 75 75 75 72 74 74 72 73 70 72 73 72 71 68 68 68 69 68 67 69 68 67 67 65 67 64 56
77 76 76 75 75 76 77 75 75 74 76 76 77 77 75 76 74 74 74 72 73 73 72 70 70 66 68 69 67 65 65 64 63 66 67 67 65 65 65 66 65 66 65
76 76 76 77 77 77 79 78 78 77 77 76 75 74 75 74 75 73 72 72 72 71 68 68 67 67 69 67 65 65 62 63 63 63 65 63 62 64 64 62 61 61 62
75 76 77 78 78 77 78 79 77 76 74 72 70 70 73 73 74 73 71 72 70 70 68 67 67 65 64 65 63 59 60 59 63 64 60 62 60 61 63 62 61 60 60
77 78 78 79 79 78 78 78 73 74 72 71 68 72 74 71 72 73 72 70 68 69 68 67 67 65 64 59 61 64 63 62 58 57 60 60 60 59 60 60 61 60 59
79 77 78 79 79 79 77 76 75 74 76 77 71 72 70 68 67 71 70 68 67 68 66 65 62 61 63 63 61 63 61 61 59 56 54 59 61 61 61 61 60 59 60
81 79 77 77 78 78 77 75 75 74 74 71 70 67 65 61 61 65 67 66 66 66 63 61 56 57 62 61 64 62 61 58 58 56 54 55 56 58 61 59 59 59 59

GFSSE_sfc_temp_033.txt.gz
Temp
87 84 74 75 75 75 74 74 74 74 75 75 75 76 76 76 76 76 76 76 77 77 78 78 77 77 76 76 75 74 74 74 74 75 75 75 75 75 74 74 76 79 74
88 85 73 74 75 75 74 74 74 74 75 75 75 75 75 76 76 76 76 76 77 78 78 77 77 77 76 75 74 74 74 73 74 74 75 76 75 75 74 73 73 76 74
84 85 79 74 74 74 74 74 74 75 75 75 75 75 75 76 76 76 76 76 77 78 78 77 77 76 75 74 73 73 73 73 74 75 79 83 79 74 74 73 73 73 73
82 83 80 73 74 74 74 74 74 75 75 75 75 75 75 75 75 75 75 76 77 77 77 77 76 75 74 72 72 72 73 73 74 77 86 85 81 74 74 74 73 73 74
80 85 77 72 73 73 74 74 74 74 74 74 75 75 76 76 76 75 75 76 77 77 77 77 75 74 72 71 71 72 72 72 75 82 83 81 80 75 74 72 74 72 72
73 78 72 71 72 73 74 74 74 74 73 74 74 75 76 76 76 75 75 76 77 77 76 75 74 72 71 70 71 71 72 73 73 86 83 78 77 74 73 72 71 71 70
71 77 73 71 72 73 73 73 73 73 73 73 74 74 75 75 74 74 74 74 75 75 75 74 72 71 70 70 70 70 70 71 86 85 81 78 75 73 73 72 71 71 70
73 72 71 72 72 72 72 72 72 72 72 73 73 74 74 73 73 73 73 72 73 73 72 72 71 70 70 70 69 69 70 71 84 84 81 77 72 72 72 71 70 70 70
67 67 68 69 70 69 69 69 70 71 72 72 72 72 71 71 72 72 72 72 72 71 71 71 70 70 70 69 68 69 69 71 83 83 83 78 72 72 72 71 70 70 69
65 65 64 65 67 70 70 68 69 70 70 70 70 70 70 70 71 71 71 71 71 70 70 70 69 69 68 68 68 68 69 72 83 83 79 75 72 72 71 71 70 69 69
62 62 63 63 64 66 69 70 70 70 69 69 70 69 71 76 77 75 71 70 69 68 68 68 68 67 67 67 68 69 70 81 82 82 77 68 71 71 71 70 69 69 68
58 59 62 62 61 62 65 65 67 72 73 76 77 77 80 75 77 76 70 68 68 67 67 68 68 67 70 81 79 74 80 79 80 79 74 67 71 70 70 69 69 68 68
59 59 59 60 59 59 60 60 63 65 68 74 75 77 77 75 73 74 73 73 74 72 77 75 75 81 79 80 77 76 78 79 80 78 69 66 70 71 69 69 68 68 67
59 59 59 62 61 61 61 62 63 65 70 76 76 77 73 75 74 75 77 78 76 79 78 79 77 75 75 75 75 74 75 77 79 78 68 64 68 70 69 69 68 67 67
57 58 60 59 59 61 63 66 69 74 76 76 74 76 77 77 77 79 80 80 79 79 78 77 76 77 76 76 76 75 74 74 75 78 71 63 65 69 69 68 68 67 66
58 57 57 59 62 64 67 66 68 75 76 77 77 78 79 79 77 78 76 78 79 80 80 79 78 77 78 76 74 74 73 75 74 74 76 67 62 64 67 67 67 67 66
61 63 62 62 65 68 70 69 70 74 78 78 80 79 79 80 77 77 79 78 79 80 79 77 77 77 77 77 73 73 74 73 73 73 75 73 67 60 62 63 64 64 64
63 65 68 73 72 70 72 74 77 77 79 81 81 77 78 79 78 77 79 78 79 77 77 77 76 75 75 75 74 74 74 73 71 71 73 73 74 70 61 60 61 61 61
69 70 69 70 72 73 76 76 78 78 77 80 78 75 77 79 79 78 79 78 77 77 76 76 75 75 72 73 73 73 72 72 71 74 70 69 69 70 70 59 59 59 59
73 73 73 73 73 73 74 76 79 79 79 81 78 79 79 80 78 77 79 76 75 76 75 75 73 73 73 73 74 71 70 70 70 69 68 70 69 67 67 67 65 62 58
76 75 75 75 75 76 74 76 77 76 78 78 77 78 79 79 78 76 78 74 74 75 74 73 72 69 69 70 68 69 69 67 66 68 68 68 68 67 66 65 65 66 62
76 77 77 77 77 78 79 80 79 79 80 80 76 78 79 78 78 76 76 74 73 75 72 70 70 69 70 69 67 66 62 63 65 65 67 66 64 65 65 64 63 62 62
77 77 79 79 79 79 81 82 81 81 80 79 77 75 76 76 77 77 75 74 73 74 70 69 68 68 67 67 67 63 60 60 64 66 63 64 63 63 63 64 63 62 61
78 79 80 81 81 81 81 81 78 77 76 78 77 77 75 74 74 77 76 74 73 73 71 69 70 68 66 65 67 66 65 63 58 58 64 62 62 61 61 62 62 62 62
80 79 79 81 82 82 81 79 79 76 78 79 78 74 72 75 74 75 75 72 71 70 70 68 67 65 64 59 59 57 63 63 61 57 54 60 62 63 63 62 62 61 61
83 81 80 80 82 82 81 79 78 76 76 78 76 73 73 72 71 71 72 68 66 63 66 67 65 60 56 59 56 60 62 60 60 59 56 57 58 62 64 63 60 60 61

GFSSE_sfc_temp_036.txt.gz
Temp
79 78 74 75 75 74 74 74 74 74 75 75 75 75 76 76 76 76 76 76 77 77 78 77 77 77 76 76 75 75 74 74 74 74 74 75 75 75 74 74 74 74 74
79 80 74 74 74 74 74 74 74 74 75 75 75 75 75 75 75 76 76 76 77 77 77 77 77 76 76 75 74 74 73 73 73 74 75 75 75 75 74 73 73 73 73
77 78 77 74 74 74 74 74 74 75 75 75 75 75 75 75 75 75 76 76 76 77 77 77 76 76 75 74 73 73 73 73 73 74 76 73 72 74 74 73 73 73 73
80 79 77 73 73 74 74 74 74 75 75 75 75 75 75 75 75 75 75 75 76 77 77 77 76 75 74 72 72 72 73 73 73 76 77 75 75 73 74 73 73 73 73
79 78 75 73 73 73 73 74 74 74 74 74 75 75 75 75 76 75 75 75 76 77 77 76 75 73 72 71 71 72 72 73 73 76 72 72 71 74 73 72 72 71 71
71 76 71 72 72 73 73 74 73 73 73 73 74 75 75 75 75 75 75 76 76 76 76 75 73 72 71 71 71 71 71 72 75 74 71 72 71 73 73 72 71 71 70
66 72 71 71 72 73 73 73 73 73 73 73 74 74 74 75 74 74 74 75 75 75 74 73 72 71 70 70 70 71 71 71 76 73 70 68 69 72 72 71 71 70 70
65 70 70 72 72 72 72 72 71 72 72 72 73 73 73 73 72 73 73 73 73 72 72 71 70 70 70 70 70 70 70 71 77 72 70 68 71 72 72 71 70 69 69
65 66 67 69 70 70 69 70 70 71 71 71 71 71 71 71 71 72 72 72 71 71 71 70 70 69 69 69 70 69 69 70 71 72 73 68 72 72 71 71 70 69 69
66 65 65 67 68 69 70 69 69 70 70 70 70 70 70 70 71 71 71 71 71 70 70 70 69 69 68 69 69 69 69 68 71 70 68 67 71 72 71 70 70 69 69
63 63 64 65 67 68 68 70 70 70 69 69 70 69 70 71 71 72 69 69 69 68 68 68 68 68 68 68 69 69 70 69 71 68 66 69 71 71 71 70 69 69 68
60 61 62 61 61 64 67 68 68 70 71 71 70 70 71 69 69 70 68 68 67 67 68 68 68 67 68 66 66 68 67 69 69 65 62 67 70 71 70 69 68 68 68
58 60 59 59 60 60 60 60 61 63 66 69 70 71 70 69 68 67 66 66 64 67 67 66 66 66 68 67 66 65 67 68 66 65 63 66 70 70 70 69 68 68 67
57 57 58 59 59 58 59 59 61 62 63 67 70 70 69 68 68 67 67 67 66 66 65 65 65 66 67 68 67 66 65 64 64 63 61 65 67 70 70 69 68 67 67
56 58 58 60 59 59 59 60 61 61 62 68 70 71 71 68 67 68 68 69 68 68 68 67 66 66 66 67 66 66 66 65 65 64 59 64 65 68 69 69 68 67 66
55 55 57 58 59 60 59 61 61 62 63 68 69 70 70 70 69 69 69 69 69 69 69 67 66 66 65 65 65 65 65 64 65 63 61 58 63 65 67 67 67 67 66
56 57 56 57 58 59 59 61 61 64 71 70 70 70 71 71 69 69 68 68 68 69 69 66 67 65 64 66 64 64 64 64 63 64 61 60 58 61 63 64 64 64 64
59 58 59 62 59 60 62 65 64 68 70 70 70 70 71 72 71 69 68 68 69 67 67 65 64 63 63 63 61 61 62 63 63 63 63 61 60 59 60 61 62 62 62
64 62 62 62 62 65 66 67 67 68 69 71 70 71 71 73 72 69 70 68 68 67 65 66 64 63 61 61 62 60 60 60 61 66 61 61 59 58 56 59 60 60 60
67 66 67 67 67 67 68 68 69 70 69 69 69 71 70 72 71 69 70 68 67 65 64 64 63 62 61 60 69 64 59 59 59 58 59 62 59 59 58 55 52 54 59
66 66 67 67 67 69 67 66 68 67 70 70 68 72 70 72 71 69 68 66 65 64 64 63 61 60 58 59 57 57 57 58 57 57 57 57 58 58 57 56 54 52 53
66 67 68 68 69 70 70 70 71 70 71 72 70 70 67 68 71 69 67 66 65 64 63 61 60 57 58 58 54 54 50 52 54 56 55 57 54 56 57 57 55 55 52
68 68 71 71 70 70 71 72 74 72 72 72 70 69 70 71 72 70 67 66 64 63 61 60 59 58 55 55 57 52 48 48 51 53 53 53 52 52 53 55 55 55 54
71 72 73 73 73 74 74 73 72 71 69 71 70 70 71 70 69 69 68 66 65 64 62 59 61 58 56 53 55 59 56 55 49 46 50 51 53 54 51 51 52 54 54
74 73 73 75 75 75 75 73 72 70 71 72 70 69 68 67 68 66 67 65 64 63 61 61 60 58 57 53 51 50 52 53 52 48 45 50 50 51 51 51 50 50 54
75 74 74 74 76 76 75 73 71 67 69 69 68 68 67 66 67 65 66 63 58 56 54 53 54 56 54 53 51 51 50 50 50 47 46 46 47 50 52 50 49 49 50

GFSSE_sfc_temp_039.txt.gz
Temp
69 75 74 74 75 74 74 74 74 74 75 75 76 76 76 76 76 76 76 76 76 77 77 77 77 77 77 76 76 75 74 74 74 74 74 75 75 74 74 73 73 73 74
66 74 73 74 74 74 74 74 74 75 75 75 75 75 75 76 76 76 76 76 76 77 77 77 77 77 76 75 74 74 74 74 73 73 74 75 75 74 74 73 73 73 74
68 67 74 74 74 74 74 74 75 75 75 75 75 75 75 76 76 75 76 76 76 77 77 77 77 76 76 74 73 73 73 73 73 73 73 70 71 74 74 73 73 73 73
70 67 74 73 74 74 74 74 74 75 75 75 75 75 75 75 75 75 75 75 76 77 77 77 77 75 74 72 72 72 72 73 72 72 70 70 73 74 74 73 72 72 73
72 75 74 73 73 74 74 74 74 74 74 74 75 75 75 76 76 75 75 75 76 77 77 77 75 73 72 71 71 72 72 72 71 71 67 66 69 73 73 71 71 71 71
69 71 71 72 73 73 74 74 73 73 73 73 74 75 76 76 76 75 75 75 76 76 76 75 74 72 71 71 71 72 72 71 70 67 65 69 69 72 72 71 70 70 70
67 70 69 70 72 73 73 73 73 72 72 73 74 74 75 75 75 74 74 74 74 74 74 73 72 71 71 71 71 71 71 70 68 66 63 64 68 72 72 71 70 70 69
66 68 68 70 72 72 71 71 72 72 72 72 73 73 74 74 73 73 73 73 72 72 71 71 70 70 70 71 70 69 69 70 69 66 64 63 70 71 71 70 69 69 69
66 68 66 68 70 70 69 69 70 71 71 71 71 71 71 71 72 72 72 72 71 71 70 70 70 70 70 70 69 68 68 69 67 67 68 63 71 72 71 70 70 69 68
65 65 65 66 67 68 69 68 69 70 70 70 70 70 69 70 70 71 71 71 70 70 70 70 69 70 70 70 70 68 68 68 65 63 63 66 71 72 71 70 69 69 68
63 64 65 65 65 67 68 68 70 70 70 70 70 69 67 67 68 69 69 69 69 68 69 69 69 69 69 69 69 69 67 64 62 61 60 69 71 71 70 70 69 68 68
61 62 63 63 64 65 66 65 66 68 68 69 70 68 68 65 67 68 68 68 68 68 68 68 68 68 67 63 63 65 62 61 61 60 61 68 70 71 70 69 68 68 67
59 58 60 60 61 61 62 64 63 64 63 67 67 69 67 66 65 64 63 64 64 66 66 66 65 64 64 62 62 61 61 60 58 59 64 67 70 70 70 69 68 68 67
56 56 58 58 59 60 61 60 61 62 63 64 66 68 67 65 64 64 63 62 62 63 63 63 61 62 62 64 64 63 61 59 57 57 60 66 68 70 70 69 68 68 67
55 56 57 58 58 59 61 60 60 61 62 63 67 66 67 65 64 65 64 63 63 64 63 62 63 64 63 63 63 62 62 59 58 57 55 64 67 69 69 69 69 67 67
57 56 58 58 59 59 59 60 60 61 63 63 63 66 67 66 64 64 63 64 64 64 64 63 63 62 61 61 61 61 61 60 58 57 56 58 64 66 67 68 68 67 66
56 57 57 58 59 59 60 61 60 61 64 63 64 66 67 66 65 64 62 64 64 65 65 63 62 61 59 61 61 61 61 60 59 58 56 56 57 62 64 66 66 66 65
56 57 58 61 59 60 60 61 61 60 63 65 67 65 66 67 67 65 65 64 65 64 63 62 60 60 59 58 57 57 58 59 60 58 57 56 55 57 60 63 63 63 63
56 57 58 59 59 60 61 62 63 63 65 68 68 64 66 68 67 65 65 64 64 63 62 62 60 59 57 56 57 56 56 56 58 62 57 55 54 53 53 60 61 61 62
57 58 59 59 60 61 63 63 64 61 64 67 64 64 68 67 67 65 65 65 64 62 61 60 59 58 57 57 65 59 55 55 54 53 56 58 54 54 52 53 52 53 59
58 58 58 58 59 61 61 60 59 60 62 62 62 67 65 67 66 63 63 62 65 61 60 59 58 57 55 54 53 52 52 53 53 53 53 53 54 54 52 51 49 49 52
59 60 60 61 61 63 64 65 63 62 61 63 63 64 65 65 65 64 62 61 61 60 59 58 57 54 54 53 51 49 47 49 50 53 51 53 51 53 54 54 52 50 49
60 61 63 64 65 66 66 67 64 61 61 61 60 63 65 64 66 64 62 61 60 59 58 56 55 56 52 51 52 50 46 44 46 49 53 50 50 49 51 52 52 52 50
61 63 64 65 65 67 67 66 64 64 64 65 61 63 63 64 63 65 63 63 62 60 58 57 59 57 55 52 53 56 53 52 46 43 51 51 49 50 49 49 49 51 50
64 64 65 66 66 68 67 67 65 65 65 66 63 64 65 63 65 64 61 60 60 59 59 59 57 55 53 51 51 51 51 51 51 47 44 48 46 48 49 48 48 47 50
65 66 66 67 67 67 67 67 67 64 63 63 62 63 63 64 63 62 63 61 59 55 54 54 54 53 52 52 51 50 50 49 48 46 44 43 45 48 48 46 46 46 47

GFSSE_sfc_temp_042.txt.gz
Temp
71 73 74 74 74 74 74 74 74 74 75 75 75 76 76 76 76 75 75 76 76 77 78 77 77 77 76 76 75 74 74 73 73 74 74 74 74 74 73 73 73 73 74
69 74 72 73 74 74 74 74 74 75 75 75 75 75 75 75 75 75 75 76 76 77 77 77 76 76 76 75 74 73 73 72 72 73 73 75 75 74 73 73 73 73 73
67 72 71 71 74 74 75 75 75 75 75 75 75 75 75 75 75 75 75 75 76 77 77 77 76 75 75 74 73 73 73 72 72 72 72 69 72 74 74 73 73 73 72
68 70 71 70 73 74 74 74 74 75 75 75 75 75 75 75 75 75 75 75 76 77 77 77 76 75 74 72 72 72 73 71 71 70 68 69 72 73 73 73 72 72 72
68 69 71 71 71 73 74 74 74 74 74 74 75 75 75 75 75 75 74 75 76 77 77 76 75 73 72 71 72 71 71 70 70 68 63 65 72 73 72 71 71 71 70
69 70 71 71 71 72 72 73 73 73 73 73 74 75 75 75 75 75 74 75 76 76 75 75 74 72 71 72 71 70 69 69 67 62 62 69 67 72 71 71 70 70 70
66 69 71 69 70 71 71 73 73 72 73 73 74 74 74 75 74 74 74 74 74 74 74 73 72 71 71 71 70 69 69 68 64 60 60 62 67 71 71 70 70 69 69
65 67 69 70 69 71 71 72 71 71 72 73 73 73 74 73 73 73 73 72 72 71 71 71 71 71 71 70 70 68 68 68 66 62 62 63 70 71 71 70 69 69 68
66 66 66 66 69 68 69 70 70 71 71 71 72 72 72 72 71 72 71 71 71 71 71 71 71 71 71 70 69 68 67 67 62 63 66 62 71 71 71 70 69 68 68
64 64 64 65 66 64 65 69 69 69 69 69 70 70 70 70 71 70 70 71 70 70 70 71 70 70 69 69 68 67 66 65 60 60 61 65 71 71 71 70 69 68 68
64 64 64 64 64 64 66 69 69 70 69 69 69 68 68 68 68 68 69 69 69 69 69 69 69 68 67 67 68 67 65 60 59 59 60 69 71 71 70 69 68 68 68
61 62 63 62 62 64 66 67 67 69 68 68 67 65 66 64 67 68 68 68 68 68 68 68 68 67 65 60 61 64 58 59 59 59 60 68 71 70 70 69 68 68 67
60 61 62 62 63 63 63 64 64 66 64 65 66 67 66 66 65 63 64 63 63 66 64 65 64 62 63 61 60 57 59 58 57 58 64 68 70 70 69 69 68 68 67
58 59 61 62 62 62 64 64 64 65 63 64 62 65 65 63 61 60 63 61 61 60 61 61 61 62 62 62 61 59 58 56 55 56 61 66 68 70 69 69 68 68 66
55 57 58 60 60 61 63 60 62 62 63 64 66 66 65 64 61 60 61 61 60 60 60 60 60 62 62 62 61 60 58 57 57 57 56 65 67 69 69 69 68 67 67
56 56 57 58 60 60 60 62 61 61 63 64 63 66 65 63 61 61 60 60 60 60 60 61 61 60 60 60 60 60 58 57 57 56 56 58 64 66 68 69 68 68 67
57 57 57 57 59 60 61 62 60 61 64 64 64 63 63 63 61 61 60 59 60 61 61 61 60 59 58 60 59 59 58 57 56 56 56 55 58 63 65 67 67 67 66
56 57 58 60 59 61 61 64 63 61 62 64 63 63 64 64 63 61 62 61 61 61 61 60 59 57 57 57 56 55 56 57 56 55 55 54 55 57 61 64 65 65 65
58 57 56 58 59 61 61 62 62 61 62 63 63 62 63 64 64 62 62 61 61 60 59 60 57 57 55 54 55 54 53 54 55 58 55 54 53 53 53 61 62 62 63
57 59 59 60 60 60 61 61 60 59 61 63 59 59 62 63 64 62 62 62 61 60 58 58 57 56 55 55 61 57 51 52 52 51 53 55 52 52 52 53 53 54 60
55 56 58 58 58 59 60 59 59 57 56 58 59 61 62 63 64 61 61 60 60 62 61 59 56 55 52 52 51 50 50 50 50 50 50 51 51 52 50 50 49 48 52
54 55 57 58 58 59 60 60 59 60 57 59 60 60 62 63 63 62 61 60 61 59 58 56 56 52 52 51 50 47 46 48 48 50 49 50 50 54 52 51 49 49 48
54 55 57 58 58 60 61 60 57 57 57 58 61 61 62 63 63 63 61 60 60 60 58 56 55 55 52 49 51 50 43 44 46 47 49 49 51 48 49 50 50 50 50
55 57 58 59 59 60 61 60 60 60 59 62 63 64 61 62 63 63 61 60 59 59 56 56 55 53 54 52 53 56 53 51 47 45 47 51 51 50 47 46 48 49 50
58 58 59 60 61 62 62 62 61 60 62 61 58 61 62 61 63 62 61 59 59 58 56 55 53 53 53 52 51 50 51 51 51 47 44 49 49 49 49 47 47 47 49
60 60 61 61 62 64 64 63 62 60 61 61 59 60 62 62 61 60 61 60 59 58 56 55 54 52 51 51 51 51 51 49 48 47 45 46 46 49 46 45 44 45 45

GFSSE_sfc_temp_045.txt.gz
Temp
70 72 73 74 74 74 74 74 74 75 75 76 76 76 76 76 75 75 75 76 76 77 77 77 76 76 76 75 74 74 74 73 73 74 74 74 74 74 74 73 73 72 73
72 73 73 74 74 74 74 74 74 75 76 76 76 75 75 75 75 75 75 76 76 77 77 76 76 76 75 74 73 73 72 72 72 73 74 74 74 74 74 73 72 72 73
72 73 73 73 73 73 74 75 75 75 76 76 75 75 75 75 75 75 75 75 76 76 76 76 76 75 74 73 72 72 72 72 71 72 73 72 74 74 74 73 73 73 72
71 70 71 72 72 73 72 73 74 75 75 75 75 75 75 75 75 75 75 75 76 76 76 76 75 75 73 72 72 72 71 70 70 69 67 70 72 73 73 72 72 72 72
68 70 70 71 71 72 71 72 74 74 74 75 75 75 75 75 75 75 75 75 76 76 76 76 75 73 72 72 71 70 70 70 68 66 62 70 70 72 72 71 71 71 71
65 68 70 71 71 71 70 70 74 74 74 74 74 75 75 75 75 74 74 75 76 76 75 75 73 72 70 70 70 69 69 68 66 60 61 68 66 72 71 71 70 70 69
66 66 68 69 71 71 70 71 73 72 73 73 74 74 74 74 74 74 74 74 74 74 74 72 72 71 70 70 69 69 68 67 61 58 59 61 67 71 71 70 69 69 69
64 67 69 71 71 69 69 69 72 72 72 72 73 73 74 73 73 73 72 72 72 72 72 71 71 70 70 69 68 68 67 67 64 60 61 63 70 71 71 70 69 68 68
65 67 68 69 68 68 66 66 69 71 72 72 72 72 72 71 71 72 71 72 72 71 71 71 70 70 70 69 68 67 66 66 59 61 64 62 70 71 70 70 69 68 68
64 64 65 65 66 66 65 66 69 70 71 71 71 70 70 70 70 71 70 71 71 71 70 70 69 69 69 68 67 66 65 65 58 59 60 66 70 71 70 69 68 68 67
63 63 63 64 64 61 63 65 70 70 69 69 70 69 67 67 67 65 69 70 70 69 69 69 68 68 68 67 67 66 64 58 58 58 60 69 70 70 70 69 68 68 67
61 60 63 62 61 62 62 63 68 69 70 68 69 66 64 63 64 67 68 68 68 68 68 68 67 66 64 61 64 63 58 58 58 58 59 68 70 70 69 68 68 68 67
61 60 61 63 61 61 62 62 62 62 62 65 66 65 64 64 63 63 61 60 61 65 62 62 61 62 60 58 57 56 57 57 56 58 63 68 70 70 69 68 68 67 66
60 60 60 63 62 61 61 61 63 62 62 63 64 65 63 62 59 59 61 60 61 59 59 58 58 59 59 58 58 57 57 57 55 57 61 67 68 70 69 68 68 67 66
58 59 61 61 60 62 63 61 61 62 63 63 64 64 63 61 59 58 58 59 59 58 58 58 58 59 58 58 58 59 57 56 57 57 57 65 67 69 69 69 69 68 67
57 58 60 61 61 61 60 61 61 62 63 64 59 61 61 62 60 59 57 58 57 58 58 58 58 57 57 58 57 57 57 57 57 57 57 58 64 66 68 69 68 68 67
56 58 59 59 60 59 59 61 60 62 65 65 63 61 61 61 59 59 57 57 59 58 58 57 56 56 56 58 57 56 57 56 56 56 56 56 60 63 65 67 68 67 67
57 56 58 61 60 60 59 62 61 62 63 63 64 63 62 63 62 59 59 58 58 58 58 58 56 54 54 55 54 54 53 55 54 54 54 54 55 57 62 64 65 66 66
58 57 58 59 58 58 61 61 60 61 62 63 62 62 62 62 63 60 60 59 59 58 58 59 55 55 53 52 54 52 52 52 52 56 53 53 53 54 54 62 63 63 64
58 58 58 59 59 59 61 60 59 58 60 61 61 61 62 61 62 60 59 59 60 59 57 57 56 54 53 52 58 54 50 50 50 50 51 54 52 52 52 53 54 55 61
57 58 58 58 58 59 59 60 59 57 59 60 60 62 60 61 61 59 58 58 58 59 59 58 54 54 51 52 51 49 49 49 49 49 49 49 50 51 50 51 49 49 53
54 56 58 59 59 60 62 63 62 57 58 59 60 58 60 61 61 60 59 58 58 58 56 55 55 52 52 50 49 47 46 48 47 51 49 49 48 49 50 50 50 49 48
51 53 56 59 59 61 61 57 57 58 57 56 55 55 58 59 60 60 59 59 58 57 56 55 53 54 50 49 50 52 43 45 49 51 50 50 50 49 52 53 51 49 47
51 53 56 57 58 59 57 56 55 58 57 59 57 57 58 59 60 61 60 59 58 57 55 56 55 53 53 49 52 53 54 51 48 48 47 50 51 52 50 49 50 48 48
53 53 55 56 57 58 58 58 56 55 57 58 56 56 57 57 59 60 60 59 58 57 56 55 53 53 51 50 50 50 50 50 50 48 44 49 49 50 50 50 51 50 48
54 54 55 56 57 58 58 58 57 56 56 57 58 57 58 57 57 58 59 59 58 56 56 56 56 53 53 51 50 50 49 49 47 47 43 43 47 50 51 50 48 48 45

GFSSE_sfc_temp_048.txt.gz
Temp
69 69 73 74 74 74 74 74 74 75 75 76 76 76 76 76 76 75 76 76 76 77 77 77 76 76 76 75 75 74 74 73 73 74 74 75 75 75 73 73 73 73 74
71 72 72 74 74 75 75 74 75 75 75 76 76 76 75 75 75 75 76 76 76 77 77 76 76 75 75 74 73 73 73 73 73 73 74 74 74 74 74 73 72 73 73
70 72 72 73 74 74 75 75 75 75 76 76 75 75 75 75 75 75 75 75 76 76 76 76 75 75 74 73 72 72 72 72 72 73 73 73 72 74 74 73 73 73 73
72 71 71 73 73 74 74 74 75 76 75 75 75 75 75 75 75 75 75 75 75 76 76 76 76 74 73 72 71 71 71 70 70 70 70 71 72 72 73 72 72 72 71
69 69 71 72 72 73 73 74 74 75 75 75 75 75 75 75 75 75 75 75 75 76 76 76 75 73 71 70 70 70 70 69 68 66 70 70 70 71 72 71 71 71 70
66 69 70 71 71 72 73 73 73 74 73 73 74 74 75 75 75 75 74 75 76 76 76 75 73 72 70 69 69 69 69 68 66 62 64 69 69 72 71 70 69 69 69
65 67 68 70 71 72 73 72 72 73 73 73 74 74 74 75 75 74 74 74 74 74 74 73 71 70 70 69 69 68 68 67 62 60 61 63 67 71 71 69 69 68 68
65 65 67 70 71 70 70 70 70 72 72 73 73 73 74 74 73 73 73 73 72 72 72 71 70 70 69 69 68 67 67 67 63 62 62 66 70 71 71 70 69 69 68
65 63 64 67 69 69 68 68 69 71 71 72 72 73 72 72 72 72 72 72 71 71 70 70 70 69 69 68 68 67 66 66 60 62 64 66 70 71 70 69 69 68 68
64 65 64 66 66 65 65 68 68 71 73 71 71 71 70 70 71 71 71 71 71 70 70 70 69 69 69 67 67 66 66 64 59 60 61 68 70 71 70 69 68 68 67
62 63 65 65 63 62 63 65 67 69 71 70 70 69 67 64 65 64 69 70 69 69 69 69 69 68 67 67 66 66 64 59 59 60 61 69 70 70 69 69 68 67 67
60 61 63 64 63 63 64 63 63 65 69 69 68 66 64 63 62 66 68 69 68 68 67 68 67 67 64 62 64 64 59 58 59 59 62 69 70 70 69 69 68 67 67
60 60 61 60 60 61 62 62 62 64 67 67 64 65 62 62 62 59 60 62 62 64 63 64 62 61 58 59 58 57 58 58 58 60 64 68 70 70 69 69 68 67 66
59 60 61 60 59 60 61 62 62 62 63 64 63 64 63 61 60 59 59 58 57 57 58 59 58 56 57 58 58 57 57 57 57 59 63 67 69 69 69 69 68 67 66
58 60 61 61 61 60 60 61 60 61 61 62 63 64 61 61 61 59 58 57 57 58 58 57 58 57 55 56 57 57 57 57 58 58 59 65 67 69 69 69 68 67 66
59 59 60 61 61 60 60 61 61 62 62 61 61 60 62 61 60 59 56 58 57 58 57 58 59 56 55 57 56 57 57 56 57 57 58 61 64 66 68 69 68 68 67
57 60 59 60 62 61 61 61 61 62 62 62 61 60 61 61 60 58 56 57 57 56 58 57 56 55 54 57 56 56 56 56 56 57 57 58 60 63 65 67 68 68 67
57 58 60 61 60 60 60 60 61 62 64 64 61 61 62 61 60 58 58 57 56 56 57 57 56 54 54 54 54 54 54 55 55 55 56 57 58 60 62 65 66 67 67
57 57 58 60 59 58 59 59 60 60 63 62 60 61 61 61 61 60 59 58 58 57 57 58 55 55 54 53 53 52 52 52 53 56 55 55 56 57 57 62 63 64 65
58 58 58 59 59 58 59 59 58 58 60 62 61 62 62 62 62 60 60 58 58 57 56 57 55 54 54 53 57 53 49 50 51 52 53 55 54 54 55 56 58 58 62
57 57 58 57 58 58 57 57 58 57 58 59 60 61 61 62 61 59 59 58 58 57 56 55 54 53 51 51 51 50 50 50 50 50 50 51 53 53 53 53 54 54 57
56 57 57 58 57 58 58 58 60 59 59 60 60 59 60 61 61 60 57 57 56 55 55 53 54 51 52 51 50 48 47 49 48 49 48 50 50 52 52 53 53 53 53
55 57 58 59 59 59 60 60 58 58 58 57 57 58 59 60 60 59 59 57 57 56 54 53 53 53 50 49 50 51 46 47 49 50 48 49 48 48 53 53 53 53 52
55 57 58 59 59 60 62 60 60 61 61 62 59 58 59 60 58 59 58 57 57 55 55 54 54 52 51 49 49 52 52 52 48 47 47 48 49 51 51 51 52 52 52
53 53 53 57 58 60 59 59 57 57 60 58 55 55 55 55 58 58 58 57 56 55 55 54 52 51 50 49 51 50 51 51 51 50 48 47 48 49 51 49 51 51 52
51 51 52 54 55 57 57 56 56 57 56 55 54 55 55 54 54 56 57 57 57 56 55 55 54 52 53 52 53 52 51 50 49 47 47 47 48 49 50 49 49 50 50

GFSSE_sfc_temp_051.txt.gz
Temp
74 78 74 75 74 74 75 75 75 75 76 76 76 76 76 76 76 76 76 76 76 77 77 77 77 76 77 76 75 74 74 74 74 74 74 75 75 75 74 74 74 75 74
76 76 72 74 74 74 75 75 75 75 76 76 76 76 76 76 75 76 76 76 77 77 77 77 76 76 75 74 74 73 73 73 73 73 74 74 74 74 74 73 73 75 73
74 77 77 73 74 74 75 75 75 75 76 76 76 75 75 75 75 75 75 76 76 77 77 77 76 76 75 73 73 73 73 73 72 73 75 80 77 74 74 73 73 73 72
76 77 77 73 74 74 74 75 75 76 76 75 75 75 75 75 75 75 75 75 76 77 77 76 76 75 73 72 72 71 72 72 71 73 79 79 78 73 73 72 72 72 71
72 76 77 72 73 73 74 74 75 75 75 75 75 75 75 75 75 75 75 75 76 77 76 76 75 73 71 71 70 71 70 70 71 76 78 76 76 73 72 72 71 71 70
69 74 72 71 72 73 74 74 74 74 73 73 74 75 75 75 75 75 74 75 76 76 76 75 73 71 70 70 70 70 69 70 72 78 75 73 74 72 71 70 70 70 69
68 74 74 70 71 73 73 74 73 73 73 73 74 74 74 75 74 74 74 74 75 75 75 73 72 70 70 69 69 69 68 69 76 76 76 75 73 71 71 70 69 68 69
65 69 73 72 72 72 72 72 72 72 72 73 73 73 74 74 73 73 74 74 74 73 72 71 70 70 69 69 68 68 67 69 75 75 76 74 70 71 71 70 69 69 68
67 65 68 70 70 68 70 70 71 71 71 72 72 73 73 72 72 73 72 72 72 71 71 70 70 69 69 69 68 67 66 69 74 75 75 75 71 71 71 70 69 68 68
66 65 66 66 68 66 68 68 69 71 71 71 71 71 70 71 71 71 70 71 71 70 70 70 69 69 68 68 67 66 66 68 74 75 76 74 70 71 70 69 69 68 67
63 67 68 68 67 66 65 66 69 71 71 70 71 69 70 75 74 74 71 70 70 69 69 69 69 68 67 67 66 66 67 73 74 75 75 69 70 71 70 69 68 68 67
62 64 65 65 65 64 64 65 68 70 70 70 73 72 74 72 73 74 71 68 68 68 68 68 68 67 69 73 71 67 73 73 73 74 74 69 70 70 70 68 68 67 67
62 61 62 62 63 63 63 62 62 65 65 66 70 73 72 72 73 74 72 73 72 70 73 72 70 73 72 72 72 71 71 72 73 74 71 68 70 70 70 69 68 68 66
59 60 61 62 62 62 62 60 61 63 64 64 70 70 69 71 70 69 71 71 70 72 71 71 71 70 70 70 70 69 70 71 73 73 71 67 68 70 70 69 68 67 66
59 60 60 60 61 61 60 61 61 62 63 64 68 70 70 70 69 71 70 71 71 70 71 70 70 70 69 69 70 69 69 70 70 73 73 66 67 69 70 70 69 68 67
62 62 61 61 61 60 60 60 61 61 62 63 65 67 67 68 67 70 69 70 69 71 71 70 70 70 70 70 68 69 69 70 70 70 72 71 65 67 68 69 69 68 67
60 60 62 62 62 61 60 60 61 61 62 63 63 65 68 68 67 68 69 69 70 70 69 69 67 68 68 69 68 68 68 68 68 68 70 71 70 64 66 68 68 68 67
58 60 61 62 59 60 60 61 61 61 61 62 62 67 68 68 68 67 68 69 70 69 69 69 68 67 68 68 66 67 67 68 67 67 69 71 72 73 66 65 67 67 67
60 59 59 60 59 60 60 60 61 61 61 61 62 67 67 68 68 69 70 69 67 68 67 67 66 67 65 66 66 67 67 68 66 68 68 69 69 70 70 64 64 64 66
62 61 60 59 59 61 60 60 60 61 62 62 63 65 67 70 68 68 68 67 68 68 67 68 66 67 67 66 68 64 63 66 67 67 68 66 66 67 68 69 70 69 62
61 59 59 59 58 59 58 58 58 58 61 62 67 68 68 70 69 68 69 67 67 67 68 66 66 65 64 64 64 64 64 63 63 65 65 66 64 66 67 68 69 71 64
60 61 58 59 59 59 59 59 61 61 61 64 64 64 68 68 68 67 67 67 66 66 65 64 65 65 66 64 65 64 61 62 62 63 63 63 63 65 67 66 67 62 66
58 59 60 59 59 60 60 57 57 59 60 62 62 61 65 66 70 69 68 67 64 66 66 65 65 65 65 63 64 66 59 60 64 65 63 61 59 64 66 66 65 64 64
61 62 62 62 60 61 60 58 58 61 61 63 64 62 61 65 66 68 69 67 65 66 65 66 66 66 66 64 63 64 64 65 61 57 59 62 63 61 62 62 64 64 63
62 61 61 63 63 62 61 60 59 62 64 64 64 60 61 65 66 67 67 67 67 66 66 65 63 62 63 65 62 62 61 59 57 51 55 54 55 63 64 61 58 64 63
61 58 60 62 62 64 63 63 61 62 64 64 62 61 64 65 64 65 66 66 67 66 65 65 64 63 62 62 63 63 62 54 51 50 49 57 53 63 56 56 59 59 62

GFSSE_sfc_temp_054.txt.gz
Temp
82 87 74 75 76 76 75 75 75 75 76 76 76 76 76 76 76 76 76 77 77 77 78 78 77 77 76 76 75 75 74 74 74 75 75 75 76 75 75 75 75 78 74
85 87 73 74 75 76 76 75 75 75 76 76 76 76 76 76 76 76 76 76 76 78 77 77 77 77 76 75 74 74 73 73 73 74 74 74 74 74 74 73 74 76 73
83 83 81 73 74 75 76 75 75 76 76 76 76 76 76 76 76 76 76 76 76 77 77 77 77 76 75 74 73 73 73 73 73 74 75 78 76 74 73 72 73 73 73
84 84 83 73 73 75 75 75 75 76 76 76 76 76 76 76 76 75 75 75 76 77 77 77 76 75 74 73 72 72 72 73 73 74 85 83 77 73 73 72 72 72 72
83 85 85 72 73 74 74 75 75 75 75 75 75 76 76 76 76 75 75 75 76 77 77 76 75 73 72 71 71 71 72 72 73 81 83 81 80 75 73 72 72 71 71
75 85 77 71 72 74 74 74 74 74 74 74 74 75 75 76 75 75 75 75 76 76 76 75 73 72 70 70 70 70 71 72 74 84 82 78 78 72 72 71 71 70 70
68 80 81 70 72 74 75 74 74 73 73 73 74 74 75 75 75 74 74 75 75 75 74 73 72 70 70 70 70 70 70 72 83 83 82 79 75 72 71 70 70 69 69
69 77 78 74 72 73 74 73 72 72 73 73 73 74 74 74 74 74 74 74 74 73 72 71 70 70 70 69 69 69 69 72 81 82 81 79 72 71 71 70 69 69 69
69 67 74 74 77 72 72 71 70 72 72 72 73 73 73 72 72 73 73 73 72 72 71 70 70 69 69 69 68 68 69 70 82 82 81 79 71 71 71 70 69 68 68
73 65 69 69 72 77 73 67 70 70 71 72 72 71 70 71 71 71 71 72 71 70 70 70 69 69 69 68 67 66 68 70 82 82 81 77 71 71 70 70 69 68 68
67 69 67 64 66 70 70 68 71 72 70 71 70 69 70 76 76 76 74 70 70 69 69 69 69 68 67 67 67 67 68 82 82 82 79 69 71 71 70 69 68 68 67
64 65 67 63 67 69 70 65 66 68 73 70 70 71 75 75 75 79 72 69 69 68 68 68 67 67 70 77 75 69 81 80 81 81 77 69 71 71 70 69 68 67 67
68 63 69 65 67 66 63 62 64 65 65 65 66 68 73 76 77 77 76 75 75 71 77 74 72 79 79 79 77 79 78 79 81 80 73 68 70 70 70 69 68 67 67
65 65 64 66 65 65 63 63 64 65 65 64 64 68 73 75 76 76 78 78 77 79 77 77 78 78 78 79 78 77 77 80 81 80 72 67 69 70 70 69 68 67 67
62 64 65 63 63 63 62 61 63 64 64 64 65 72 74 74 75 78 79 80 80 81 79 78 79 78 77 77 77 76 77 77 78 80 77 66 67 69 70 70 69 68 67
63 62 62 64 63 63 60 61 62 63 63 63 66 74 75 75 74 76 77 79 80 80 80 80 79 78 78 78 76 76 76 77 77 78 79 74 65 67 69 69 69 69 68
67 65 63 61 62 61 61 61 61 62 63 63 70 72 75 73 71 72 77 78 79 80 79 79 78 79 79 78 76 76 76 76 77 76 78 78 72 64 66 68 68 68 68
62 62 64 65 62 62 61 61 61 61 62 63 68 70 71 71 71 73 77 78 79 78 78 78 77 76 77 77 76 76 76 76 75 75 77 78 77 76 66 66 67 67 67
62 61 62 62 61 62 62 61 61 61 61 62 66 71 70 72 73 75 76 76 76 78 77 77 76 76 75 76 76 75 75 76 74 76 75 75 75 77 78 65 64 65 66
65 61 62 62 62 62 62 61 61 60 60 61 65 71 73 74 73 75 76 75 77 77 76 75 74 75 75 76 76 74 74 75 76 75 74 76 76 75 76 75 72 70 63
65 62 60 59 60 60 59 60 60 59 60 61 64 69 71 72 73 75 76 74 76 76 76 73 74 71 73 74 72 71 72 72 72 74 75 75 74 74 74 74 75 76 71
67 63 61 60 61 61 60 60 61 61 62 64 65 68 71 71 74 74 75 74 75 76 74 72 72 71 74 72 71 72 67 70 72 72 74 73 71 72 73 72 74 74 76
67 64 61 61 60 61 60 61 60 59 59 60 63 69 71 73 76 76 74 75 74 75 73 71 71 71 71 71 72 72 67 65 73 74 70 73 71 71 71 74 73 74 73
70 69 65 62 61 60 60 60 58 57 58 61 63 70 73 73 73 75 74 73 73 74 73 73 73 72 72 70 71 73 73 74 69 66 72 71 64 67 69 73 74 72 72
72 70 67 64 63 61 61 61 59 59 61 62 63 64 68 71 73 74 74 73 73 74 72 72 71 70 73 70 71 72 70 71 70 67 65 68 65 61 64 70 72 72 69
73 71 68 65 63 62 61 62 60 61 63 64 61 61 61 63 68 70 73 72 71 72 72 71 72 70 70 71 70 72 70 69 68 67 65 66 62 56 55 61 64 68 67

GFSSE_sfc_temp_057.txt.gz
Temp
89 84 73 75 75 75 75 74 74 75 75 76 76 76 76 76 76 76 76 76 77 77 78 77 77 77 77 76 75 75 75 74 74 75 75 75 76 75 75 75 75 77 74
88 87 73 74 76 75 75 75 74 75 75 76 76 76 76 76 76 76 76 76 77 77 77 77 76 76 76 75 74 74 73 73 73 73 74 75 75 74 74 73 74 75 73
86 87 81 74 74 76 75 75 75 75 76 76 76 76 76 76 76 76 76 76 76 77 77 77 76 76 75 73 73 73 73 73 74 74 75 78 76 74 74 73 73 73 73
89 86 86 73 73 75 75 75 75 76 76 76 76 76 76 76 75 75 75 75 76 77 77 77 76 75 73 73 73 73 73 73 73 74 82 78 76 73 74 73 72 72 72
86 86 86 73 73 75 74 74 74 75 75 75 75 76 76 75 76 75 75 75 76 77 77 77 75 73 72 71 72 72 73 73 73 79 83 79 76 73 73 73 73 72 72
82 88 75 72 72 74 74 74 74 74 74 74 75 75 75 75 75 75 75 75 76 77 76 75 73 72 70 71 71 71 72 73 74 85 81 78 77 72 72 71 71 70 70
80 84 76 71 72 73 75 74 74 74 73 74 74 74 75 75 75 74 74 75 75 75 75 73 72 71 70 70 71 71 71 72 84 82 81 77 74 72 72 71 70 70 70
79 79 77 74 71 73 74 73 71 73 73 73 73 74 74 74 74 73 74 74 73 73 72 71 70 70 70 70 70 70 70 72 83 82 79 76 72 71 71 70 70 69 69
79 77 76 77 76 70 70 69 68 71 72 72 72 72 73 72 73 73 73 73 72 71 70 70 70 70 70 69 69 69 69 70 83 81 79 76 71 71 71 70 69 69 68
76 72 74 75 75 76 74 68 67 68 72 71 72 71 71 71 72 72 72 71 71 70 70 70 69 69 69 68 68 68 69 70 83 82 79 75 71 71 70 70 69 69 68
76 71 67 72 73 75 76 69 67 68 72 71 71 69 69 77 77 75 72 70 70 68 69 69 68 68 67 67 68 68 68 84 83 81 77 70 71 71 70 69 69 68 68
73 70 69 67 71 73 71 66 68 67 68 71 77 75 71 71 75 78 71 68 68 68 68 68 67 66 70 76 75 70 79 83 82 79 75 69 71 71 70 69 68 68 67
73 72 65 66 67 71 66 66 64 70 69 68 69 68 67 68 74 73 71 71 73 70 72 72 71 76 77 77 77 80 80 82 82 79 71 69 70 71 70 69 68 68 67
73 70 67 65 67 68 67 67 65 63 63 64 65 66 65 68 71 71 73 74 73 75 74 74 76 79 78 79 79 78 80 82 81 77 71 67 69 70 70 69 68 68 67
70 70 64 64 68 67 66 66 64 64 63 63 63 65 64 71 70 74 73 74 77 79 77 77 79 79 78 79 79 78 79 80 79 78 74 66 67 69 70 70 69 68 67
66 62 64 62 63 64 63 63 63 63 63 63 62 64 66 74 70 73 74 78 80 81 80 80 80 79 79 79 77 78 78 79 80 78 76 71 66 67 69 70 69 68 68
70 67 63 63 63 62 62 62 62 62 63 62 62 64 69 73 73 77 78 79 81 82 80 80 79 80 79 79 77 77 78 78 79 79 77 75 70 64 66 68 69 68 68
66 67 66 63 61 61 62 62 62 62 62 62 62 66 72 74 74 76 78 79 80 80 80 80 78 78 78 78 76 77 78 78 77 77 79 78 75 74 66 66 67 68 68
67 64 66 65 63 62 62 61 61 61 61 62 63 72 73 73 75 74 75 76 77 79 79 79 77 77 76 77 77 77 77 77 76 78 77 77 77 76 73 65 64 65 66
69 65 66 65 61 62 61 60 60 60 61 62 65 70 71 73 72 72 73 73 74 77 77 77 75 77 77 77 79 76 76 77 77 76 76 77 76 75 76 72 69 68 63
71 65 64 62 62 62 60 59 58 58 59 60 63 70 70 72 73 71 71 71 71 75 75 76 75 74 75 77 75 73 74 75 75 76 76 76 75 76 75 75 71 71 68
70 66 62 62 61 62 62 63 62 60 60 61 62 66 72 73 73 72 72 71 70 74 75 74 73 72 74 75 72 71 66 70 72 73 75 75 74 75 74 74 74 74 72
71 66 62 62 62 64 63 65 63 63 60 59 60 63 68 71 73 72 71 72 71 75 74 73 73 72 71 73 73 72 67 66 71 74 71 73 72 72 73 75 73 74 75
72 70 65 62 63 65 63 61 61 60 59 61 62 64 72 71 71 70 75 75 75 75 75 73 75 73 73 71 71 72 73 72 65 59 71 71 73 72 71 70 68 74 74
75 71 69 62 62 63 64 62 61 62 64 63 62 62 69 70 65 69 75 75 74 75 74 74 72 71 73 71 72 71 70 71 71 67 63 66 69 73 72 62 65 64 73
77 74 68 65 61 62 63 63 62 61 60 61 60 60 68 69 69 68 75 73 73 72 72 72 71 71 71 72 69 71 69 67 67 66 64 67 64 66 69 66 60 57 59

GFSSE_sfc_temp_060.txt.gz
Temp
80 78 74 75 75 75 75 74 74 75 75 76 76 76 76 76 76 76 76 76 77 77 78 78 77 77 77 76 75 75 75 74 74 75 75 76 76 76 75 74 74 74 74
83 80 74 75 75 75 75 74 74 75 75 76 76 76 75 76 76 76 76 76 76 77 77 77 77 77 76 75 74 74 73 73 73 73 74 75 75 75 74 73 73 73 73
85 78 78 74 75 75 75 75 75 75 76 76 76 75 75 76 76 76 75 76 76 77 77 77 76 76 75 74 73 73 73 73 73 74 74 73 73 74 74 73 73 73 72
88 81 80 73 75 75 75 74 75 76 76 76 76 75 75 76 75 75 75 75 76 77 77 77 76 75 74 73 73 73 73 74 74 75 75 74 74 73 73 73 72 73 72
84 85 82 74 74 75 74 74 74 75 75 75 75 76 76 75 75 75 75 75 76 77 77 76 75 73 72 72 72 72 72 73 73 75 73 71 71 73 73 73 72 72 72
82 86 72 72 73 73 74 74 74 74 74 74 75 75 75 75 75 75 74 75 76 76 76 75 73 72 71 71 71 72 72 72 72 76 72 72 71 71 72 71 71 71 71
80 80 75 71 72 73 74 75 74 73 73 74 74 74 74 75 75 74 74 75 75 75 74 73 71 71 71 71 71 71 71 71 76 73 70 69 70 72 72 71 70 70 70
79 79 76 73 72 73 73 73 73 73 73 73 73 74 74 74 73 74 74 74 73 73 72 71 70 70 70 70 71 70 69 71 76 72 70 68 71 71 71 70 69 69 69
78 77 75 74 74 70 69 68 67 66 64 71 72 73 73 72 72 73 73 73 72 71 70 70 70 70 70 70 69 69 69 70 74 71 71 68 71 71 71 70 70 69 69
76 75 73 73 73 71 70 67 66 66 64 62 71 71 71 71 72 72 71 71 71 70 70 69 69 69 69 69 69 69 69 71 73 71 69 68 71 71 71 70 69 69 68
73 71 71 71 72 71 67 68 66 67 62 66 70 70 69 73 71 71 71 70 69 68 68 69 68 67 68 68 69 68 68 72 74 70 68 69 71 71 70 69 69 68 68
72 70 69 69 70 67 66 66 64 64 64 67 70 70 71 70 70 72 69 68 68 68 68 67 67 67 69 66 66 67 67 75 71 68 67 69 70 71 70 69 68 68 67
73 70 69 68 69 67 65 65 64 65 65 65 67 68 66 66 69 68 67 66 66 67 67 66 66 68 68 67 67 67 69 74 71 68 67 68 70 70 70 69 68 68 67
71 72 68 68 67 67 67 66 64 63 65 63 64 65 66 64 65 67 67 67 67 68 66 65 66 67 67 69 69 70 71 73 69 67 65 67 69 70 70 69 68 68 67
70 69 66 66 66 67 66 66 64 64 64 63 63 64 64 64 64 66 68 68 69 69 67 66 67 70 68 69 70 70 71 72 69 67 64 66 67 69 70 69 69 68 67
67 65 64 64 66 66 66 65 65 64 63 62 62 64 64 63 63 66 67 68 69 70 70 69 70 68 68 68 68 70 71 73 70 67 65 63 65 67 69 70 69 68 68
67 64 63 61 63 64 65 65 64 64 63 62 62 63 64 63 66 68 68 69 70 71 71 70 70 68 67 70 68 68 69 70 71 68 67 65 63 64 66 68 68 68 68
65 63 63 64 62 63 63 63 63 64 63 62 62 62 64 65 69 68 69 70 72 73 72 69 67 66 66 66 65 65 66 68 69 70 68 67 65 67 64 65 67 68 68
68 64 63 62 61 61 61 62 62 62 61 61 61 61 63 65 69 66 64 64 70 69 68 69 66 66 64 65 66 64 65 65 66 71 70 69 66 66 65 64 64 64 66
67 67 64 63 62 61 61 60 61 60 60 61 61 63 64 68 68 66 68 67 67 68 67 66 66 66 65 64 73 68 64 64 64 63 65 69 68 68 66 66 63 63 63
66 65 64 62 61 60 59 58 58 58 59 60 61 65 66 67 67 67 66 66 67 66 66 66 66 65 64 65 62 61 61 63 62 63 63 63 65 66 65 67 64 64 63
64 63 64 63 62 61 60 61 60 59 59 60 61 66 66 66 67 68 66 66 66 65 66 65 66 63 64 64 60 59 54 57 61 63 62 63 62 64 67 66 65 64 65
66 63 62 63 62 62 62 61 60 60 59 58 58 62 67 67 69 68 66 65 65 65 64 64 65 64 61 61 63 60 54 52 58 60 61 61 61 61 63 64 65 66 65
68 64 62 62 62 63 63 61 59 58 57 61 60 62 66 67 67 69 68 66 64 64 65 65 67 64 63 60 61 65 61 60 56 53 59 61 61 62 60 61 62 64 67
70 66 62 62 62 63 63 63 61 60 61 62 61 60 63 65 66 67 67 65 65 66 66 65 64 64 63 60 61 59 59 59 60 55 52 56 59 61 61 60 59 59 62
71 67 63 61 62 63 63 63 62 61 60 61 60 60 61 64 64 64 67 66 66 65 65 64 64 63 64 62 61 61 60 58 57 56 53 54 54 58 61 59 57 57 58

GFSSE_sfc_temp_063.txt.gz
Temp
72 73 74 75 75 74 74 74 74 74 75 76 76 76 76 76 76 76 76 76 76 77 78 78 77 78 77 76 75 75 75 74 74 75 75 76 76 75 74 73 73 73 74
74 75 73 74 75 75 74 74 74 75 75 76 75 75 76 76 75 76 76 76 77 78 78 78 78 77 76 75 74 74 74 73 73 74 74 75 75 74 73 73 73 73 74
74 74 75 74 74 75 75 74 74 75 76 76 75 75 75 75 75 75 75 76 76 77 78 77 76 76 75 74 73 73 73 73 72 73 73 71 72 73 73 73 73 73 73
75 74 74 73 74 74 74 74 74 75 76 76 75 75 75 75 75 75 75 75 76 77 77 76 76 75 74 73 73 73 73 73 73 73 73 72 73 73 74 73 73 73 72
76 76 75 73 73 74 74 74 74 75 75 75 75 76 76 75 75 75 75 75 76 77 77 76 76 74 73 72 72 73 73 72 72 72 71 71 71 73 73 73 73 72 72
74 80 72 72 73 73 74 74 74 74 74 74 74 75 75 75 75 75 74 75 76 76 76 75 74 73 71 71 72 72 72 72 70 68 70 71 71 73 73 72 72 71 71
73 71 71 71 72 73 74 74 74 73 74 74 74 74 75 75 75 74 74 75 75 75 75 74 73 72 71 71 71 71 70 70 68 66 67 69 70 72 72 71 71 70 70
72 71 71 73 72 71 73 73 73 72 73 74 74 74 74 74 74 74 74 74 74 73 72 72 71 71 71 71 70 69 71 70 69 66 67 69 70 71 72 70 70 69 69
71 70 71 69 71 71 69 68 67 68 66 67 69 73 73 73 73 73 73 73 72 71 70 71 70 70 70 69 70 69 69 69 67 67 68 70 71 71 71 70 69 69 69
69 67 67 68 68 67 66 66 66 65 65 64 65 67 70 71 72 71 71 71 70 70 70 70 69 70 69 69 69 69 69 68 67 65 63 68 71 71 71 70 69 69 69
66 65 66 67 67 65 66 66 66 66 65 65 65 63 68 71 70 70 69 69 69 68 69 69 69 69 69 69 68 68 69 68 66 65 63 69 71 71 70 69 69 69 68
63 63 64 65 66 65 66 65 64 64 62 64 64 63 67 69 69 69 68 68 68 67 67 67 68 68 67 64 65 67 69 67 66 65 65 69 70 71 70 69 68 68 68
65 64 64 65 65 65 64 63 63 62 62 62 65 66 67 67 67 66 66 65 66 66 65 67 66 63 64 64 64 64 68 66 65 66 67 68 70 71 70 69 68 68 67
64 65 64 65 64 64 65 64 62 63 63 62 65 65 65 65 64 64 65 65 65 63 61 61 61 62 64 66 66 65 67 65 65 64 66 67 69 70 70 69 68 67 67
62 64 63 65 64 64 64 63 63 64 64 64 64 65 65 65 64 64 65 64 64 62 60 61 61 63 64 65 66 69 67 64 64 64 62 66 67 69 70 69 69 68 67
61 62 64 64 64 64 62 63 62 64 63 63 64 65 65 64 64 64 65 65 63 63 62 64 64 63 64 64 65 69 67 65 64 63 62 63 65 67 69 69 69 68 68
60 63 62 63 64 63 62 63 63 62 61 60 62 64 66 65 65 65 66 66 66 65 64 63 63 65 62 65 65 66 68 65 64 63 63 61 63 64 65 68 68 68 68
60 59 62 63 63 63 61 62 63 62 61 60 62 64 65 66 65 65 65 66 67 67 66 65 65 64 62 62 61 62 65 65 64 63 63 63 62 64 63 65 67 67 68
60 61 61 62 61 61 62 61 62 62 61 61 62 63 64 66 66 65 64 64 67 66 66 67 64 64 61 60 62 60 61 62 63 65 63 62 61 62 62 63 64 64 66
60 61 61 61 61 61 61 61 62 62 62 61 61 63 64 66 65 64 65 63 65 64 64 65 65 62 63 63 69 64 59 60 62 62 63 64 62 63 63 63 63 63 63
59 60 61 60 60 60 59 59 59 58 58 59 61 64 64 65 65 64 66 64 63 63 66 67 64 63 60 61 59 56 57 58 59 60 60 63 63 63 62 62 62 62 62
59 59 61 60 59 60 60 60 60 59 59 60 60 61 65 64 66 64 64 63 64 63 62 63 63 61 61 61 59 56 52 55 56 58 57 59 60 64 64 63 62 62 62
58 58 61 60 60 60 60 60 60 59 59 58 59 61 64 64 66 66 65 64 63 64 62 62 62 63 60 60 61 56 50 50 51 54 56 56 57 57 60 64 63 63 62
58 59 62 61 60 61 61 59 58 58 56 59 60 63 64 64 64 65 65 65 63 62 61 61 64 62 60 59 57 61 57 55 51 50 55 55 57 59 57 57 62 63 63
59 58 59 61 61 61 61 60 60 59 60 60 59 59 62 62 63 64 63 63 60 60 60 61 61 65 61 58 57 56 54 54 55 52 50 53 56 57 58 60 60 61 63
59 58 58 59 60 61 61 60 59 59 58 58 55 56 59 62 63 62 64 63 62 61 60 60 61 63 62 60 58 57 57 56 54 53 51 51 52 54 59 59 58 59 58

GFSSE_sfc_temp_066.txt.gz
Temp
70 72 73 74 74 74 74 74 74 75 75 76 76 76 76 76 76 76 76 76 77 77 78 78 77 77 77 77 76 75 75 74 74 75 74 75 75 75 74 74 74 73 74
72 73 72 74 74 74 74 74 74 75 75 76 76 76 76 76 76 76 76 76 77 77 78 78 77 77 76 76 74 74 74 73 73 74 74 75 75 75 74 73 74 73 74
72 73 74 73 74 74 74 74 74 75 76 75 75 75 75 75 75 76 76 76 76 77 78 78 77 76 75 74 73 73 73 72 72 72 72 71 72 74 74 73 73 73 74
73 72 73 73 74 74 74 74 74 75 76 75 75 75 75 75 75 75 75 75 76 77 78 78 77 76 74 73 72 72 72 72 72 72 71 72 72 73 73 73 73 73 73
72 73 74 73 73 74 74 74 74 74 74 74 75 75 75 75 75 75 74 75 76 77 77 77 76 74 73 72 72 72 71 71 71 71 70 70 71 73 73 73 72 72 72
71 74 71 72 72 73 74 74 74 74 73 74 74 75 75 75 75 75 74 75 76 76 76 76 75 73 72 71 71 70 70 70 70 70 70 71 71 73 73 72 71 72 71
69 72 71 71 72 73 74 74 73 73 73 73 74 74 75 75 75 74 74 75 75 75 75 74 73 71 71 71 71 70 69 68 67 68 69 69 70 72 72 72 71 71 71
68 68 70 71 72 72 73 72 72 72 72 73 73 74 74 74 74 74 74 74 74 73 73 72 71 71 71 70 70 68 68 68 67 66 67 69 70 71 71 70 70 70 70
68 68 68 70 70 69 69 70 69 70 72 72 67 72 72 72 72 73 73 73 72 72 71 71 70 70 70 70 69 68 67 68 66 66 68 69 71 71 71 70 70 70 69
66 67 67 68 69 66 66 67 67 67 67 67 66 65 66 70 72 72 71 71 71 70 70 70 70 70 70 69 68 67 67 67 64 62 65 70 71 71 71 70 70 69 69
65 64 65 65 65 66 65 66 67 67 67 66 66 64 62 66 70 70 70 70 69 68 69 69 69 69 68 68 68 67 67 66 65 62 63 69 71 71 71 70 69 69 69
61 62 63 64 64 65 65 63 63 64 64 64 64 63 62 65 67 69 68 68 68 68 68 68 68 67 67 67 68 67 65 65 64 62 63 69 71 71 70 69 69 68 68
62 62 62 63 65 65 64 63 62 60 61 62 63 63 63 66 67 67 66 66 66 67 65 66 64 63 63 64 65 65 64 64 63 64 66 68 70 71 70 69 69 68 67
62 61 62 63 65 64 64 63 62 60 60 60 63 62 64 65 65 65 66 65 63 63 60 59 59 62 63 64 65 63 64 63 62 63 65 67 69 70 70 69 68 68 67
60 61 61 64 64 64 63 63 61 61 63 61 64 63 65 65 64 64 65 64 62 61 59 58 59 62 64 63 65 64 63 62 62 63 63 65 67 69 70 70 69 68 67
60 60 61 63 63 64 63 63 61 63 63 64 65 65 66 65 64 63 64 63 63 62 61 58 58 60 61 62 64 64 63 62 62 61 62 63 65 67 69 69 69 68 68
60 60 61 61 63 63 63 63 63 63 63 63 64 64 65 65 64 63 63 62 63 63 59 57 58 60 61 63 65 64 62 62 61 61 60 60 62 64 65 68 68 68 67
59 59 61 63 63 62 62 62 62 62 61 61 63 63 65 66 65 63 65 64 63 63 62 59 58 58 59 60 60 63 62 61 61 61 61 61 59 62 63 65 66 67 67
59 59 61 62 62 62 61 62 62 60 60 61 61 64 64 65 66 64 63 63 65 64 61 61 58 59 59 58 61 60 62 59 59 63 60 59 59 59 59 63 63 64 66
59 59 61 61 61 62 61 62 62 61 60 59 61 64 64 66 66 65 64 63 64 64 62 62 59 60 63 61 66 62 58 59 59 59 60 61 59 59 59 60 61 62 62
58 58 59 60 60 61 60 60 60 60 60 60 61 64 64 65 65 64 65 64 64 61 63 63 61 62 60 60 58 56 55 56 58 59 59 58 59 59 58 59 59 60 61
58 58 58 60 60 60 60 61 60 60 60 61 60 61 64 63 65 64 64 63 63 61 59 62 62 58 60 61 58 56 52 55 56 57 56 58 58 60 60 61 60 60 60
57 57 58 59 59 60 60 60 58 59 58 58 58 59 61 61 65 66 65 63 63 62 61 60 61 62 60 58 61 57 51 52 52 54 54 55 57 58 60 61 61 61 61
57 58 58 59 59 60 60 59 58 58 56 59 59 60 60 61 62 65 64 63 62 62 60 61 62 60 60 61 57 61 59 55 50 49 52 54 56 57 59 61 61 61 61
57 57 58 58 60 60 60 60 59 58 59 59 60 59 59 59 61 64 64 62 61 61 60 60 60 59 61 58 58 56 55 53 53 50 49 51 52 56 58 58 60 60 61
57 57 57 57 59 60 60 59 59 59 59 58 58 57 58 60 61 61 65 63 61 60 61 60 61 61 61 61 58 56 55 54 52 51 50 50 51 54 58 58 56 58 61

GFSSE_sfc_temp_072.txt.gz
Temp
69 70 73 74 75 74 74 74 74 75 76 77 76 76 76 76 76 76 76 76 77 78 79 78 78 78 78 77 76 75 75 75 74 75 75 76 76 76 75 74 74 74 75
70 72 72 74 75 74 74 74 74 75 76 76 76 76 76 76 76 76 76 76 77 78 79 78 78 78 77 76 74 74 74 73 73 74 74 76 76 76 75 74 74 74 74
70 71 72 73 75 74 74 74 74 75 76 76 76 76 76 76 76 76 76 76 77 78 79 78 78 78 76 74 73 73 73 73 73 73 73 72 73 75 75 74 74 74 75
70 72 71 73 74 74 74 74 74 76 76 76 76 76 76 76 76 76 75 76 76 78 79 78 78 76 74 73 72 72 72 72 72 72 70 72 74 75 75 74 74 74 74
70 72 71 72 73 73 73 74 74 75 75 75 75 76 76 76 76 75 75 75 77 78 78 78 77 74 72 72 71 71 71 70 70 68 67 71 72 74 74 74 74 73 73
69 72 70 71 72 73 73 74 74 74 74 74 74 75 76 76 75 75 74 75 76 77 77 77 75 72 71 71 71 70 70 69 68 66 68 71 71 74 74 73 72 72 72
67 71 72 70 71 72 73 74 74 73 73 73 74 74 75 75 75 74 74 75 76 76 76 74 72 71 70 70 70 70 69 68 66 64 67 69 70 72 72 72 71 71 70
66 67 70 72 71 72 72 72 72 72 72 73 73 74 74 74 73 74 74 74 75 74 73 72 71 71 70 70 69 68 68 68 66 65 66 69 71 73 73 72 71 70 70
67 67 67 71 72 70 70 68 68 69 72 71 72 71 72 72 72 73 73 74 73 72 71 71 70 70 70 69 68 68 67 67 64 65 68 70 71 72 71 71 70 70 69
65 65 65 69 70 67 65 66 68 68 68 71 67 66 68 70 71 70 72 72 71 71 71 70 70 70 69 68 67 67 67 67 64 65 65 67 72 73 71 70 70 69 69
63 63 63 66 65 64 65 66 68 68 69 69 68 67 65 66 68 69 69 70 70 69 69 69 69 68 68 67 67 66 66 62 64 64 65 69 71 71 71 70 69 69 69
61 61 62 62 63 63 65 67 66 66 66 66 66 66 65 64 65 67 67 69 68 68 69 69 68 67 66 64 65 65 63 63 63 62 65 68 71 72 71 70 70 70 70
61 60 61 63 64 64 64 65 64 65 64 64 65 65 65 64 65 65 64 66 65 67 67 66 66 65 63 63 60 61 61 61 62 61 66 68 71 72 71 71 70 68 68
60 60 61 64 64 63 63 63 64 64 64 63 64 64 64 64 64 63 63 63 64 64 62 63 63 62 63 61 61 61 62 62 60 61 65 67 69 71 71 70 70 68 68
59 59 63 64 64 63 63 62 62 63 63 63 63 63 64 63 64 63 63 63 63 61 60 59 60 61 60 60 62 62 61 60 60 61 61 66 67 70 70 71 70 70 69
59 60 62 63 64 63 63 62 61 61 61 62 62 62 64 63 64 65 64 62 60 63 61 59 61 61 60 60 60 61 61 59 60 60 61 63 65 67 69 70 70 69 69
60 59 61 62 63 63 62 62 61 61 61 61 61 62 64 64 65 65 64 61 60 60 57 57 57 58 59 60 59 61 61 59 59 59 59 60 64 64 66 68 69 69 68
58 61 62 63 62 63 62 62 62 62 62 62 62 62 63 65 66 64 63 61 59 59 59 59 58 58 58 58 57 58 60 59 58 58 58 59 59 62 63 65 67 67 68
59 60 61 61 61 62 62 61 62 61 62 62 63 62 63 65 65 64 62 61 61 59 59 59 56 59 58 56 57 58 58 57 57 59 58 58 58 59 59 63 64 64 66
57 58 62 62 61 61 62 61 61 60 60 61 62 62 63 64 63 62 61 60 62 61 60 60 58 57 59 58 60 56 56 57 56 56 57 59 58 59 59 59 61 61 62
56 57 61 61 61 61 60 60 59 58 59 59 61 62 63 62 61 61 60 60 61 61 61 60 60 59 55 58 54 52 53 56 56 56 56 57 58 58 58 58 58 59 61
57 58 60 61 61 61 61 61 61 60 59 60 60 61 62 61 60 60 60 61 61 59 58 60 60 56 56 59 54 53 49 53 56 57 56 57 56 58 58 59 58 59 59
58 59 59 61 61 61 61 60 59 59 59 58 58 59 61 62 61 60 60 61 61 61 58 59 56 57 54 54 59 54 49 50 53 54 55 55 56 56 59 59 59 59 59
59 60 59 60 61 61 61 60 59 59 57 58 58 59 60 62 62 61 60 60 61 61 59 60 59 58 57 56 54 58 58 54 51 49 53 54 56 57 57 58 59 59 60
61 59 56 59 60 60 60 60 59 59 59 59 59 58 59 60 61 62 60 60 61 61 59 59 58 58 58 57 56 55 55 55 55 52 50 52 53 57 59 58 58 59 60
61 58 58 60 59 59 60 60 59 58 57 57 57 57 58 58 59 60 61 59 60 60 59 59 58 59 58 58 58 56 56 55 53 53 51 51 51 54 58 58 58 59 60

GFSSE_sfc_temp_075.txt.gz
Temp
76 79 74 76 76 74 74 74 74 75 76 76 76 76 76 76 76 76 76 76 77 78 79 78 78 78 78 78 77 76 76 75 75 76 76 76 77 76 75 75 76 81 75
79 78 73 75 76 74 74 74 74 75 76 76 76 76 76 76 76 76 76 76 77 78 79 78 78 78 78 76 75 75 74 74 74 74 75 76 76 76 75 75 75 78 75
77 76 77 75 75 74 74 74 74 76 77 76 76 76 76 76 76 76 76 76 77 78 79 78 78 78 77 74 74 74 73 73 73 74 75 77 77 76 75 74 74 74 74
77 76 78 74 74 74 74 74 75 76 76 76 76 76 76 76 76 76 75 76 77 78 78 79 78 77 75 73 73 73 73 72 72 73 81 81 80 75 75 75 75 75 74
78 76 77 74 74 74 74 74 75 76 76 75 76 76 76 76 76 76 75 76 77 78 78 79 78 75 73 72 72 72 72 71 71 78 82 80 81 76 75 74 74 74 74
77 76 73 72 73 74 73 74 74 75 73 74 75 75 76 76 76 75 75 76 78 78 78 78 75 73 71 71 71 71 70 70 72 82 81 78 79 75 74 73 72 72 72
73 75 75 70 72 73 73 74 73 73 72 73 74 75 75 75 75 75 74 75 76 76 76 75 73 72 71 70 70 70 69 70 79 80 80 79 76 74 74 72 72 72 71
73 72 74 72 72 72 73 72 72 70 72 72 73 74 74 74 74 74 74 75 74 74 74 72 71 71 70 70 70 69 68 70 77 79 79 79 73 72 72 72 71 71 71
75 73 72 72 73 70 70 71 69 70 71 71 71 73 72 71 72 73 74 74 74 72 72 71 71 70 70 69 69 68 67 69 77 78 78 78 72 73 73 71 71 70 70
73 74 72 72 72 73 75 67 68 69 70 71 70 69 67 68 69 71 72 73 72 71 70 70 70 70 69 68 68 67 67 69 78 78 78 76 71 73 72 71 70 70 70
71 72 70 70 73 71 74 70 69 70 70 69 69 67 67 71 69 69 69 70 70 69 69 70 69 68 68 67 67 67 69 77 77 77 78 70 71 72 71 71 70 70 70
70 70 70 70 68 69 72 70 73 74 75 72 69 68 70 69 68 67 67 68 70 68 68 69 68 67 70 75 73 68 76 75 76 76 76 69 71 72 71 70 70 70 70
72 70 70 68 68 69 67 68 70 71 72 69 68 68 69 69 67 67 65 66 66 68 71 71 71 75 74 75 74 73 73 73 75 75 73 68 70 72 71 71 70 70 70
70 71 69 67 67 67 68 66 68 68 67 66 67 67 67 68 65 65 64 65 65 65 72 73 74 72 72 72 72 71 72 74 74 73 72 67 69 71 72 72 70 70 69
70 70 67 66 66 66 66 65 65 67 68 66 66 66 66 67 66 65 65 66 64 63 71 72 72 71 70 70 71 71 70 71 71 73 75 67 68 71 71 71 70 69 69
70 69 66 66 67 66 65 64 64 65 65 64 64 65 67 68 66 64 65 65 63 63 69 72 72 71 72 72 70 70 70 71 72 72 75 73 66 67 69 70 70 70 69
70 70 65 65 66 65 65 64 64 63 63 63 63 65 66 67 65 65 67 63 62 64 68 70 70 71 71 72 70 70 70 70 70 71 73 74 70 64 66 68 70 70 70
70 66 66 65 65 64 64 64 64 63 62 63 63 64 65 67 67 65 65 63 62 62 67 69 69 69 69 70 69 70 70 70 69 70 72 73 74 74 66 66 67 68 69
70 67 63 65 64 64 64 63 64 63 63 62 62 62 63 65 66 65 63 62 61 65 66 68 69 69 68 69 69 69 69 69 69 69 70 70 71 72 73 64 64 65 66
69 67 64 65 64 64 64 63 63 63 63 63 63 62 63 63 65 64 63 61 61 64 67 68 66 68 69 68 69 67 68 69 69 68 69 70 71 70 71 71 71 69 63
67 63 64 63 63 63 63 61 60 60 61 61 63 65 63 63 64 62 61 61 62 64 67 65 66 65 66 68 65 64 65 66 66 67 67 68 69 69 70 70 70 70 69
64 63 64 64 63 64 66 63 62 61 61 62 63 62 65 63 62 61 60 61 62 66 65 66 65 65 66 66 65 64 58 61 64 64 64 65 66 69 68 68 69 69 69
63 63 64 65 65 65 65 65 61 61 61 60 59 61 61 61 60 60 60 61 63 65 64 64 65 65 63 64 67 67 59 60 61 63 62 64 64 64 67 68 67 67 67
65 65 65 65 65 65 64 62 60 60 58 60 60 60 61 62 61 60 60 61 63 65 64 64 66 64 62 60 64 67 68 65 61 56 60 63 63 63 63 65 68 66 67
66 64 63 64 64 63 64 63 62 62 65 62 61 60 60 61 61 61 60 60 60 63 64 63 63 65 67 65 65 64 65 65 66 63 58 58 61 64 67 66 66 67 68
66 63 60 61 62 63 63 64 62 61 61 61 59 61 60 60 60 60 60 59 59 60 59 60 61 65 65 66 66 66 65 64 63 63 60 60 61 63 66 67 66 67 67

GFSSE_sfc_temp_078.txt.gz
Temp
90 90 74 75 75 75 75 75 75 76 76 76 76 76 76 77 76 76 76 77 77 78 79 79 78 78 78 78 77 77 76 75 75 76 76 76 77 77 77 76 77 83 75
90 88 73 75 75 75 75 75 75 76 76 76 76 76 76 76 76 76 76 77 77 79 79 78 78 79 78 77 76 75 75 74 74 75 75 76 77 77 77 76 77 79 75
88 87 81 74 75 75 75 75 75 76 77 76 76 76 76 76 76 76 76 76 77 78 79 79 79 78 77 75 74 74 74 74 74 75 76 83 81 76 75 74 74 75 75
91 88 85 74 74 74 74 74 75 76 77 76 76 76 76 76 76 76 76 76 77 78 78 79 79 77 75 74 73 73 73 73 73 74 85 84 83 76 75 75 75 75 75
90 90 88 73 74 74 74 74 75 75 76 76 76 76 76 76 76 76 76 76 77 78 78 79 78 75 73 72 72 72 72 73 73 78 83 82 82 77 75 75 74 75 75
88 88 76 72 74 73 74 74 75 76 74 75 75 76 76 76 76 76 75 76 77 77 78 77 75 73 72 71 71 71 71 72 72 83 82 79 81 75 75 73 73 73 73
86 86 81 72 73 74 74 74 74 74 72 74 74 75 75 76 76 75 75 76 77 77 77 75 73 72 71 71 71 70 71 71 83 82 81 80 78 74 74 73 72 72 72
83 83 82 74 72 72 73 73 72 73 72 72 74 74 75 75 74 74 74 75 75 75 74 73 72 71 71 70 70 69 70 71 84 84 83 79 74 74 73 72 72 72 72
83 82 80 76 77 71 70 71 71 70 71 70 71 73 73 71 71 74 74 74 74 74 72 71 71 70 70 70 69 68 69 71 86 85 85 79 72 73 73 72 72 71 71
83 81 75 75 77 79 78 70 70 70 70 70 70 70 70 69 69 69 70 72 72 72 71 71 70 70 70 68 68 67 68 71 86 85 85 80 72 73 72 72 71 71 71
82 82 77 74 76 76 79 78 71 70 70 70 70 68 68 74 69 69 69 71 71 68 69 70 69 68 68 68 67 68 68 85 85 86 84 70 72 73 72 71 70 70 70
80 81 79 73 74 75 76 77 80 81 80 79 78 75 77 73 72 76 72 70 69 67 68 68 68 67 70 78 77 70 84 83 84 84 82 69 72 72 72 71 70 70 70
83 83 82 77 80 78 73 74 81 83 81 77 77 75 73 74 75 74 70 71 69 69 68 69 71 78 78 77 79 81 82 81 84 84 75 69 71 72 72 71 70 70 70
83 83 81 76 76 73 73 72 75 79 81 76 78 75 72 72 71 73 70 72 66 68 66 70 75 75 75 78 80 80 79 82 82 83 74 67 70 71 72 72 71 70 70
83 82 81 73 71 71 70 71 70 76 73 72 74 77 77 73 74 70 69 68 66 66 67 71 75 73 76 79 79 78 78 79 78 81 77 67 68 70 72 72 72 70 70
84 83 81 75 73 75 73 69 69 72 73 70 70 73 76 72 69 68 67 67 66 65 66 73 75 73 77 79 78 78 77 77 77 79 80 74 66 68 70 71 71 70 70
84 84 77 72 71 73 75 70 67 67 69 70 70 71 70 70 68 67 67 65 65 65 65 71 74 75 77 79 77 77 77 76 78 77 80 78 71 65 67 69 70 70 69
84 81 77 72 71 74 70 69 67 67 67 69 68 68 69 70 69 68 66 64 64 62 64 69 74 74 76 77 76 77 77 77 76 77 77 79 76 73 67 66 68 69 69
84 80 76 73 72 71 69 68 67 67 67 65 65 65 67 70 70 68 66 66 64 61 62 70 74 75 74 76 76 77 77 77 76 77 77 77 77 78 77 66 65 66 67
83 80 76 70 70 70 70 67 66 66 65 64 63 64 65 64 65 66 66 63 65 61 61 69 72 73 76 76 75 75 75 76 76 76 76 77 77 76 78 76 74 72 64
81 79 76 68 69 68 66 63 63 63 64 63 65 66 65 65 63 64 63 62 63 61 61 65 73 72 72 74 72 69 71 72 72 73 74 74 76 76 76 77 78 78 72
78 78 75 72 69 69 69 67 65 63 64 65 65 65 66 69 65 63 62 61 61 61 61 67 70 71 72 73 70 69 59 63 67 71 74 74 74 76 76 75 76 76 76
77 76 76 74 74 72 72 71 71 65 65 63 63 64 65 69 64 63 62 61 61 62 61 67 71 71 68 72 74 72 63 63 65 70 69 72 71 70 73 74 73 74 74
77 77 77 76 72 74 75 71 69 65 60 66 66 61 66 65 61 61 62 61 61 63 63 67 72 71 71 68 71 75 76 75 66 62 70 70 71 69 69 72 73 73 73
79 76 76 75 72 75 74 72 71 65 64 69 65 61 62 62 61 60 60 60 61 63 66 69 69 69 71 71 69 70 71 72 73 71 65 65 69 69 71 72 71 73 73
78 75 73 72 70 73 73 71 67 65 65 67 63 63 60 60 60 60 60 60 61 62 67 67 68 69 70 70 69 67 70 69 69 70 68 69 67 69 70 71 70 72 74

GFSSE_sfc_temp_081.txt.gz
Temp
98 87 74 75 75 75 75 75 75 75 76 76 76 76 76 76 76 76 76 77 77 78 79 79 78 78 78 78 77 76 76 75 75 76 76 77 77 77 77 76 77 81 75
97 89 73 75 75 75 75 75 75 75 76 76 76 76 76 76 76 76 76 77 77 78 79 78 78 79 78 77 76 75 75 74 74 75 75 77 77 77 78 76 77 78 75
94 90 82 74 75 75 75 75 76 76 76 76 76 76 76 76 76 76 76 76 77 78 79 78 78 78 77 75 74 74 74 74 74 74 76 82 81 76 76 74 74 75 75
96 91 88 74 74 75 75 75 75 76 76 76 76 76 76 76 76 76 76 76 77 78 78 79 79 78 75 74 73 74 74 74 74 75 82 82 82 76 76 75 75 75 75
96 94 89 73 73 74 74 74 75 75 76 76 76 76 76 76 76 76 75 76 77 78 78 78 78 75 73 73 72 73 73 73 73 76 83 82 79 77 76 75 74 74 75
95 95 74 72 73 74 74 74 74 74 74 75 75 76 76 76 76 76 75 76 77 78 78 78 76 73 72 71 72 72 72 73 71 78 78 79 79 75 75 73 73 73 73
92 93 82 72 73 73 74 74 74 74 74 74 75 75 75 76 76 75 75 75 76 77 77 75 73 72 71 71 72 72 72 71 79 78 78 78 76 74 74 73 73 72 72
89 89 85 74 73 73 73 73 73 73 73 73 74 74 75 75 75 75 75 75 76 75 74 73 72 71 71 71 71 71 70 72 77 82 79 77 73 74 74 73 72 72 72
89 86 84 80 77 71 71 71 71 72 72 71 71 72 74 72 70 72 74 74 75 74 72 71 71 71 71 70 70 69 69 71 79 78 80 79 73 74 73 72 72 72 71
86 85 83 81 81 81 80 70 71 71 70 71 73 71 70 70 69 70 68 70 71 72 73 71 69 69 69 69 69 69 69 72 84 82 76 77 72 73 73 72 72 71 71
86 85 78 78 81 82 80 79 71 71 71 70 72 70 69 76 74 71 67 67 69 69 71 69 69 68 67 68 68 69 69 86 81 83 78 71 73 73 73 72 71 71 71
85 85 81 76 80 82 85 78 81 81 81 80 81 79 79 76 75 71 67 66 68 68 68 68 67 67 68 74 75 71 81 81 86 85 78 70 72 73 72 71 71 71 70
88 87 86 78 80 80 82 78 83 82 82 79 80 78 77 74 72 72 68 70 70 69 70 67 67 73 76 77 77 79 79 83 85 83 73 69 72 72 72 71 71 70 70
89 88 87 84 83 82 84 80 84 82 78 81 79 77 74 74 72 69 75 73 71 71 68 67 68 74 75 76 79 80 77 83 85 79 72 68 70 72 72 71 71 71 70
90 88 87 85 83 80 74 73 76 83 83 78 79 77 75 75 72 71 73 71 74 72 67 66 67 73 76 77 79 75 81 81 82 81 76 67 68 70 72 72 71 71 70
90 89 87 82 80 77 73 72 73 77 77 78 77 78 76 75 74 72 69 72 71 69 67 66 67 71 75 75 76 78 80 81 80 80 78 73 66 68 70 72 71 71 71
91 91 85 80 79 79 78 74 75 72 72 71 73 75 76 76 74 74 73 69 68 66 65 65 65 71 78 76 76 76 80 78 78 79 78 75 71 65 67 69 70 70 70
92 88 86 82 78 79 79 75 72 73 73 70 71 71 75 76 72 68 67 66 67 64 64 64 64 71 71 78 71 78 79 78 78 78 79 77 75 74 67 67 67 69 69
93 87 84 80 77 77 78 71 70 70 68 67 70 69 72 71 71 67 69 65 65 64 63 63 64 72 74 72 71 78 76 78 76 79 78 76 74 73 73 66 66 66 67
92 88 84 79 78 78 76 71 73 68 67 67 68 69 71 70 67 68 66 64 65 63 62 63 64 72 75 74 75 74 71 74 77 77 77 78 77 76 76 73 71 70 64
89 86 82 78 78 77 75 71 70 69 70 68 68 67 66 68 69 68 64 63 63 63 62 63 63 68 69 72 69 66 67 69 71 77 77 78 78 78 78 76 75 75 70
86 84 82 78 77 77 77 75 73 70 72 72 71 69 67 67 67 63 64 62 64 62 61 61 62 64 70 72 66 68 57 63 68 69 73 76 75 77 76 76 76 76 76
84 82 82 79 77 76 77 75 73 67 70 67 69 69 69 70 70 67 63 62 62 61 60 62 62 65 66 69 72 69 61 61 65 68 69 71 74 75 76 76 76 76 76
83 83 82 80 78 77 76 73 69 68 66 71 71 70 70 70 69 66 62 62 61 61 60 62 63 64 67 67 71 76 73 74 66 61 69 69 73 73 73 75 75 75 75
84 82 81 80 79 78 77 77 74 73 72 73 72 67 65 66 63 62 62 61 61 61 61 61 62 64 68 68 71 72 70 71 67 67 63 65 69 72 73 73 74 74 74
85 82 79 79 78 78 78 77 75 73 71 71 69 65 62 62 61 60 60 61 61 61 60 61 63 67 69 70 71 70 69 67 67 69 67 67 67 70 72 71 69 70 72

GFSSE_sfc_temp_084.txt.gz
Temp
83 78 75 76 76 76 76 75 75 75 75 76 76 76 76 76 76 76 76 77 77 78 79 79 78 78 78 77 77 76 75 75 75 76 76 77 77 77 77 76 76 76 76
84 80 74 75 76 76 76 76 75 75 76 76 76 76 76 76 76 76 76 76 77 79 79 79 78 79 78 76 75 75 74 74 74 75 76 77 77 77 77 76 75 75 75
85 79 78 74 75 76 76 76 76 76 76 76 76 76 76 76 76 76 76 76 77 78 79 79 79 79 77 75 74 74 74 74 74 75 76 76 74 76 75 74 74 74 75
88 82 80 74 74 75 75 75 75 76 76 76 76 76 76 76 76 76 75 75 77 78 78 79 79 78 75 74 73 73 74 73 73 74 76 76 77 75 75 75 75 75 74
89 86 81 73 74 74 74 74 75 75 75 75 75 76 76 76 76 76 75 75 77 78 78 79 78 76 73 72 72 73 73 73 73 75 75 74 73 75 76 75 74 74 74
90 89 72 72 73 74 74 74 74 74 74 74 74 75 76 76 77 76 75 76 77 77 77 78 76 73 72 72 72 72 72 73 73 72 74 74 74 76 75 74 73 73 73
86 79 77 71 72 73 74 74 74 74 73 74 74 74 75 75 76 75 75 76 76 76 77 76 74 72 72 71 72 72 72 72 74 72 72 71 72 75 75 74 72 72 72
84 80 76 73 72 72 73 73 73 73 73 73 74 74 75 75 74 74 75 75 76 75 75 74 72 71 71 71 71 70 70 71 74 71 72 70 72 74 74 73 72 72 72
84 81 76 75 74 72 71 71 72 73 72 73 73 72 73 71 70 72 72 70 71 73 73 71 71 71 71 71 70 68 68 72 71 70 74 71 72 74 74 73 72 72 71
82 81 78 76 75 74 73 70 71 72 72 72 72 71 70 71 71 70 69 69 68 68 71 71 70 70 69 69 69 69 69 71 71 71 73 71 73 74 74 73 72 72 71
81 80 78 77 77 77 77 74 71 72 71 70 71 70 68 72 70 70 69 69 69 67 67 70 69 68 67 67 66 67 69 75 75 75 71 70 73 74 73 72 72 71 71
79 79 77 75 77 77 81 75 75 75 74 73 74 72 73 72 70 69 67 68 68 67 67 68 68 67 67 67 66 66 70 73 73 72 70 70 72 73 72 71 71 71 71
82 81 77 75 77 76 77 76 76 76 76 74 74 74 72 71 69 66 65 66 67 67 67 67 66 68 69 68 68 66 71 75 74 72 70 69 72 73 72 72 71 71 70
84 83 79 76 76 76 77 76 76 76 75 74 74 73 70 68 68 67 67 67 67 67 67 67 66 68 69 70 72 71 73 74 71 70 68 68 70 72 72 72 72 72 70
85 83 82 78 77 77 76 75 75 76 74 73 73 73 72 69 68 69 69 68 68 68 67 66 66 67 68 70 72 72 71 74 72 70 67 67 68 70 72 72 72 71 70
85 84 82 80 79 77 74 72 72 73 74 74 72 72 72 70 68 70 69 69 68 67 67 65 65 66 65 67 68 70 72 72 72 69 67 65 66 68 70 71 72 72 71
86 87 80 78 77 74 73 72 71 72 72 73 72 72 72 71 69 69 68 68 67 68 66 65 64 64 64 66 68 71 72 72 70 69 68 66 65 65 67 70 70 70 71
86 84 82 79 75 73 73 71 72 70 70 69 70 70 71 72 70 68 66 66 67 65 64 64 63 63 63 64 69 69 71 69 68 71 69 68 66 68 65 66 67 69 69
88 83 80 76 74 74 74 71 70 69 69 68 68 69 70 71 70 67 67 67 65 64 63 63 63 63 62 63 69 68 68 66 67 72 69 68 67 67 66 64 65 65 67
88 85 79 76 73 74 72 69 68 66 68 68 67 66 68 68 68 67 65 65 65 63 63 63 62 62 62 65 72 69 67 66 66 65 70 69 67 66 66 65 62 63 64
82 82 78 74 72 73 68 67 66 63 65 65 66 66 67 67 67 66 64 64 64 63 63 63 61 61 61 65 63 63 64 65 66 65 66 67 68 68 66 65 65 65 63
81 81 77 75 74 74 71 70 70 69 67 67 67 67 67 67 67 65 64 63 63 62 62 62 61 60 61 64 63 60 55 59 63 65 63 66 68 68 70 68 67 67 65
79 79 78 75 75 74 73 72 70 69 67 67 65 65 66 67 66 65 64 63 62 62 61 62 61 61 59 61 67 62 55 53 56 60 60 61 63 63 65 67 69 68 67
79 79 79 77 76 74 74 71 67 65 64 66 65 66 67 67 66 65 63 63 63 62 61 61 62 61 60 61 63 68 65 62 55 52 59 62 63 65 63 67 65 66 68
79 78 78 76 75 74 74 71 68 65 67 67 66 65 65 64 65 65 63 62 61 61 61 61 61 61 60 61 63 62 63 62 64 57 53 57 60 63 63 63 64 63 66
80 78 77 75 74 74 73 70 68 67 67 66 64 63 62 61 61 62 62 61 62 61 60 60 61 61 61 61 63 63 63 60 61 58 58 58 59 61 64 63 62 62 64

GFSSE_sfc_temp_087.txt.gz
Temp
73 74 74 75 75 75 75 75 75 75 75 76 76 76 77 77 76 76 76 77 77 78 79 79 78 78 79 78 77 76 75 75 75 76 76 77 77 77 77 75 75 76 75
75 75 73 75 75 75 75 75 75 75 75 76 76 76 76 76 76 76 76 77 77 78 79 78 78 78 77 77 75 75 74 74 74 75 76 77 77 77 77 75 74 74 75
75 75 75 74 75 75 75 75 75 75 76 76 76 76 76 76 76 76 76 76 77 78 79 78 78 78 76 75 74 74 74 74 74 74 74 72 75 77 76 74 74 74 75
76 74 74 73 74 75 75 75 75 76 76 76 76 76 76 76 76 75 75 75 77 78 78 79 79 77 75 74 73 73 74 73 73 74 73 74 76 76 75 75 75 75 75
76 76 75 73 73 74 74 74 74 75 75 75 75 76 76 76 76 75 75 75 77 77 78 79 78 76 73 72 72 73 73 73 72 72 69 70 72 75 75 75 74 74 73
79 77 71 72 73 73 74 74 74 74 73 74 74 75 76 76 76 75 75 75 77 77 78 78 76 73 72 72 72 73 72 72 71 69 70 72 72 75 75 73 73 73 73
74 73 72 71 72 73 73 74 74 73 73 73 74 74 75 75 76 75 74 75 76 76 76 76 74 72 72 71 72 72 71 71 71 69 68 68 72 75 75 73 73 72 72
72 72 72 72 72 72 73 73 72 73 73 73 73 74 74 74 74 74 74 73 75 74 73 74 72 72 71 71 71 71 69 72 71 69 69 69 73 74 74 73 72 71 71
73 71 69 70 72 71 70 71 71 72 72 72 72 73 73 72 71 72 72 71 69 69 69 71 71 71 71 71 70 69 69 69 68 69 71 70 73 74 74 73 72 71 71
72 70 69 68 69 68 68 70 71 71 71 72 72 71 71 70 72 70 70 70 70 69 68 69 69 71 71 69 69 67 68 69 70 68 68 71 73 74 74 73 72 72 71
73 71 70 69 69 68 68 70 71 71 71 71 71 69 68 68 68 69 67 68 69 67 68 68 68 68 67 68 67 68 67 66 67 68 68 70 73 74 74 72 72 71 71
71 70 71 70 70 70 73 68 68 70 68 68 69 67 68 67 66 67 66 68 68 68 68 68 67 67 66 65 64 66 64 68 67 68 69 70 73 75 74 72 71 71 71
74 73 71 71 70 70 70 68 68 68 68 68 68 67 67 67 66 67 66 67 66 67 66 67 66 66 66 65 64 64 64 70 66 68 69 69 72 74 73 72 72 71 71
75 74 72 73 71 70 68 69 69 69 68 68 68 68 67 66 64 64 63 63 65 66 66 66 65 66 66 66 66 65 65 69 67 68 69 68 70 73 73 73 72 71 71
73 75 72 72 71 71 68 67 67 68 69 68 67 68 67 65 65 64 62 63 65 66 66 65 65 65 66 67 68 67 66 68 67 68 67 66 68 71 72 72 72 72 71
76 75 73 72 73 72 68 67 66 67 67 67 67 68 67 66 65 65 64 64 64 65 66 66 65 64 65 66 66 66 67 67 67 66 65 66 66 68 70 72 72 72 71
76 75 72 72 72 71 68 67 66 66 67 66 67 67 67 67 66 64 64 65 65 65 65 64 63 63 64 65 64 65 69 67 66 65 64 64 65 65 66 69 70 70 71
76 74 74 75 71 69 67 66 65 65 65 65 65 66 67 66 68 66 64 64 64 64 64 63 63 62 63 63 62 63 69 68 67 64 64 64 62 63 64 66 68 68 69
75 73 74 72 69 68 67 66 64 66 64 64 64 65 66 66 65 64 64 63 64 64 63 62 61 63 62 62 62 62 66 66 66 67 64 63 61 61 61 64 65 65 67
77 73 74 72 69 67 66 64 63 66 65 63 63 64 68 66 66 63 62 62 63 62 61 61 62 62 62 62 64 64 66 65 65 64 63 65 63 63 62 62 62 62 64
75 73 72 70 68 67 65 62 62 62 64 62 62 63 64 64 64 62 62 64 63 62 62 62 62 61 61 61 59 60 62 63 62 63 64 64 63 64 62 62 62 60 62
71 72 71 70 68 66 66 65 61 60 64 61 61 62 66 63 63 62 63 63 62 62 62 62 61 60 60 61 59 62 55 59 61 60 64 65 62 64 63 63 62 61 61
72 71 69 69 69 66 65 65 63 61 60 59 60 61 64 65 63 63 63 63 63 63 62 61 62 61 59 60 61 62 55 53 57 58 59 62 63 63 64 64 63 63 62
71 72 70 69 69 67 66 64 63 62 59 59 61 63 61 62 63 63 63 63 63 63 62 62 62 61 60 59 60 66 63 60 56 52 56 59 59 63 61 63 63 64 64
74 71 70 69 69 69 67 65 62 59 59 59 60 60 61 62 62 62 62 62 62 62 62 62 61 60 61 60 60 61 60 60 59 54 51 54 56 59 60 61 63 63 65
72 72 70 68 69 68 67 65 63 60 60 59 59 59 59 60 61 61 62 62 62 62 61 62 62 61 60 60 60 61 61 58 58 56 52 53 58 55 59 59 59 60 61

GFSSE_sfc_temp_090.txt.gz
Temp
71 73 74 75 75 75 75 74 74 75 75 76 76 76 77 77 76 76 76 77 77 78 79 79 78 79 79 78 77 77 76 76 76 76 76 77 77 77 76 75 75 75 75
73 74 73 74 75 75 75 74 74 75 75 76 76 76 76 76 76 76 76 76 77 78 79 78 78 79 78 77 75 75 75 74 74 74 76 77 77 77 76 75 74 74 75
72 74 74 73 75 75 75 75 75 75 76 76 76 76 76 76 76 76 76 76 77 78 79 79 78 78 77 75 74 74 74 74 74 74 75 72 74 76 75 74 74 74 75
74 73 73 73 74 74 74 74 75 75 75 75 75 75 76 76 75 75 75 75 77 78 78 79 78 77 75 73 73 73 73 73 72 73 72 72 75 76 75 75 75 75 75
73 74 74 73 73 74 74 74 74 74 74 75 75 75 76 76 76 75 75 75 77 78 78 79 78 75 73 72 72 73 73 72 72 71 67 70 72 75 76 75 74 74 73
73 74 71 71 72 73 74 74 74 73 73 73 74 75 75 76 76 75 74 75 77 77 78 78 76 73 72 72 72 72 72 71 70 68 69 72 72 75 75 73 73 73 73
72 71 71 70 72 73 73 73 73 73 73 73 73 74 75 75 75 75 74 75 76 75 76 76 75 72 72 72 72 72 70 70 69 68 68 69 71 75 75 73 73 73 73
70 70 70 72 72 72 72 72 72 72 72 72 73 73 74 74 74 74 74 73 73 73 72 73 71 72 71 72 72 70 69 70 69 67 68 68 73 74 74 74 72 72 72
70 69 69 70 71 70 70 70 70 71 71 72 72 72 73 72 72 73 73 73 72 71 71 71 70 71 72 70 70 69 68 69 67 67 70 70 73 74 74 73 72 72 72
70 69 68 68 68 68 69 69 70 70 70 71 71 71 71 71 72 72 71 71 70 70 70 70 69 69 72 70 69 68 68 68 68 68 68 70 73 74 74 73 72 72 71
68 67 68 67 67 67 67 69 70 71 70 70 70 70 68 69 69 69 69 70 68 69 69 69 69 68 68 68 67 68 67 66 66 67 66 70 73 74 73 73 72 72 71
67 67 67 67 67 67 70 67 67 69 68 68 68 68 67 66 66 67 67 68 67 67 68 68 68 67 66 66 66 66 64 64 65 66 68 70 73 74 74 72 71 71 71
70 68 68 68 68 68 69 66 66 68 67 66 66 66 65 66 67 65 64 66 65 67 65 66 66 66 66 65 65 63 64 66 64 64 68 68 72 74 74 72 72 72 71
69 70 69 69 69 69 68 67 66 67 66 66 66 66 66 66 66 65 66 66 65 64 64 64 64 66 65 65 65 63 64 66 65 64 66 67 70 73 74 73 72 72 70
70 70 70 70 70 70 68 67 67 67 67 66 65 67 67 66 64 65 64 66 65 66 66 63 64 65 65 65 64 64 64 65 66 66 66 66 68 71 73 74 73 72 71
72 71 70 70 71 71 68 68 67 67 67 66 65 66 66 65 63 63 62 64 66 66 66 64 63 64 65 65 64 65 65 65 65 65 65 65 66 68 71 73 73 72 72
69 73 70 70 70 70 68 68 67 66 66 66 66 66 66 64 64 63 62 62 64 66 65 65 63 63 63 64 63 63 64 65 64 64 64 64 64 64 67 70 71 72 71
73 71 71 72 70 69 69 68 66 65 66 66 66 66 66 65 65 64 63 62 63 65 65 64 63 62 61 62 62 62 63 64 64 64 63 63 61 63 64 66 68 69 69
74 68 70 71 69 69 67 68 66 65 64 64 65 65 65 65 65 64 63 64 63 64 64 63 62 62 61 61 62 62 62 63 63 65 62 62 60 60 60 64 64 65 66
77 69 71 71 69 68 67 65 64 64 64 65 64 65 65 65 64 64 63 63 64 64 63 62 61 61 61 62 64 62 60 64 64 62 62 63 60 60 59 61 63 63 64
74 68 71 69 67 67 65 63 63 63 63 62 63 63 64 64 64 64 62 63 64 62 62 61 61 60 60 62 61 58 58 62 63 62 61 61 60 61 59 60 60 59 63
67 70 70 68 66 68 66 67 64 63 62 64 61 61 62 62 63 63 63 62 63 61 62 61 61 60 60 61 58 57 53 55 58 61 60 60 59 61 60 60 60 59 59
63 67 69 68 67 68 66 62 61 59 59 61 61 59 61 62 62 62 63 63 63 62 61 62 61 61 59 59 60 57 53 52 56 56 56 60 57 58 60 61 61 61 59
62 70 70 69 68 66 64 63 62 62 60 62 63 59 60 61 61 62 63 63 63 63 62 61 61 61 62 58 58 60 59 58 55 50 55 57 60 59 58 59 60 60 60
63 69 70 68 66 65 65 63 62 60 59 59 59 59 59 59 60 62 63 63 62 62 62 62 61 61 61 60 59 58 58 58 57 56 52 53 55 61 61 59 60 60 61
54 65 68 67 65 65 65 63 62 60 58 59 59 58 60 60 60 61 62 62 62 62 62 62 62 61 61 61 60 59 59 58 57 55 53 53 56 55 57 59 59 60 61

GFSSE_sfc_temp_093.txt.gz
Temp
70 72 73 74 75 75 74 74 75 75 75 76 77 77 76 77 77 76 76 77 77 78 79 79 78 78 79 79 78 77 76 76 76 76 76 77 77 77 76 75 75 75 75
72 73 73 74 75 75 75 75 75 75 76 76 76 76 76 76 76 76 76 77 77 78 79 78 78 79 79 77 76 75 75 74 74 75 76 77 77 77 76 74 74 74 75
72 73 73 73 74 75 75 75 75 75 76 76 76 76 76 76 76 76 76 76 77 78 79 78 79 78 78 76 75 75 74 74 74 74 75 72 74 77 75 74 74 75 75
73 73 73 73 74 74 74 74 75 76 76 76 76 76 76 76 76 75 75 75 77 78 79 78 78 77 75 74 73 73 73 73 73 73 71 72 75 76 76 75 75 75 75
73 73 73 73 73 74 74 74 74 75 75 75 75 75 75 76 76 75 75 75 77 77 78 79 79 77 74 72 72 72 72 72 72 70 68 70 73 75 76 75 74 74 74
71 73 71 72 73 73 73 73 74 73 73 74 74 75 75 75 75 75 74 75 77 77 78 78 77 74 72 71 72 72 71 71 69 67 68 72 72 76 76 74 73 73 73
69 70 71 71 72 73 74 73 73 73 73 73 73 74 75 75 75 74 74 75 76 75 76 76 75 73 72 71 72 71 70 69 67 66 67 67 71 75 75 74 73 73 73
69 70 71 72 72 72 72 72 72 72 72 72 73 73 74 74 74 74 74 74 73 74 73 74 73 72 72 71 71 70 69 69 68 66 66 67 73 74 75 74 73 72 72
69 69 69 70 71 71 70 70 70 71 71 71 72 72 73 72 72 73 73 73 73 72 72 72 72 72 72 71 70 67 68 68 66 66 68 69 73 75 75 74 72 72 72
66 67 68 69 70 70 69 69 69 70 70 70 71 71 71 71 72 72 72 72 72 71 72 72 71 70 71 70 68 67 66 68 66 66 66 69 73 75 74 73 73 72 72
66 65 68 69 69 70 70 69 70 70 70 70 70 70 68 69 69 70 69 71 71 69 70 70 69 69 69 68 67 66 67 66 66 66 66 70 73 75 74 73 72 72 71
65 65 66 67 68 67 69 68 68 69 69 68 68 68 68 67 66 67 68 69 69 68 68 68 67 67 68 66 66 66 64 65 65 66 68 70 73 75 74 72 71 71 71
68 66 66 66 66 67 68 68 68 69 66 66 67 66 66 66 67 64 65 65 64 66 64 66 66 65 65 66 65 65 64 64 64 64 67 69 72 74 73 72 72 72 71
66 67 67 66 66 66 67 67 68 69 67 66 65 65 66 66 66 65 65 65 63 65 64 65 65 65 66 65 66 64 63 63 63 63 66 67 70 73 74 73 72 72 71
65 68 67 67 66 67 66 66 66 67 67 66 64 66 68 66 66 66 66 65 64 65 63 62 64 64 64 65 65 64 63 63 63 63 65 66 67 71 73 73 73 72 71
70 69 68 67 68 68 67 66 66 66 66 65 65 68 67 66 65 66 64 64 66 66 64 62 63 63 63 65 63 63 63 63 63 63 63 64 65 67 70 73 73 73 72
69 72 68 68 69 68 68 67 66 66 66 65 65 67 67 66 64 64 64 64 65 66 65 61 61 62 63 64 64 62 62 62 62 62 64 62 63 65 66 69 71 72 72
66 69 70 71 69 68 68 67 67 66 66 66 65 66 66 64 63 62 63 63 64 64 64 63 62 62 63 64 62 61 62 62 61 62 62 62 61 62 63 66 68 69 70
69 66 69 69 69 68 68 67 67 66 66 66 65 66 66 64 63 62 62 63 64 63 63 63 63 63 61 61 61 61 61 61 62 63 62 61 60 60 60 63 65 65 67
69 68 70 69 69 69 67 65 65 64 64 65 65 65 65 65 64 64 64 63 63 63 63 63 62 62 61 61 62 60 59 60 61 61 62 62 59 59 59 60 61 64 64
64 66 69 68 68 68 65 65 64 64 64 64 64 65 64 65 64 64 64 63 64 63 63 63 62 61 59 61 60 58 57 59 60 60 62 61 59 60 58 59 58 58 62
68 64 68 69 67 68 67 66 65 66 65 64 64 64 65 64 63 64 63 62 64 63 63 61 61 60 60 61 59 56 52 54 57 59 59 60 59 60 59 58 58 58 58
57 61 66 68 67 68 68 63 60 61 61 61 62 63 63 62 62 63 62 63 63 62 61 61 61 61 60 60 58 57 52 51 54 56 57 58 57 57 59 59 58 59 58
52 55 67 68 67 68 66 63 62 63 62 64 64 64 61 61 61 62 61 63 63 62 61 61 62 61 60 59 59 59 58 57 53 51 54 56 57 58 57 58 58 59 58
53 52 64 68 67 67 65 65 63 63 62 59 60 61 60 60 61 62 63 62 62 62 62 61 61 61 60 60 60 57 56 57 55 54 51 52 54 58 58 58 59 59 59
51 53 61 64 65 66 65 64 64 61 59 59 59 60 58 59 61 62 62 62 62 61 61 61 61 61 61 61 60 59 58 56 54 53 52 53 54 54 58 58 57 59 59

GFSSE_sfc_temp_096.txt.gz
Temp
69 72 74 74 74 74 74 74 75 75 76 76 76 77 77 77 77 76 76 76 77 78 79 79 78 79 79 79 78 77 76 76 76 76 76 77 77 77 76 75 75 76 76
71 72 73 74 74 75 75 74 74 75 76 76 76 76 77 77 76 76 76 76 77 78 79 79 78 79 79 77 76 76 75 75 75 75 76 77 77 77 76 75 74 75 75
71 72 73 74 74 74 75 75 75 76 76 76 76 76 76 76 76 76 76 76 77 78 79 79 79 79 78 76 75 74 74 74 74 74 75 73 75 77 76 74 74 75 75
72 72 72 73 74 74 74 74 75 76 76 76 76 76 76 76 76 76 76 76 77 78 79 79 79 78 76 74 74 74 74 73 73 73 72 72 76 76 76 75 75 75 75
71 72 72 72 73 74 74 74 74 75 75 75 75 76 76 76 76 76 75 76 77 78 79 79 78 76 74 73 73 73 73 72 72 71 70 71 74 75 76 76 75 74 74
70 71 71 72 72 73 74 74 74 74 74 74 74 75 76 76 76 75 75 76 77 78 78 78 78 74 73 72 72 72 71 71 70 69 69 72 73 76 76 74 73 73 73
70 70 71 71 72 73 74 74 73 73 73 73 74 74 75 75 75 74 74 74 76 77 77 77 76 73 72 72 71 71 70 70 69 68 68 70 72 76 76 74 73 73 73
70 70 71 72 72 72 72 72 72 72 72 72 73 73 74 74 74 74 74 74 74 75 74 74 73 72 72 71 71 70 69 70 69 67 67 68 73 75 75 74 73 72 72
68 69 70 72 72 71 70 70 70 71 71 72 72 72 73 72 72 73 73 73 74 73 73 73 72 71 72 71 69 68 68 68 67 67 68 68 74 75 75 74 73 72 72
67 70 70 71 71 70 70 69 70 70 70 71 71 71 71 71 72 72 72 73 72 72 72 72 72 71 71 69 68 67 68 68 67 66 67 69 73 75 75 74 73 72 72
65 66 69 70 71 71 71 69 70 71 70 70 70 70 68 69 69 70 70 71 71 70 70 71 70 70 69 68 67 67 67 66 65 65 66 70 73 75 74 73 73 72 72
63 65 69 69 69 71 71 70 69 71 71 71 71 69 68 67 67 68 68 69 69 69 69 68 69 68 68 66 66 67 66 66 65 65 66 69 73 75 74 73 72 72 71
66 65 66 68 69 68 69 69 69 70 70 69 68 67 66 67 67 65 66 65 65 67 66 66 65 64 64 65 65 65 65 65 65 65 66 69 72 75 74 73 72 72 71
68 66 66 65 67 68 69 69 70 70 68 68 67 66 67 67 67 65 66 63 63 63 64 64 64 63 63 65 65 65 64 65 65 64 65 66 71 74 74 73 73 72 71
64 67 67 65 65 66 67 68 69 70 69 68 67 66 69 67 67 66 65 65 62 63 64 64 65 65 64 65 65 65 64 64 64 64 65 64 67 72 73 74 73 73 72
65 67 68 67 67 65 66 66 67 68 69 67 67 68 68 68 67 66 66 65 65 65 64 64 64 64 65 65 64 64 63 63 64 64 65 65 65 67 71 73 73 73 72
65 69 67 67 67 66 66 65 65 66 67 66 67 68 68 67 66 66 64 64 64 65 63 60 62 63 62 63 63 63 63 63 63 63 64 64 65 64 65 69 71 72 72
63 63 68 69 67 67 67 67 65 65 65 65 66 67 67 67 66 64 63 64 64 64 64 62 62 63 63 62 62 62 62 62 62 62 63 64 63 65 64 66 68 70 70
63 63 64 67 67 68 67 67 66 65 65 65 66 67 66 66 65 64 63 63 64 63 63 63 62 63 62 62 62 62 61 61 62 63 62 62 63 62 63 64 65 65 68
62 62 66 67 67 68 68 67 67 66 66 66 65 66 66 65 64 63 63 63 63 63 62 63 62 62 62 62 62 61 61 61 62 61 62 62 62 61 62 63 63 64 64
54 57 62 63 66 68 68 66 65 65 66 66 66 66 66 65 65 64 63 62 63 62 62 62 62 61 60 62 60 58 58 60 61 61 61 60 60 60 61 61 61 62 64
52 53 55 63 66 67 69 68 66 66 66 66 66 66 66 65 65 64 63 63 62 62 62 62 62 60 61 62 59 57 53 55 58 60 60 60 59 60 60 60 59 59 61
51 51 53 53 66 67 68 68 62 63 62 61 63 63 64 65 64 64 64 63 62 63 62 62 61 61 59 61 60 57 52 52 54 56 58 59 58 59 60 60 59 60 59
52 51 52 55 58 67 68 67 65 65 63 65 63 63 63 64 63 64 64 63 63 63 62 62 62 61 60 59 59 59 58 57 54 51 55 56 57 58 58 59 59 59 59
52 50 53 55 58 67 67 67 64 64 64 63 64 64 63 62 63 63 62 63 63 63 63 61 61 61 61 60 60 58 57 57 56 54 52 52 55 56 58 58 59 60 59
49 49 51 53 60 65 68 66 63 64 59 61 62 61 62 61 62 62 62 62 63 62 61 61 61 61 60 61 60 60 60 56 55 54 53 54 55 54 58 59 58 59 59

GFSSE_sfc_temp_099.txt.gz
Temp
79 82 74 75 75 75 75 75 75 75 76 77 77 77 77 77 77 76 76 76 77 78 80 79 78 78 79 79 78 77 77 76 76 76 76 77 77 77 76 76 75 83 76
80 80 73 74 75 75 75 75 75 75 76 77 77 77 77 77 76 76 76 76 77 78 79 79 78 79 79 78 76 76 76 75 75 75 76 77 77 77 76 75 76 80 76
80 79 78 73 74 75 75 75 75 76 76 76 77 77 77 76 76 76 76 76 77 78 79 79 79 79 78 76 75 75 75 75 74 75 76 85 83 77 76 75 75 75 75
80 80 80 73 74 74 74 75 75 76 76 76 76 76 76 76 76 76 76 76 77 78 79 79 79 78 76 75 74 74 74 74 74 74 82 83 83 76 76 75 75 76 75
80 80 80 73 73 74 74 74 75 75 75 75 75 76 76 76 76 76 75 75 77 78 79 79 79 77 75 73 73 73 73 73 72 76 81 82 81 78 76 76 75 75 75
79 80 74 72 73 73 74 74 74 74 74 74 75 75 76 76 76 75 75 76 77 78 78 79 77 75 73 72 72 72 72 72 72 80 81 79 78 76 76 75 74 74 73
78 79 77 71 72 73 74 74 74 73 73 74 74 75 75 76 76 75 74 75 76 77 77 77 75 74 73 72 72 71 71 70 80 79 81 80 77 76 76 74 73 73 73
76 77 78 73 72 72 73 73 72 72 73 73 73 74 75 75 74 74 74 74 74 75 75 75 74 73 72 72 71 70 69 70 76 77 79 81 75 75 76 74 73 73 73
75 75 76 77 75 71 70 70 70 71 72 72 72 73 73 73 73 73 74 73 74 73 73 73 73 72 72 71 70 69 69 69 74 75 77 80 74 75 75 74 73 72 72
73 74 75 75 74 75 76 69 70 70 70 71 71 71 71 71 72 72 72 73 73 72 73 71 71 71 71 70 69 68 68 68 72 74 75 80 73 75 75 74 73 72 72
72 71 73 73 74 74 75 75 71 71 70 70 72 70 70 79 78 78 74 72 71 70 71 70 71 70 69 68 68 68 68 72 70 69 75 71 73 75 75 74 72 72 72
72 69 71 71 71 73 74 73 75 76 76 76 76 76 77 77 78 77 74 70 69 69 69 69 69 69 68 76 75 69 75 73 71 68 75 68 73 75 75 73 72 72 71
76 74 71 70 71 71 71 72 73 74 74 73 73 73 74 75 76 77 76 77 77 71 76 72 74 76 76 76 76 75 73 73 69 69 73 67 73 75 75 73 72 72 72
76 78 75 73 70 69 71 71 73 72 72 71 71 71 71 71 73 74 74 75 76 75 71 75 73 74 74 75 75 74 73 71 67 68 71 66 71 74 74 74 73 72 71
75 78 76 73 71 71 69 70 71 72 72 71 70 71 73 71 71 71 71 72 75 75 72 71 71 73 73 74 74 73 73 70 66 67 69 66 67 72 74 75 74 73 72
75 76 76 74 73 72 72 70 70 72 73 71 69 71 72 72 70 70 68 69 70 71 70 69 68 70 72 72 70 70 70 69 65 65 66 68 64 68 71 73 73 73 73
72 74 74 74 75 72 72 72 71 71 72 71 70 70 71 71 70 69 69 68 69 69 68 66 66 66 68 71 71 67 69 66 63 64 65 66 67 64 66 68 71 73 73
69 68 70 74 74 72 72 70 71 70 70 69 69 70 71 70 69 68 68 68 70 67 66 64 64 64 66 65 64 64 69 65 64 63 64 65 73 76 66 66 67 70 70
66 64 66 69 72 73 72 73 72 71 69 69 69 69 69 69 68 67 68 68 69 67 66 64 64 65 64 64 65 65 65 65 64 63 63 64 71 75 76 65 64 66 68
64 63 63 66 68 73 73 71 71 69 71 71 69 69 70 69 67 66 66 66 68 67 65 64 63 64 65 64 65 64 65 65 64 63 62 63 64 71 74 74 73 72 64
62 62 62 61 64 70 71 70 67 66 68 69 70 69 69 68 66 65 65 66 66 65 65 64 63 64 62 64 61 60 60 62 62 63 63 62 61 62 67 74 75 75 71
59 60 59 60 62 64 73 74 72 69 68 70 69 67 68 67 66 65 65 65 65 64 64 64 63 61 62 63 59 58 55 56 59 62 62 62 62 62 62 69 73 73 74
57 57 58 58 59 61 64 74 72 69 67 65 66 65 67 68 66 65 66 65 64 65 63 64 64 62 60 62 62 59 53 53 55 58 60 62 61 60 62 65 70 71 72
55 55 54 56 58 61 64 70 70 67 66 69 69 67 65 65 64 64 65 66 65 64 64 64 65 63 62 60 61 65 63 63 57 53 57 59 60 60 60 64 69 70 72
52 51 51 53 55 58 63 68 71 67 70 72 70 65 64 66 64 62 62 64 64 64 65 66 63 62 62 61 60 59 59 60 62 59 54 55 57 60 60 62 66 69 70
49 49 49 50 51 55 62 67 69 68 69 67 67 64 67 66 63 64 64 64 64 64 65 66 64 63 62 62 62 60 60 59 60 62 58 57 56 56 58 58 60 64 68

GFSSE_sfc_temp_102.txt.gz
Temp
92 93 74 75 76 76 76 75 75 76 77 77 77 77 77 77 77 76 76 77 77 79 80 79 79 79 79 79 78 77 77 77 76 76 76 77 78 77 77 76 76 86 76
94 91 73 75 75 76 76 75 75 76 77 77 77 77 77 77 77 76 76 77 77 79 80 80 79 79 79 78 77 77 76 76 75 75 76 77 77 77 77 76 77 82 76
90 89 81 74 75 75 76 76 76 77 77 77 77 77 77 77 76 76 76 76 77 79 79 79 79 79 79 77 76 76 76 75 75 75 76 88 86 77 77 76 75 76 76
92 90 87 73 75 75 75 75 76 77 77 77 77 77 77 77 76 76 76 76 77 79 79 79 80 79 77 76 75 75 75 74 74 74 86 91 86 76 76 76 76 76 76
91 91 90 73 74 74 75 75 75 76 76 76 76 77 77 76 76 76 75 76 77 78 79 79 79 77 75 74 74 74 74 74 73 77 91 90 88 79 76 76 75 75 75
90 92 78 72 73 74 74 75 75 75 74 74 75 76 77 77 77 76 75 76 77 78 79 79 78 75 74 73 73 73 73 72 72 90 91 85 87 77 77 75 75 75 74
88 89 87 71 72 74 74 74 74 74 74 74 74 75 76 76 76 75 75 76 76 77 77 77 76 74 73 73 73 72 71 71 86 90 90 86 84 77 76 76 74 74 73
86 86 86 75 72 73 73 73 73 73 73 73 74 74 75 75 75 75 75 74 75 75 75 75 74 73 73 72 72 71 70 71 83 89 89 84 77 76 76 75 73 73 73
84 84 83 83 79 71 71 71 71 72 72 73 73 73 74 73 73 74 74 74 74 74 74 74 73 73 72 72 71 69 69 71 87 88 84 85 74 75 76 74 73 73 73
82 82 81 81 79 82 82 70 70 71 71 71 72 72 72 72 73 73 73 73 74 73 73 72 71 72 72 71 70 68 68 70 83 82 81 83 74 75 76 74 73 73 72
82 82 79 78 77 78 82 81 72 71 71 71 73 71 72 84 83 81 77 73 73 71 72 71 70 71 70 70 69 68 68 83 82 83 81 73 74 75 76 74 73 72 72
82 81 82 79 76 76 77 78 81 84 83 83 83 82 83 84 85 85 79 71 71 70 70 70 69 69 70 81 80 70 81 85 80 81 83 69 73 75 74 72 72 72 72
85 85 84 81 81 79 77 79 77 79 81 81 83 84 83 85 85 84 85 82 81 73 83 78 78 80 81 81 80 82 83 81 82 82 81 67 71 75 74 72 72 71 71
87 87 86 84 81 80 81 79 78 76 77 76 76 76 79 79 84 84 84 84 81 83 82 83 83 82 81 81 81 80 79 82 85 83 80 67 66 74 73 72 73 73 71
85 86 87 85 82 82 79 81 81 77 79 80 77 76 76 77 78 83 83 83 81 83 81 81 80 79 79 78 79 78 78 80 81 81 79 67 66 70 72 73 74 73 72
82 83 83 85 85 83 81 80 81 81 83 78 76 75 74 77 79 76 76 77 83 81 79 79 77 79 78 77 75 75 77 78 80 78 73 76 64 67 69 73 74 74 73
80 81 79 79 82 82 81 81 81 83 81 83 77 74 74 75 77 77 75 76 77 80 77 76 74 76 75 76 75 74 76 75 76 76 72 69 74 63 66 69 72 73 72
78 77 77 79 78 79 81 82 83 83 82 83 82 76 75 74 76 74 74 74 73 74 72 71 70 68 68 73 73 73 75 74 72 74 69 66 72 67 64 64 68 70 71
76 74 74 75 75 75 78 81 81 81 80 82 82 80 77 74 75 74 74 74 72 70 71 69 67 68 67 72 74 73 73 69 69 70 65 66 67 66 67 64 64 65 67
74 73 73 74 73 73 75 79 81 81 77 80 80 80 78 75 73 73 73 72 71 69 70 69 68 67 68 68 67 65 66 70 71 68 65 64 65 65 68 71 70 71 64
72 70 70 70 71 72 73 76 79 78 76 78 81 80 78 76 73 72 72 70 69 69 69 68 67 65 65 67 64 62 63 66 67 65 66 64 63 64 66 74 74 78 74
68 68 67 68 68 69 71 73 78 80 80 78 80 79 77 74 73 72 69 68 68 68 68 68 69 63 65 66 61 60 56 58 64 65 65 64 63 62 66 71 76 77 75
65 65 64 65 65 66 67 70 73 78 80 75 74 73 75 74 72 71 69 67 67 68 68 69 67 65 61 63 66 64 56 57 58 62 63 65 62 61 62 63 64 74 76
62 62 59 60 61 62 64 66 69 73 76 78 76 72 71 70 69 69 67 67 66 67 67 68 68 68 66 61 63 67 72 66 60 54 58 62 65 62 62 61 62 65 73
60 57 54 54 56 56 57 58 64 69 77 80 77 70 68 67 67 68 66 67 65 66 66 67 69 70 68 64 62 63 65 66 69 64 55 56 60 62 65 64 64 65 67
59 56 51 50 50 52 54 56 58 66 72 78 76 68 66 65 66 67 68 68 67 66 66 65 67 70 69 66 64 63 65 64 65 62 61 59 58 58 62 62 62 65 65

GFSSE_sfc_temp_105.txt.gz
Temp
100 89 75 76 76 76 76 76 76 76 76 77 77 77 77 77 77 76 76 77 77 79 80 80 79 79 79 79 79 78 78 77 76 76 77 77 78 78 77 76 76 83 76
98 89 74 75 76 76 76 76 76 76 77 77 77 76 76 77 76 76 76 77 77 79 80 80 79 79 79 79 78 77 77 76 75 76 76 78 78 77 77 76 77 80 76
95 91 83 74 75 76 76 76 76 76 77 77 77 76 76 76 76 76 76 76 77 79 80 80 79 79 79 78 76 76 76 75 75 75 76 87 85 77 78 76 76 76 76
97 96 88 74 75 75 75 76 76 77 77 77 77 76 76 76 76 76 76 76 77 79 80 80 79 79 78 76 75 75 75 75 74 75 83 86 86 77 77 76 76 76 76
96 97 91 74 74 75 75 75 75 76 76 76 76 77 76 76 76 76 76 76 77 79 79 80 80 78 76 75 74 74 74 74 74 77 89 78 86 79 77 76 75 75 75
95 96 78 73 73 74 75 75 75 75 75 75 76 76 76 76 76 76 75 76 78 78 79 79 79 76 75 74 74 74 73 73 72 86 85 83 87 77 77 76 76 76 74
92 94 83 72 73 74 74 75 75 74 74 74 75 75 76 76 76 75 75 76 77 78 78 77 76 75 74 73 73 73 72 72 83 88 85 85 83 76 77 75 75 74 74
89 91 86 74 73 73 73 74 73 73 73 74 74 75 75 75 75 75 75 75 76 76 75 76 74 74 73 73 73 72 71 71 81 84 87 86 76 76 77 76 74 74 73
88 88 89 83 78 72 72 72 71 72 73 73 73 74 74 74 73 74 74 75 75 74 74 74 73 73 73 72 72 70 69 71 85 86 86 87 74 76 77 75 74 73 73
88 85 87 85 83 82 81 71 71 71 72 72 73 72 72 72 73 73 73 74 74 74 73 74 73 72 72 71 70 69 69 69 82 83 89 88 74 76 76 75 74 73 72
87 84 82 82 82 83 85 80 72 72 72 72 73 72 72 83 82 81 77 74 73 72 72 71 70 71 71 70 70 69 69 81 83 86 87 73 75 76 76 74 73 72 72
88 85 82 78 78 79 85 84 83 83 83 82 83 82 82 84 86 86 80 72 72 71 71 70 70 69 70 83 79 70 77 83 83 82 82 70 74 76 76 74 72 72 72
90 89 88 83 81 80 81 81 82 87 85 85 84 84 83 85 86 86 87 82 82 73 82 77 78 80 81 83 81 80 80 83 81 82 82 69 72 76 76 74 73 72 72
90 91 89 89 84 82 86 83 85 86 84 87 86 85 85 85 86 86 87 85 81 83 82 83 82 80 80 80 81 80 80 80 84 80 70 67 68 73 76 74 71 73 72
88 89 89 90 87 85 83 86 85 85 85 84 82 82 86 87 85 87 87 88 85 82 83 84 78 79 80 79 79 80 80 78 81 76 77 67 66 67 74 74 73 74 73
85 85 85 85 86 87 85 83 84 85 86 84 85 79 78 81 81 85 86 87 86 85 81 83 83 78 78 79 77 78 78 78 78 78 82 77 65 65 71 73 72 73 73
85 85 82 82 83 82 85 85 84 85 85 86 86 83 76 77 80 83 80 79 84 86 80 77 79 80 78 78 76 77 79 77 76 77 76 80 74 63 65 70 69 69 73
82 80 81 82 80 79 79 82 85 86 85 85 87 85 80 79 81 81 82 76 79 83 80 77 78 76 76 75 75 75 75 75 75 76 74 75 75 75 65 65 64 66 71
81 79 78 78 78 77 77 78 81 83 85 86 87 87 82 80 81 80 81 76 79 80 76 74 76 75 74 76 75 75 74 74 74 76 74 74 71 72 71 65 63 64 65
79 78 77 77 76 76 77 77 79 82 84 86 86 87 84 81 80 78 78 75 75 73 73 71 69 72 71 73 75 70 72 74 74 70 71 71 70 71 69 69 65 64 63
76 75 74 72 73 74 74 75 77 78 83 85 85 85 84 82 79 76 76 75 75 71 74 69 69 69 67 70 66 65 67 71 69 71 70 70 67 64 66 65 65 65 66
71 71 70 70 71 71 72 73 74 76 80 84 85 83 83 79 76 73 74 75 74 71 73 69 69 66 67 67 63 62 57 59 64 70 70 68 65 63 63 65 65 66 70
69 67 67 66 66 68 68 69 71 74 75 76 81 81 82 81 78 73 74 74 71 71 69 68 70 67 65 65 67 65 57 57 59 65 67 67 65 64 64 62 63 66 71
68 67 65 64 64 65 65 64 62 66 71 79 81 83 80 80 75 73 74 72 70 71 69 69 70 69 70 63 65 69 73 72 64 56 62 65 65 64 63 62 62 63 64
67 65 63 62 61 62 61 59 57 58 66 74 78 82 80 77 74 74 73 71 68 69 68 68 69 70 72 67 65 63 69 69 70 67 57 59 62 64 65 63 62 62 63
65 63 60 59 58 58 54 53 52 53 57 66 75 79 80 76 71 70 69 69 69 70 67 66 68 71 72 71 69 67 67 65 65 66 64 62 60 61 63 63 64 64 63

GFSSE_sfc_temp_108.txt.gz
Temp
90 81 75 76 76 76 76 76 76 76 76 76 76 76 76 77 76 76 76 77 77 79 80 79 79 79 79 79 78 77 77 77 76 76 76 77 78 77 77 76 77 78 76
90 83 74 75 76 76 76 76 76 76 76 77 76 76 76 76 76 76 76 77 77 79 80 79 79 79 79 79 77 77 76 76 75 75 76 77 77 77 77 77 77 76 76
89 84 79 75 76 76 76 76 76 77 77 77 76 76 76 76 76 76 76 76 77 79 79 79 79 79 79 77 76 76 76 75 75 75 76 77 77 77 77 76 75 75 76
94 86 84 74 75 75 75 76 76 77 77 77 76 76 76 76 76 76 76 76 77 79 79 79 79 79 78 76 75 75 75 75 74 74 75 80 80 77 77 76 76 76 75
95 90 87 74 74 75 75 75 75 76 76 76 76 76 76 76 76 76 75 76 77 79 79 80 79 78 76 75 74 74 74 74 73 75 76 73 74 77 77 76 75 75 75
92 95 74 73 74 74 75 75 75 75 75 75 75 76 76 76 76 76 75 76 77 79 79 79 78 77 74 74 74 74 73 73 72 75 73 73 71 76 76 76 75 75 74
88 81 79 72 73 74 75 75 75 74 74 74 75 75 76 76 76 75 75 75 76 77 78 77 77 75 74 74 74 73 72 72 75 76 71 71 72 76 77 76 75 74 74
86 84 77 74 73 73 74 74 73 73 74 74 74 75 75 75 75 75 74 75 75 76 76 76 74 74 74 73 73 72 71 71 76 76 72 70 72 76 77 75 74 74 74
86 85 79 78 76 72 72 72 72 72 73 73 74 74 74 74 73 74 74 74 75 75 74 75 73 73 73 73 72 70 69 70 72 78 74 70 74 76 77 75 74 73 73
84 84 82 78 77 76 75 72 71 72 72 72 73 72 72 72 73 73 73 74 74 74 74 74 72 72 72 71 71 69 68 70 71 75 72 73 72 76 77 75 74 73 73
84 81 80 78 77 78 78 75 72 73 72 72 72 72 70 75 75 75 74 73 73 72 72 72 72 71 71 70 70 69 69 71 74 75 73 72 75 76 76 74 74 73 73
85 81 79 76 75 77 82 77 76 77 75 75 76 74 75 76 77 79 75 72 72 71 71 71 70 70 69 72 70 69 70 73 74 74 74 72 74 77 77 75 74 74 72
86 84 81 77 75 74 75 75 78 78 77 76 77 76 75 78 77 77 77 75 73 71 74 71 70 72 73 73 72 72 72 73 71 73 76 69 73 77 76 75 74 73 73
85 86 81 78 77 75 75 77 77 78 79 78 77 77 77 76 77 77 78 76 75 75 74 75 74 73 74 74 74 72 72 72 71 72 68 67 71 75 76 76 75 74 71
83 81 79 78 75 76 75 75 76 77 75 79 77 78 79 77 76 78 78 78 76 77 75 75 75 75 74 74 73 74 72 72 73 69 66 67 67 68 74 76 75 73 71
81 81 79 78 76 77 77 75 74 75 76 77 78 77 77 77 77 78 77 77 77 77 76 77 76 72 72 72 71 72 72 71 72 71 66 66 65 66 69 74 74 72 72
81 81 77 77 75 74 73 75 75 76 75 75 78 77 76 76 74 75 75 76 78 77 75 75 73 71 71 72 71 70 70 71 70 70 69 66 66 63 65 70 71 70 70
79 76 77 78 74 74 72 72 74 74 77 78 78 79 76 75 75 74 75 74 73 74 74 74 73 70 69 69 69 69 69 69 69 69 69 68 70 69 63 63 69 69 69
78 74 74 73 72 71 71 72 72 72 73 77 78 78 75 75 74 74 75 75 74 73 71 73 71 71 68 67 70 70 70 67 67 70 68 67 67 68 66 63 63 65 66
75 73 72 71 69 69 70 70 71 71 71 74 78 79 78 75 74 74 75 74 74 73 73 71 70 70 68 68 70 68 67 66 67 67 68 67 67 66 66 65 63 63 63
70 69 68 67 66 66 67 66 67 68 70 71 77 78 77 75 75 75 74 74 72 72 72 70 67 68 65 66 64 64 63 65 66 64 64 65 64 64 64 65 64 65 63
68 66 65 65 64 64 65 65 65 64 66 68 70 71 76 76 74 74 73 72 72 71 70 69 67 65 66 67 63 60 56 59 61 64 66 65 63 63 61 63 64 64 65
65 64 64 63 62 62 63 63 64 64 65 66 67 69 72 76 75 73 73 71 69 68 66 68 67 65 64 65 66 59 55 54 56 61 63 62 62 61 61 61 63 64 64
63 63 62 61 61 62 60 58 56 56 56 59 63 68 72 75 75 73 72 71 69 68 66 66 67 66 66 62 64 66 63 61 55 54 59 63 62 62 61 61 62 63 64
63 60 59 58 58 57 57 55 52 51 54 57 60 62 66 70 74 73 71 70 68 67 67 68 66 67 65 64 63 62 63 63 62 57 52 57 60 61 62 61 61 61 62
60 58 56 54 53 54 54 51 49 47 49 51 53 56 61 67 70 72 70 70 70 67 66 67 65 66 65 65 65 64 62 62 61 58 56 55 57 58 61 61 61 61 61

GFSSE_sfc_temp_111.txt.gz
Temp
77 75 74 75 76 75 75 75 75 75 76 76 76 76 77 77 76 76 76 77 77 79 79 79 79 79 79 79 78 77 76 75 75 76 76 77 77 78 77 76 76 77 76
78 76 73 75 75 76 76 75 75 75 76 76 76 76 76 76 76 76 76 77 77 79 79 79 79 79 79 78 77 76 76 75 75 75 76 76 77 78 77 76 76 76 76
78 77 76 74 75 76 76 76 75 76 76 76 76 76 76 76 76 76 76 76 77 78 79 79 79 79 78 77 75 75 75 75 74 75 75 72 74 77 77 76 75 75 76
81 77 76 74 75 75 75 75 75 76 76 76 76 76 76 76 76 76 75 75 77 78 79 79 79 79 77 75 75 75 75 74 73 74 73 75 77 76 77 76 75 76 76
82 80 78 73 74 75 75 75 75 75 75 75 75 76 76 76 76 76 75 75 77 78 79 79 79 78 76 74 74 74 74 73 72 74 70 71 73 77 76 76 75 75 75
81 82 73 72 73 74 75 75 75 74 74 74 75 75 76 76 76 75 75 75 77 78 79 79 77 76 74 73 73 73 73 73 72 72 70 73 70 74 77 75 75 74 74
78 76 74 72 72 74 74 75 74 74 73 73 74 74 75 76 75 75 74 75 76 77 77 77 76 75 73 73 73 73 72 71 72 69 69 68 68 73 74 75 75 74 74
77 75 73 73 73 73 73 73 73 73 73 73 73 74 75 74 74 74 74 74 75 75 75 75 74 73 73 73 72 71 70 70 73 70 69 70 70 72 73 76 74 73 73
76 74 72 72 73 72 72 72 71 72 72 73 73 73 73 73 73 73 74 74 74 74 74 74 73 72 73 72 71 70 69 69 69 68 71 69 72 73 77 76 74 73 73
76 73 72 71 71 70 70 71 71 71 72 72 72 72 72 72 72 73 72 73 73 73 73 73 72 72 72 71 70 69 68 68 69 68 69 69 72 73 77 75 75 73 73
75 74 73 72 72 71 70 72 71 72 71 71 72 71 70 72 72 72 72 72 73 72 72 72 71 70 70 70 70 69 68 68 69 69 67 70 73 74 77 74 73 73 73
70 72 72 72 72 73 76 70 69 72 70 70 71 71 72 71 72 74 72 71 71 71 71 71 70 69 69 68 68 69 67 68 69 69 68 69 73 76 77 75 73 73 73
73 74 72 72 72 73 74 70 70 71 70 70 70 70 71 72 72 72 72 72 70 71 70 70 69 68 68 68 68 67 67 68 67 69 69 69 74 76 77 75 74 74 73
71 72 72 72 71 70 72 72 72 71 71 70 71 70 70 70 70 72 72 71 70 71 70 69 69 68 69 70 70 68 68 68 67 68 67 68 70 75 77 76 75 74 73
69 70 70 71 71 72 71 70 72 71 71 72 72 73 74 72 72 71 73 72 72 71 70 70 70 70 70 70 70 69 69 68 69 67 66 66 66 72 75 77 76 75 73
70 68 68 68 68 70 68 68 68 68 69 70 70 72 75 74 73 72 71 72 72 73 72 72 71 70 70 70 69 69 69 68 69 67 65 64 65 67 70 74 76 75 73
68 69 68 68 67 66 70 66 64 66 70 68 69 71 73 73 71 74 72 71 73 74 72 72 69 69 69 69 69 68 68 68 68 67 65 64 64 64 65 69 72 73 73
67 66 67 70 65 64 64 64 66 65 64 66 70 69 71 73 70 69 68 68 70 73 72 71 71 67 68 67 65 66 66 67 67 67 65 64 64 66 63 64 68 70 70
65 65 64 63 63 63 63 63 63 64 64 64 65 68 69 72 73 71 69 68 69 67 70 71 68 70 67 66 66 65 65 65 66 66 65 65 65 65 64 62 63 65 67
63 63 63 62 61 61 61 61 61 61 63 64 65 68 70 69 71 70 71 71 68 68 66 66 69 67 69 67 68 65 64 66 66 64 64 65 66 65 64 63 62 63 64
61 60 59 58 57 58 57 56 58 57 60 61 64 66 66 68 70 71 71 70 71 70 71 68 67 67 63 65 62 61 60 64 64 64 66 64 64 64 63 63 62 62 63
57 57 57 56 55 56 56 56 55 56 57 60 62 64 65 66 65 70 70 70 70 68 68 67 67 63 63 65 61 60 57 58 61 64 64 63 63 62 61 62 63 64 64
54 53 54 54 54 54 54 54 54 54 54 55 57 58 60 63 64 66 70 70 69 68 68 65 64 64 61 62 62 58 54 53 54 57 61 63 62 61 59 60 61 63 65
52 53 52 52 52 54 52 50 47 46 46 50 51 55 56 59 60 63 67 70 69 67 65 64 60 61 59 61 61 64 59 57 53 54 56 59 62 61 61 60 61 61 64
52 49 50 51 51 51 50 48 46 44 46 49 50 50 52 55 58 61 63 67 69 66 65 61 60 62 65 63 61 63 62 59 57 54 53 56 60 62 61 61 61 62 61
49 47 47 48 49 49 48 47 45 44 45 45 46 47 50 52 53 57 61 64 68 68 65 64 63 64 63 64 65 65 64 61 60 57 53 52 56 59 60 61 61 61 61

GFSSE_sfc_temp_114.txt.gz
Temp
74 73 74 75 75 75 75 75 75 75 76 76 76 77 77 77 77 76 77 77 77 78 79 79 78 79 79 78 77 76 76 76 75 76 76 77 78 77 77 76 76 76 76
75 75 73 75 75 75 75 75 75 75 76 76 76 77 77 77 76 76 76 77 77 78 79 79 78 79 78 77 76 75 75 74 74 75 76 77 77 77 77 75 75 76 76
75 75 75 74 75 75 75 75 75 76 76 76 76 76 76 76 76 76 76 76 77 78 79 79 79 79 78 76 75 75 74 74 74 74 75 72 74 77 77 75 75 75 75
77 75 75 74 74 75 75 75 75 76 76 76 76 76 76 76 76 76 75 75 77 78 78 79 79 78 77 75 75 74 74 74 73 74 72 73 76 77 77 75 75 76 75
77 76 76 73 73 74 74 75 75 75 75 75 75 76 76 76 76 76 75 75 77 77 78 79 79 77 75 73 73 74 74 73 72 73 70 71 72 76 77 76 75 75 74
77 78 73 72 73 74 74 74 74 74 73 74 74 75 76 76 76 75 75 75 77 77 78 78 77 76 73 73 73 73 73 72 71 70 69 71 72 77 76 75 75 74 73
75 76 73 71 72 74 74 74 74 73 73 73 74 74 75 75 75 75 74 75 76 77 77 77 76 74 73 73 73 72 71 71 71 68 68 68 68 75 76 75 74 74 73
73 73 73 72 72 73 73 73 72 72 73 73 73 73 74 74 74 74 74 74 74 75 75 75 74 73 73 72 72 71 70 70 71 68 68 67 69 75 76 75 74 73 73
73 71 71 71 73 71 71 71 71 71 72 72 72 72 73 73 72 73 73 74 74 73 73 73 73 72 72 72 71 70 69 69 68 68 69 67 71 74 75 76 74 74 73
71 70 70 70 71 70 70 70 70 70 71 71 71 71 71 71 72 72 72 73 73 73 72 73 72 71 71 71 70 69 68 68 67 68 68 68 71 74 75 76 75 74 73
71 70 69 69 70 69 70 71 71 71 71 70 71 71 70 72 72 72 71 71 72 71 71 71 71 70 70 70 69 68 68 68 68 67 67 69 71 75 76 75 74 74 73
70 70 70 70 69 69 73 70 69 71 71 71 72 72 73 72 71 72 71 70 71 70 70 70 70 69 69 68 68 68 67 67 67 67 67 69 71 75 76 75 74 74 74
70 70 70 70 70 69 70 69 68 69 68 69 70 72 72 72 71 71 70 70 70 70 70 70 69 69 68 68 66 66 67 67 66 67 69 68 72 75 76 76 74 74 73
69 70 70 70 69 70 69 69 68 68 68 68 69 69 70 70 70 71 70 70 69 70 69 69 69 69 68 68 68 67 67 67 66 66 66 67 70 74 77 76 76 75 74
65 66 67 69 68 69 71 70 70 70 69 69 68 70 70 69 69 70 71 70 70 70 70 69 68 68 68 68 68 68 67 67 67 66 65 66 67 72 76 77 77 75 74
66 65 64 64 65 68 64 64 66 68 68 68 68 69 70 70 71 71 71 70 70 70 69 69 68 68 68 68 67 67 68 67 67 66 65 65 65 66 72 75 76 76 75
65 64 64 63 62 62 62 63 62 62 64 67 69 68 69 70 70 72 71 71 71 71 70 69 68 68 67 68 67 67 67 67 67 66 65 64 64 64 66 70 72 73 74
62 61 61 63 60 59 59 60 63 61 60 62 63 65 68 71 71 69 69 70 70 71 70 69 68 67 67 66 66 65 65 66 66 65 64 64 63 65 63 65 68 70 72
60 59 58 58 57 57 58 58 58 58 59 59 60 61 64 67 69 69 68 68 67 68 68 69 68 68 66 66 66 64 65 65 65 66 64 64 63 63 62 62 64 65 68
58 58 57 57 56 57 56 56 56 56 57 59 59 61 62 61 65 67 69 69 67 66 66 67 68 68 67 67 66 64 64 65 65 64 64 64 64 64 64 63 62 62 63
56 55 55 53 53 53 53 52 53 52 53 55 57 60 60 60 61 62 67 67 67 67 68 66 66 64 64 65 61 59 61 64 63 64 64 63 63 64 65 63 62 61 62
52 52 52 51 51 51 51 50 49 50 50 53 55 55 57 57 57 59 59 64 68 67 66 64 66 65 65 64 64 62 58 59 61 63 64 63 63 64 63 63 63 61 61
48 49 49 49 49 50 50 49 48 48 49 49 50 50 53 54 55 55 57 59 60 66 67 66 64 65 65 62 61 59 55 55 57 59 61 62 62 62 63 60 61 64 64
46 48 48 50 49 50 48 46 44 42 42 45 46 49 50 52 53 54 55 57 59 61 65 66 64 63 60 57 57 58 59 57 53 53 58 62 61 61 61 60 59 62 63
46 45 47 46 46 47 46 45 43 42 43 44 47 48 49 50 52 52 53 54 56 58 62 66 62 58 59 57 56 57 59 60 58 54 52 57 61 62 61 61 60 61 62
45 45 45 44 42 44 45 43 45 43 43 43 44 46 48 50 51 53 54 53 55 58 61 64 63 62 59 59 59 62 62 60 59 56 52 55 58 60 61 60 60 60 62

GFSSE_sfc_temp_117.txt.gz
Temp
72 72 74 74 75 74 74 74 74 75 76 76 76 77 77 77 76 76 76 76 77 78 79 79 78 78 78 78 77 76 76 76 76 76 76 77 77 77 76 75 75 75 76
75 73 73 74 74 75 74 74 74 75 76 76 76 76 76 76 76 76 76 76 77 78 79 79 78 78 78 77 76 75 75 74 74 75 76 77 77 77 76 75 75 75 75
74 74 74 73 74 75 75 74 75 76 76 76 76 76 76 76 76 76 76 76 77 78 79 79 78 78 77 76 74 74 74 74 74 74 75 71 73 77 76 75 74 75 75
74 73 74 73 74 74 74 74 74 76 76 76 76 76 76 76 76 76 75 75 76 78 78 78 78 78 76 74 74 74 74 73 73 74 71 72 75 76 76 75 75 76 75
74 74 74 73 73 74 74 74 74 74 75 75 75 76 76 76 76 76 75 75 76 77 78 79 79 76 74 73 73 73 73 73 73 73 69 70 71 75 76 76 75 75 74
73 74 72 72 73 74 74 74 74 74 73 74 74 75 76 76 76 75 74 75 77 77 78 78 77 75 73 72 72 73 72 72 71 70 69 70 71 75 77 76 74 74 73
73 73 72 71 72 73 74 74 74 73 73 73 74 74 75 75 75 75 74 75 76 76 77 76 75 74 73 72 72 72 71 71 69 68 68 68 69 76 78 76 74 74 74
72 72 72 72 72 72 73 73 72 72 72 73 73 73 74 74 74 74 74 74 74 74 74 74 73 73 72 72 72 71 70 70 70 67 67 66 70 74 77 76 73 73 73
71 70 70 71 72 71 71 71 71 71 72 72 72 72 73 72 72 73 73 74 74 73 73 73 73 72 72 71 71 69 69 69 68 67 68 66 71 74 77 76 75 73 73
70 69 69 69 70 70 70 70 70 70 71 71 71 71 71 71 72 72 72 73 73 73 72 73 72 72 71 71 70 69 68 69 67 67 66 67 71 75 76 75 75 74 73
70 68 68 68 69 69 69 70 70 71 70 70 71 70 69 71 71 71 71 71 72 71 71 71 71 70 70 70 69 68 68 67 67 66 66 68 71 75 76 75 74 73 73
68 68 68 68 68 68 71 69 69 70 70 71 71 70 71 73 71 71 70 70 70 70 70 70 70 69 69 67 67 68 66 67 67 66 66 68 71 74 75 74 74 73 73
69 68 69 69 68 68 68 67 67 68 69 71 72 73 72 73 72 71 71 70 69 69 69 69 69 69 68 67 66 66 66 66 66 66 68 68 70 74 76 75 74 74 73
67 68 68 69 69 68 69 67 67 67 67 68 70 71 71 70 70 71 72 72 70 68 69 69 69 69 68 68 67 66 66 65 65 66 66 67 68 72 76 76 75 74 73
61 65 66 66 65 67 69 69 69 68 67 67 67 69 71 70 70 72 72 72 70 69 68 68 69 69 68 67 67 66 66 66 66 66 65 66 66 70 74 76 77 76 74
62 62 62 63 63 65 62 62 63 64 67 68 67 67 68 68 69 69 71 71 71 68 69 68 69 69 69 68 67 67 67 66 66 66 65 65 65 67 70 74 76 76 76
61 61 60 59 60 60 60 60 58 59 62 63 63 66 67 68 68 68 68 69 69 69 68 68 67 67 67 68 67 67 67 67 66 66 65 65 65 64 66 69 72 74 75
58 56 57 60 56 56 56 56 58 57 57 57 60 62 64 65 67 68 68 68 70 68 68 68 67 67 68 67 67 66 66 66 66 66 65 65 64 66 64 66 69 70 72
54 55 54 54 53 53 54 54 54 54 55 55 56 57 60 62 63 62 65 68 68 68 67 68 67 67 67 67 67 67 65 65 66 66 65 65 64 65 64 64 65 65 68
52 53 53 52 51 51 51 51 52 52 52 53 54 56 57 57 59 58 60 63 66 65 66 67 67 67 67 66 66 66 64 65 66 66 65 65 64 64 63 62 62 62 64
50 50 50 49 49 50 48 46 46 46 48 50 52 53 54 54 55 55 56 57 60 65 65 64 65 66 66 65 62 61 60 62 63 64 64 64 63 63 63 63 62 61 62
46 47 48 47 47 47 47 46 45 44 46 48 49 50 51 51 51 53 52 54 56 57 61 65 65 63 63 64 64 61 58 60 61 63 63 63 63 63 63 64 64 62 61
45 46 46 46 46 46 46 46 44 45 45 45 45 47 49 50 51 51 51 52 53 54 55 59 64 64 63 61 62 60 54 56 58 59 62 63 62 62 63 62 62 62 61
44 45 44 44 44 46 46 43 40 39 40 42 43 46 48 50 50 51 51 51 51 53 54 56 61 64 64 59 57 58 57 57 55 51 58 60 61 61 62 62 62 62 62
44 43 42 42 42 42 42 42 42 42 44 45 46 45 46 49 51 52 52 53 52 52 53 54 56 62 64 63 57 55 56 55 56 53 52 55 60 63 63 61 60 61 63
43 43 42 41 41 42 41 41 41 42 42 42 43 43 45 46 48 50 51 51 52 52 53 54 56 59 63 61 60 60 57 56 55 54 54 57 58 62 63 62 60 60 60

GFSSE_sfc_temp_120.txt.gz
Temp
71 72 74 74 75 74 74 74 74 75 76 76 77 77 77 77 77 76 76 76 77 78 79 79 78 78 79 78 77 77 76 76 76 76 76 77 77 77 76 75 75 76 76
72 73 73 74 74 75 74 74 74 75 76 76 76 76 77 77 76 76 76 76 77 78 79 79 78 78 78 77 76 75 75 74 74 75 76 77 77 77 76 75 74 75 76
72 73 73 73 74 75 75 75 75 76 76 76 76 76 76 76 76 76 76 76 77 78 79 79 79 78 77 76 75 75 74 74 74 74 75 73 74 77 76 75 75 75 75
73 72 72 73 74 74 74 74 75 76 76 76 76 76 76 76 76 76 75 75 77 78 79 79 79 78 76 74 74 74 74 74 73 74 72 73 75 77 76 75 75 76 75
72 72 73 73 73 74 74 74 74 75 75 75 75 76 76 76 76 76 75 75 77 78 78 79 79 77 74 73 73 73 73 73 72 72 71 71 73 76 76 76 75 75 74
71 72 71 72 73 74 74 74 74 74 73 74 74 75 76 76 76 75 74 75 77 77 78 78 77 75 73 72 72 73 72 72 71 70 70 71 72 76 77 75 74 74 73
71 71 71 71 72 74 74 74 74 73 73 73 74 74 75 76 76 75 74 75 76 76 77 77 75 74 72 72 72 72 71 71 70 69 69 69 71 75 76 76 74 74 74
71 71 71 72 72 73 73 73 72 72 73 73 73 74 74 74 74 74 74 74 74 74 74 74 73 73 72 72 72 71 70 70 70 68 68 68 70 74 77 75 74 73 73
71 70 69 70 72 71 71 71 71 71 72 72 72 72 73 73 73 73 74 74 74 73 73 73 73 72 72 71 71 70 69 69 69 68 69 67 72 73 76 76 75 74 73
69 69 68 68 69 69 69 69 70 70 70 71 71 71 71 71 72 72 72 73 73 73 72 73 72 71 71 71 70 69 68 69 68 67 67 67 71 74 76 76 75 74 73
69 68 67 67 68 68 69 70 70 71 70 70 70 70 68 70 70 71 71 71 72 71 71 71 71 70 70 70 69 68 68 67 67 67 67 68 71 74 76 75 74 73 73
67 68 67 67 67 68 70 69 69 69 69 70 72 71 71 72 71 70 70 70 70 70 70 70 70 69 69 68 68 68 67 67 67 67 67 68 71 74 76 75 74 73 73
67 68 68 67 67 67 68 67 67 68 70 71 72 72 72 72 72 71 71 69 68 69 69 69 69 69 68 67 67 67 66 67 67 67 68 67 70 73 75 75 74 74 74
64 65 67 67 67 67 68 67 67 68 69 69 70 71 70 69 69 70 71 72 71 70 69 68 69 69 68 68 67 66 66 66 67 67 66 67 68 72 75 76 75 74 73
63 64 69 69 69 68 69 69 67 66 67 68 68 70 70 69 68 69 70 70 71 71 70 70 70 70 70 69 68 67 66 66 67 66 66 66 67 69 73 76 76 75 74
61 60 60 62 64 66 62 62 62 64 65 67 67 67 69 69 68 68 69 70 69 69 70 70 70 70 70 70 69 68 67 67 66 66 66 66 65 66 69 74 76 76 76
57 57 57 57 58 58 58 58 57 59 60 61 62 63 65 65 64 66 68 69 70 70 67 69 68 68 69 69 69 69 68 67 66 66 66 66 66 64 65 69 71 73 74
53 53 54 56 54 54 55 55 56 56 56 56 57 59 60 62 62 63 62 65 68 69 68 68 68 67 67 67 67 68 68 68 66 66 66 66 65 66 65 65 67 70 72
50 51 51 51 51 51 52 52 53 53 53 53 53 54 56 57 58 57 60 62 64 66 67 67 67 67 66 66 66 67 67 66 66 66 66 66 64 65 65 64 64 65 68
48 49 49 49 49 49 49 50 49 49 50 50 51 52 53 53 54 53 55 56 57 61 65 65 65 65 65 66 66 65 66 66 66 65 65 65 64 64 64 64 64 64 63
47 47 47 46 46 47 46 45 46 45 47 47 49 49 50 50 51 50 51 52 54 55 57 62 64 62 62 66 62 61 63 64 64 64 64 64 63 62 63 63 63 63 64
43 44 44 44 45 45 45 45 44 44 46 46 46 47 48 49 49 50 48 49 51 52 53 55 61 63 63 65 62 60 57 61 62 63 64 63 63 63 63 64 64 64 64
42 43 43 43 43 45 45 45 45 43 44 44 44 45 47 49 49 49 49 49 50 51 51 53 55 58 62 62 64 60 55 56 58 60 63 64 64 63 63 63 64 65 65
43 44 43 44 43 44 43 43 42 40 41 44 44 44 46 48 48 49 51 52 52 52 52 52 54 55 58 61 60 63 59 58 56 54 58 63 63 62 63 63 64 64 64
41 41 42 43 41 42 41 42 41 40 42 44 44 44 44 45 48 49 50 50 50 51 52 53 53 54 54 57 60 57 57 57 55 56 53 55 60 62 64 64 64 64 64
41 40 41 41 41 40 40 41 40 40 41 41 42 42 43 45 46 47 48 47 48 49 50 52 54 54 54 56 59 60 59 58 56 56 54 55 58 60 63 64 65 63 64

GFSSE_sfc_temp_123.txt.gz
Temp
83 83 74 75 75 75 75 75 75 75 76 77 78 77 77 77 77 76 76 77 77 78 79 79 79 79 79 79 78 77 77 76 76 76 76 77 78 77 76 76 76 83 76
83 82 73 74 75 75 75 75 75 76 76 77 77 77 77 77 76 76 76 77 77 79 79 79 79 79 79 78 76 76 76 75 75 75 76 77 77 77 76 75 76 81 76
81 81 80 74 75 75 75 75 76 76 77 77 77 77 77 76 76 76 76 76 77 79 79 79 79 79 78 76 75 75 75 75 74 75 76 85 84 77 76 75 75 76 76
82 81 81 73 74 75 75 75 75 76 76 76 76 76 76 77 76 76 76 76 77 78 79 79 79 78 76 75 75 74 74 74 74 74 83 84 84 77 76 76 76 76 76
81 82 81 73 73 74 74 75 75 75 76 76 76 76 76 76 76 76 75 76 77 78 79 79 79 77 75 74 74 74 74 73 73 76 82 82 83 79 77 76 76 75 75
80 81 75 72 73 74 74 74 74 74 74 75 75 76 76 76 76 76 75 76 77 78 78 79 78 75 73 73 73 73 72 72 72 82 82 80 82 77 77 75 75 75 74
80 81 80 71 72 74 74 74 74 74 73 74 74 75 75 76 76 75 74 75 76 77 77 77 77 74 73 72 72 72 71 71 82 81 81 81 81 76 77 76 74 74 74
80 79 80 74 72 72 73 73 72 72 73 73 74 74 75 75 74 74 74 74 75 75 75 75 74 73 72 72 72 71 70 70 78 82 81 81 77 75 78 76 74 74 74
79 78 78 79 77 71 70 71 71 72 72 72 72 73 73 73 73 73 74 74 74 74 73 73 73 72 72 72 71 70 69 70 82 81 81 81 73 74 77 76 75 74 74
79 77 77 77 78 78 78 70 70 70 71 71 72 72 71 71 72 72 72 73 73 73 73 73 72 72 72 71 70 69 69 69 81 81 81 82 71 74 76 76 75 74 74
79 79 77 76 77 77 78 77 72 71 71 70 72 71 71 79 79 79 75 72 72 71 71 72 71 70 70 70 70 69 69 81 80 82 82 72 71 74 76 76 74 74 74
77 80 78 76 76 76 77 77 78 78 79 79 78 77 76 76 77 78 75 70 70 70 70 70 70 70 70 81 80 71 80 81 80 81 81 69 71 74 76 75 74 74 73
76 76 79 76 76 75 76 77 78 78 76 76 76 75 74 75 76 76 76 78 78 73 80 77 77 78 78 80 80 80 80 79 80 81 79 68 70 74 76 76 74 74 73
76 77 76 77 75 75 77 76 73 73 73 74 74 74 74 72 72 72 75 75 75 76 77 79 79 77 77 77 78 78 78 80 81 81 78 67 68 72 75 76 75 74 74
73 74 75 76 75 75 74 73 73 73 71 72 72 72 72 72 72 72 72 72 74 77 74 74 76 76 74 74 75 77 77 78 79 79 78 66 67 69 73 76 76 74 74
66 65 66 64 63 72 72 72 70 69 68 68 68 69 72 70 70 70 71 71 71 71 72 74 74 74 74 73 71 72 76 78 78 77 79 77 65 67 69 72 74 75 75
61 61 61 62 59 59 64 65 67 64 65 65 64 64 65 65 65 68 70 69 71 72 70 72 70 71 73 74 72 71 71 73 76 76 77 77 76 63 65 68 70 73 74
57 57 58 57 55 56 59 62 64 64 63 63 63 63 64 64 64 64 64 65 66 67 71 72 69 68 68 70 71 72 71 70 70 73 75 74 78 79 69 65 67 69 71
54 53 52 52 51 53 58 61 61 61 62 63 63 63 62 62 62 64 64 64 62 63 65 67 69 69 69 69 69 69 70 69 69 69 69 70 74 76 78 68 64 65 67
52 51 50 50 49 51 56 59 61 61 60 60 60 60 59 59 60 61 64 63 63 64 65 65 65 67 68 69 68 67 68 67 70 68 69 70 70 70 72 72 73 73 63
51 50 49 47 48 49 52 52 56 56 57 57 57 57 57 57 57 59 60 60 61 62 63 64 64 63 65 67 64 64 64 66 66 66 68 69 69 69 71 70 70 75 76
48 48 48 47 47 47 50 51 52 52 56 55 55 55 55 56 56 57 57 57 57 57 60 61 63 63 65 65 62 63 58 62 66 66 68 67 69 70 68 69 70 75 75
44 45 45 44 45 45 47 51 52 53 53 53 53 53 53 54 54 54 54 54 54 54 53 54 58 61 62 64 67 62 56 56 66 68 68 69 69 69 66 73 73 74 74
43 45 46 44 43 44 45 46 47 43 43 47 49 51 52 52 52 52 52 52 52 53 53 54 56 55 58 60 63 66 70 64 60 58 65 68 70 67 69 72 73 74 74
44 45 42 46 43 43 43 45 43 42 43 45 47 47 48 50 50 49 49 49 49 50 51 51 53 54 56 56 61 61 63 65 65 58 59 61 66 69 73 73 74 74 74
42 42 45 43 42 42 42 42 40 40 41 41 42 42 43 46 47 47 47 47 47 48 48 49 50 51 53 55 56 60 60 64 63 61 58 63 63 67 69 73 74 75 75

GFSSE_sfc_temp_126.txt.gz
Temp
94 91 75 76 76 76 76 76 76 77 77 77 77 77 77 77 77 76 77 77 77 79 80 79 79 79 80 79 78 77 77 77 76 77 77 77 78 77 77 76 77 86 77
95 91 74 75 76 76 76 76 76 76 77 77 77 77 77 77 77 76 77 77 77 79 79 79 79 79 79 78 77 77 76 76 75 76 77 78 78 77 77 76 77 82 77
92 90 83 74 75 76 76 76 76 77 77 77 77 77 77 77 77 76 76 76 77 79 79 79 79 79 79 77 76 76 76 75 75 75 76 89 88 77 77 76 76 76 76
93 91 89 74 75 75 75 76 76 77 77 77 77 77 76 77 77 76 76 76 77 78 79 79 79 79 77 76 75 75 75 75 74 75 87 93 89 77 77 76 76 76 76
92 93 89 74 74 75 75 75 76 76 76 76 76 77 77 77 77 76 75 76 77 78 79 80 79 78 76 75 74 74 74 74 74 77 91 90 90 80 77 76 76 76 75
91 92 78 73 74 75 75 75 75 75 75 75 75 76 77 77 77 76 75 76 77 78 79 79 78 76 74 74 74 74 74 73 72 91 90 85 88 77 77 75 77 76 75
90 91 88 72 73 74 75 75 75 74 74 74 75 75 76 76 76 75 75 75 76 77 78 77 77 75 74 73 73 73 72 72 86 90 89 88 87 77 77 76 75 74 74
88 89 89 76 73 73 74 74 73 73 74 74 74 75 75 75 75 75 74 75 75 75 75 75 75 74 73 73 73 72 71 71 83 90 89 89 77 76 78 76 74 74 74
89 86 87 87 83 71 71 71 71 72 72 73 73 74 74 74 74 74 74 74 74 74 74 74 74 73 73 73 72 71 70 71 87 91 90 90 74 75 77 76 75 74 74
90 88 86 86 85 86 86 71 71 71 71 72 72 72 72 72 73 73 73 73 74 74 73 73 73 72 72 72 71 70 69 70 84 90 89 91 74 75 77 76 75 74 74
88 88 88 86 86 86 86 84 73 72 72 71 73 71 73 84 85 83 77 74 73 72 72 72 72 71 71 71 70 70 69 86 87 89 91 72 73 75 76 76 75 74 74
85 87 89 87 85 85 88 86 85 86 86 84 85 85 83 84 86 85 80 72 71 71 71 71 71 70 71 86 85 72 83 87 88 89 91 70 72 75 76 75 75 74 74
85 87 89 86 86 85 87 88 88 89 88 86 84 83 80 79 79 81 84 84 83 74 83 79 79 80 83 86 89 88 87 87 89 90 85 69 71 74 76 75 75 74 74
81 83 83 84 85 85 87 87 88 88 86 85 83 80 80 79 80 80 77 79 83 86 83 80 79 82 83 85 86 86 86 88 90 90 86 68 69 73 75 76 76 75 74
74 74 75 76 74 77 82 85 83 83 82 83 81 81 76 75 77 78 75 74 75 79 80 80 80 80 81 82 83 83 84 85 86 89 89 68 67 70 74 76 76 76 75
70 70 70 69 69 65 64 70 74 76 77 76 75 78 77 74 74 75 76 75 74 74 76 77 77 77 76 75 78 81 81 84 86 86 89 85 66 67 70 73 75 76 76
68 67 64 63 63 64 61 63 65 68 69 68 67 67 69 69 68 73 77 77 77 78 74 74 75 75 73 73 74 76 78 80 81 83 85 87 83 64 66 69 71 73 74
64 61 62 61 59 60 62 63 64 65 66 65 66 67 67 67 66 66 68 68 69 70 68 73 73 74 72 70 70 71 73 77 79 81 81 82 86 88 68 65 67 70 71
62 58 58 58 56 56 57 61 64 64 66 67 67 67 65 67 67 68 71 71 69 68 68 66 68 71 71 71 71 70 71 72 76 74 77 78 79 82 83 68 65 65 68
62 59 55 54 56 57 57 59 63 65 65 67 68 66 65 66 66 68 72 71 71 73 74 70 66 67 67 68 68 68 69 70 72 70 71 75 77 79 79 78 77 77 63
59 58 56 52 50 51 56 55 56 57 66 66 66 64 64 64 63 65 68 69 70 70 71 71 72 72 72 72 65 65 66 69 66 65 65 65 70 77 77 78 80 82 81
57 56 55 52 50 50 51 51 57 57 63 64 64 63 63 61 61 61 58 59 58 60 63 65 68 69 72 71 65 63 59 61 66 65 66 66 67 73 74 77 78 78 81
56 56 57 55 51 50 50 52 54 58 60 59 60 61 59 59 57 54 54 54 54 55 56 56 57 59 65 72 69 69 61 60 70 70 66 68 70 74 76 75 74 77 79
53 53 55 52 55 54 53 52 52 56 56 56 58 57 57 57 53 52 51 52 53 53 53 53 56 55 56 58 68 66 72 75 68 67 74 73 74 75 76 79 79 78 81
48 48 49 53 52 51 51 48 49 50 52 56 56 53 53 53 53 51 50 50 50 51 51 50 50 51 53 54 58 64 65 69 69 68 68 72 75 78 79 79 80 81 82
50 51 50 50 50 50 46 48 48 46 45 47 48 48 50 49 49 49 49 49 49 49 48 49 50 50 51 52 54 57 59 60 69 68 68 71 73 77 79 80 79 79 82